GFSMA_con_mucape_000.txt.gz
CAPE
589 377 144 53 34 12 6 12 0 0 0 0 0 0 0 0 0 0 0 0 0 0 0 0 0 0 0 0 0 33 132 231 365 491 375 410 439 583 541 397 276 254 248
352 264 113 109 57 36 33 7 0 2 0 0 0 0 0 0 0 0 0 0 0 0 0 0 0 0 0 0 0 0 0 14 182 357 558 449 449 381 434 408 352 330 341
168 261 173 151 164 179 112 70 93 51 58 3 0 0 0 0 0 0 0 0 0 0 0 0 0 0 0 0 0 0 0 0 0 41 312 435 357 415 390 369 381 348 376
149 202 184 196 225 304 176 167 127 88 73 64 51 12 0 0 0 0 0 0 0 0 0 0 24 0 0 0 0 0 0 0 0 0 0 226 323 331 351 363 360 334 348
157 127 110 182 235 186 157 207 171 159 171 156 145 87 46 44 29 0 0 0 0 0 0 0 1 0 0 0 0 0 0 0 0 0 0 4 294 217 205 247 327 290 335
16 63 49 121 259 172 113 164 262 148 154 151 144 125 144 92 44 47 35 0 0 0 0 0 0 0 0 0 0 0 0 0 0 0 0 0 10 92 206 96 175 238 245
0 0 0 0 0 0 33 54 38 36 40 127 142 142 103 127 240 164 72 88 36 0 0 0 0 0 0 8 9 0 0 0 0 0 0 0 0 1 8 28 243 169 267
0 0 0 0 0 0 0 21 72 15 0 0 64 64 6 0 53 101 146 164 57 31 0 3 7 1 0 0 0 0 0 0 0 0 0 0 0 9 0 0 0 19 294
0 0 0 0 0 0 0 0 2 2 3 0 0 35 10 6 2 7 29 65 94 118 55 12 0 6 20 0 0 0 0 0 0 0 0 0 0 0 0 0 0 0 0
0 0 0 0 0 0 0 0 0 3 0 0 0 0 0 7 0 0 4 5 8 100 105 74 51 4 27 18 1 0 0 0 0 0 0 0 0 0 0 0 0 0 0
0 0 0 0 0 0 0 1 5 22 13 4 3 1 6 20 20 11 0 0 0 29 71 92 51 4 0 0 8 3 0 0 0 0 0 0 0 0 0 1 0 0 0
0 0 0 0 0 0 6 21 15 21 19 18 22 12 5 0 3 0 0 0 0 0 0 3 33 22 10 0 4 0 0 0 0 0 0 0 0 2 0 0 2 7 0
0 0 0 0 1 8 26 25 22 29 15 3 5 5 9 0 0 0 1 0 0 0 0 0 0 11 2 5 1 0 0 0 0 0 0 0 0 13 78 116 87 56 16
0 0 5 1 8 0 2 1 0 23 30 26 21 14 3 0 0 1 0 0 0 0 0 0 0 0 11 30 0 0 0 0 0 0 0 0 0 0 0 4 24 20 14
0 0 0 0 2 3 9 4 14 28 29 14 14 23 4 0 8 6 8 18 4 0 0 0 19 0 0 0 33 0 0 0 0 0 0 0 0 0 0 0 0 0 0
0 0 8 2 6 4 10 7 3 5 11 11 16 14 4 10 7 9 22 39 41 23 0 0 0 0 0 0 21 31 26 24 4 2 7 0 0 0 0 0 0 0 0
0 0 0 0 3 12 16 10 0 0 0 0 7 15 8 0 0 2 1 0 2 18 0 0 19 4 3 20 10 0 0 4 2 0 0 0 0 0 0 0 0 0 0
2 6 26 24 31 33 43 38 31 42 25 23 26 22 29 41 0 0 0 0 0 23 11 0 0 1 0 0 0 1 26 18 28 21 13 10 1 0 0 0 0 0 0
21 10 0 0 0 0 2 7 9 15 0 0 0 0 9 18 13 2 7 7 4 10 3 2 0 0 0 0 0 0 0 4 30 19 4 1 0 0 0 0 0 0 0
0 0 2 8 12 8 3 0 0 0 0 0 0 0 0 0 7 3 3 10 11 5 1 0 0 0 0 1 0 0 0 0 0 2 2 4 4 6 3 0 0 0 0
2 1 0 7 12 7 0 0 0 0 0 0 0 0 0 0 51 9 1 1 0 0 0 1 0 0 0 0 3 9 13 8 14 27 25 10 3 5 11 15 1 0 0
0 0 13 13 9 3 0 0 0 0 0 0 0 0 0 0 1 56 52 4 0 0 0 0 0 0 0 0 0 0 0 0 0 0 0 0 0 0 0 8 3 3 0
0 11 23 17 1 0 0 0 0 0 0 0 0 0 0 0 0 5 7 0 0 0 0 0 0 0 0 0 0 0 0 0 0 0 0 0 0 0 3 9 12 2 0
0 14 26 2 0 0 0 1 0 0 0 0 0 0 0 0 0 0 0 0 0 0 0 0 0 0 0 0 0 0 0 0 0 0 0 0 0 0 0 0 0 0 0
3 25 1 0 0 0 0 0 0 0 0 0 0 0 0 0 0 0 0 0 0 0 0 0 0 0 0 0 0 0 0 0 0 0 0 0 0 0 0 0 0 0 0
11 0 0 0 0 0 0 0 0 0 0 0 0 0 0 0 0 0 0 0 0 0 0 0 0 0 0 0 0 0 0 0 0 0 0 0 0 0 0 0 0 0 0

GFSMA_con_mucape_003.txt.gz
CAPE
37 36 42 2 0 2 0 2 0 0 0 0 0 0 0 0 0 0 0 0 0 0 0 0 0 3 52 155 386 346 298 354 715 1023 618 799 823 723 674 655 451 286 219
104 68 45 41 19 44 49 10 0 0 4 0 0 0 0 0 0 0 0 0 0 0 0 0 0 0 8 49 173 132 145 210 427 822 762 734 595 607 565 597 462 325 284
48 38 48 45 36 82 126 65 51 43 24 17 35 14 0 0 0 0 0 0 0 0 0 3 0 0 26 39 115 119 111 175 126 198 557 548 664 550 472 461 418 390 389
0 0 0 0 19 38 39 20 25 78 91 71 50 56 48 22 2 0 0 0 0 0 0 0 21 48 71 44 30 31 32 21 24 64 182 449 482 500 508 434 412 435 430
0 0 0 0 0 0 0 0 7 9 5 5 11 22 60 60 95 92 73 29 0 0 0 0 0 22 108 64 0 10 8 3 0 13 37 146 246 433 472 435 463 438 368
0 0 0 0 0 0 0 0 0 0 0 8 26 14 66 81 119 86 93 71 54 45 13 0 0 0 26 81 66 14 6 10 0 0 20 23 180 297 380 350 294 301 394
0 0 0 0 0 0 0 0 0 0 0 0 0 0 0 0 0 10 44 105 125 86 35 40 26 0 0 32 98 31 20 7 8 3 0 0 7 119 149 292 290 214 213
0 0 0 0 0 0 0 0 0 0 0 0 0 0 0 0 0 0 15 71 89 41 68 63 40 23 3 0 0 103 49 33 16 15 16 10 45 35 26 0 50 126 233
0 0 0 0 0 0 0 0 0 0 0 0 0 0 0 0 0 0 0 0 0 28 60 72 70 47 30 9 12 8 52 39 92 18 2 0 0 15 44 7 0 0 0
0 0 0 0 0 0 0 0 0 0 0 0 0 1 25 27 21 6 0 0 0 32 58 83 88 85 41 38 29 0 0 2 8 7 0 0 0 6 33 22 4 0 0
0 0 0 0 0 0 0 0 0 0 0 8 15 24 39 28 10 6 1 0 0 0 2 13 86 83 53 68 5 0 0 0 0 0 0 0 0 0 0 146 74 5 0
0 0 0 0 0 0 0 0 0 2 6 16 32 6 20 13 4 2 0 0 0 0 0 0 0 31 72 28 19 0 0 0 0 0 0 0 0 10 6 3 84 45 20
4 0 0 0 0 0 0 0 4 4 18 35 24 12 12 0 0 0 30 0 0 0 0 0 0 0 6 6 0 3 0 0 0 0 0 0 0 0 1 51 90 183 131
0 0 0 0 0 0 1 5 8 9 28 26 23 6 10 0 1 0 2 29 0 0 0 0 0 0 3 48 58 13 10 0 2 0 0 0 0 0 0 0 71 110 101
0 1 12 0 4 10 1 0 0 0 0 0 1 15 15 9 17 7 5 18 10 0 0 0 0 0 0 0 38 82 55 5 0 0 0 0 0 0 0 0 0 33 127
12 28 0 0 0 0 0 0 0 0 0 0 0 5 17 17 43 7 4 2 1 0 0 0 0 0 0 0 13 49 5 73 7 0 0 0 0 0 0 0 0 0 0
1 0 0 0 0 7 22 37 33 12 13 21 28 29 16 13 0 16 1 0 0 1 0 0 0 0 0 0 0 0 27 2 2 2 0 0 0 0 0 0 0 0 0
0 0 0 0 0 0 0 0 5 14 1 3 3 1 1 0 0 0 10 1 0 2 0 0 0 0 0 0 0 0 0 0 0 0 16 2 0 0 0 0 0 0 0
0 0 0 0 0 0 0 0 0 0 0 0 0 0 0 0 0 0 0 0 8 5 5 0 0 0 0 1 0 0 0 0 0 55 52 16 5 2 0 0 0 0 0
0 0 0 0 0 0 0 0 0 0 1 1 0 0 0 0 0 0 0 2 7 1 5 5 1 0 1 1 5 2 0 0 0 0 0 16 19 10 3 0 0 0 0
0 0 0 0 0 0 0 0 1 6 4 0 0 0 0 0 0 23 12 5 6 4 0 0 1 0 0 0 0 0 0 0 2 0 0 2 1 3 1 0 0 0 0
0 0 0 0 0 0 0 0 1 0 0 0 0 0 0 0 0 0 0 1 11 0 0 0 0 0 0 0 0 0 0 0 0 1 10 8 4 0 0 3 1 7 0
0 0 0 0 0 2 6 3 0 0 0 0 0 0 0 0 0 0 0 0 0 0 0 0 0 0 0 0 0 0 0 0 0 0 1 0 2 0 0 2 3 2 0
0 0 0 0 0 3 0 0 0 0 0 0 0 0 0 0 0 0 0 0 0 0 0 0 0 0 0 0 0 0 0 0 0 0 0 0 0 0 0 0 0 0 1
0 0 0 0 0 0 0 0 0 0 0 0 0 0 0 0 0 0 0 0 0 0 0 0 0 0 0 0 0 0 0 0 0 0 0 0 0 0 0 0 0 0 0
0 0 0 0 0 0 0 0 0 0 0 0 0 0 0 0 0 0 0 0 0 0 0 0 0 0 0 0 0 0 0 0 0 0 0 0 0 0 0 0 0 0 0

GFSMA_con_mucape_006.txt.gz
CAPE
7 9 6 1 0 0 5 8 9 1 0 0 0 0 0 0 0 0 0 0 24 65 48 1 0 0 11 173 398 557 533 548 535 848 1052 983 654 644 613 512 701 583 507
74 46 15 4 0 11 13 6 1 0 0 0 0 0 0 0 3 7 7 0 11 50 83 8 0 5 0 49 163 369 353 421 419 636 947 767 557 589 556 530 565 520 437
56 40 1 0 0 0 0 0 0 0 0 0 0 0 0 0 0 0 0 0 0 1 6 47 121 117 53 28 135 198 303 298 316 343 664 699 519 567 413 508 537 538 456
54 18 10 0 0 0 0 0 0 0 0 0 0 0 0 0 0 0 3 4 0 0 0 11 48 111 163 72 40 64 129 201 172 168 430 527 433 400 585 510 499 409 299
18 10 8 6 0 0 0 0 0 0 0 0 0 0 0 0 0 0 7 27 11 16 20 2 3 34 102 179 83 76 81 80 58 70 146 325 320 381 339 464 450 298 321
6 0 0 0 0 0 0 0 0 0 0 0 0 0 0 0 0 0 0 0 0 9 25 26 19 2 6 125 236 97 82 94 67 50 51 99 252 260 349 379 337 274 308
1 0 0 0 0 0 0 0 0 0 0 0 0 0 0 0 0 0 0 0 0 7 28 46 39 44 7 63 264 160 81 84 87 88 81 140 176 269 268 378 350 248 340
0 0 0 0 0 0 0 0 0 0 0 0 0 0 0 0 0 0 0 0 0 0 0 37 54 72 80 41 2 209 189 137 110 127 167 116 121 178 149 121 153 207 211
0 0 0 0 0 0 0 0 0 0 0 0 0 0 0 0 0 0 0 0 0 0 0 0 1 4 25 74 57 8 43 129 251 280 214 147 36 3 48 71 30 0 18
0 0 0 0 0 0 0 0 0 0 0 0 0 0 5 9 0 0 0 0 0 0 0 0 0 2 12 13 20 62 2 1 13 175 184 35 1 0 0 36 83 21 0
0 0 2 6 4 0 0 0 0 0 0 1 0 1 1 1 6 0 0 0 0 0 0 0 0 0 3 17 11 34 38 7 5 17 0 2 0 3 0 0 64 47 1
1 0 0 0 0 0 0 0 0 0 0 4 11 12 7 9 4 4 0 0 0 0 0 0 0 0 0 0 47 11 14 16 29 23 0 2 30 33 9 10 1 33 67
4 0 0 0 0 0 0 0 0 0 4 3 12 16 10 11 4 3 15 5 0 0 0 0 0 0 0 1 0 44 17 1 0 19 35 0 0 0 0 0 16 65 50
0 0 0 3 4 0 0 0 0 0 0 0 0 0 0 3 25 19 15 12 0 0 0 0 0 0 0 0 1 51 86 28 6 0 0 8 0 0 0 0 0 0 16
0 1 6 18 0 0 0 0 0 0 0 0 0 0 1 1 3 28 42 0 5 0 0 0 0 0 0 0 0 0 1 53 31 8 23 8 3 0 0 0 0 0 0
5 21 14 0 0 0 0 0 0 0 0 0 7 8 2 6 6 11 30 23 0 0 0 0 0 0 0 0 0 0 2 0 0 18 13 4 8 4 0 0 0 0 0
0 33 17 7 0 0 0 0 0 0 10 0 0 0 0 0 0 0 0 0 0 0 0 0 0 0 0 0 0 0 0 0 0 8 4 16 2 0 0 0 0 0 0
24 8 0 0 0 0 0 0 0 0 0 0 0 0 0 0 0 0 0 0 0 0 0 0 0 0 0 0 0 0 0 0 0 0 3 0 1 0 0 0 0 0 0
9 1 0 0 0 0 0 0 0 0 0 0 1 1 0 0 0 0 0 0 0 0 13 6 0 1 0 0 0 0 0 0 0 0 0 0 10 9 0 0 0 0 0
3 5 0 0 0 0 0 0 0 0 0 0 2 2 0 0 0 0 0 0 0 0 0 0 0 0 0 0 0 0 0 3 0 0 0 0 0 1 11 1 0 0 0
1 0 0 0 0 0 0 1 0 0 2 0 0 0 0 0 0 0 0 0 0 0 0 0 0 0 0 0 0 0 0 0 1 0 2 0 0 0 0 0 0 0 0
4 0 7 1 0 0 0 0 0 0 0 0 0 0 0 0 0 0 0 0 0 0 0 0 0 0 0 0 0 0 0 0 0 0 0 8 0 0 0 0 0 0 0
2 9 1 0 0 0 0 0 0 0 0 0 0 0 0 0 0 0 0 0 0 0 0 0 0 0 0 0 0 0 0 0 0 0 0 0 6 5 2 0 0 0 0
1 0 0 0 0 0 0 0 0 0 0 0 0 0 0 0 0 0 0 0 0 0 0 0 0 0 0 0 0 0 0 0 0 0 0 0 0 2 13 3 2 0 0
2 0 0 0 0 0 0 0 0 0 0 0 0 0 0 0 0 0 0 0 0 0 0 0 0 0 0 0 0 0 0 0 0 0 0 0 0 0 0 0 0 0 0
0 0 0 0 0 0 0 0 0 0 0 0 0 0 0 0 0 0 0 0 0 0 0 0 0 0 0 0 0 0 0 0 0 0 0 0 0 0 0 0 0 0 0

GFSMA_con_mucape_009.txt.gz
CAPE
6 0 0 0 0 0 0 0 0 0 0 0 0 0 0 0 0 0 0 0 0 0 0 19 50 40 103 141 245 419 253 289 468 561 743 696 584 441 532 388 295 556 476
33 0 0 0 0 0 0 0 0 0 0 0 0 0 0 0 0 0 0 0 0 0 10 24 45 80 67 163 173 262 309 389 180 215 426 645 617 435 389 496 370 267 504
14 9 9 0 0 0 0 0 0 0 0 0 0 0 0 0 0 0 0 0 0 0 0 0 39 209 205 198 174 161 209 354 202 104 191 394 480 386 303 409 401 379 375
32 33 25 0 0 0 0 0 0 0 0 0 0 0 0 0 0 0 0 0 0 0 0 0 0 0 9 99 154 163 134 168 290 137 165 219 320 413 377 292 258 368 341
35 16 0 1 0 0 0 0 0 0 0 0 0 0 0 0 0 0 0 0 0 0 0 0 0 0 0 0 6 39 88 136 183 53 104 170 221 230 279 256 194 295 304
22 19 2 7 0 0 0 0 0 0 0 0 0 0 0 0 0 0 0 0 0 0 0 0 0 0 0 0 0 9 34 90 120 68 65 91 157 173 174 200 186 136 276
0 0 0 0 0 0 0 0 0 0 0 0 0 0 0 0 0 0 0 0 0 0 0 0 0 0 0 0 0 0 44 126 131 183 241 179 112 152 111 129 149 209 146
0 0 0 0 0 0 0 0 0 0 0 0 0 0 0 0 0 0 0 0 0 0 0 0 0 0 0 4 13 4 0 51 193 274 319 287 204 115 120 40 38 40 59
0 0 0 0 0 0 0 0 0 0 0 0 0 0 0 0 0 0 0 0 0 0 0 0 0 0 0 0 1 25 23 0 0 66 250 294 260 39 16 3 23 41 5
0 0 0 0 0 0 0 0 0 0 0 0 0 0 0 0 0 0 0 0 0 0 0 0 0 0 0 0 0 0 4 0 17 12 36 89 221 0 0 0 0 20 33
0 0 0 1 0 0 0 0 0 0 0 0 0 0 0 0 13 0 0 0 0 0 0 0 0 0 0 0 0 0 0 0 0 57 19 19 0 0 0 0 0 3 33
0 0 5 7 0 0 0 0 0 0 0 0 0 0 0 0 0 26 0 0 0 0 0 0 0 0 0 0 0 0 15 1 7 16 9 52 19 0 0 0 0 2 14
1 4 0 0 0 0 0 0 0 0 0 0 0 0 0 0 3 30 37 0 0 0 0 0 0 0 0 0 0 1 0 22 16 2 16 4 15 19 3 1 0 0 25
0 0 0 3 2 0 7 0 0 0 0 0 0 0 0 0 0 9 24 0 0 0 0 0 0 0 0 0 0 0 0 8 20 4 9 2 11 0 0 0 0 0 0
0 6 12 9 22 0 0 0 0 0 0 0 0 0 6 0 0 0 0 17 44 0 0 0 0 0 0 0 0 0 0 10 40 45 18 17 17 1 1 0 1 0 0
24 42 40 21 28 0 0 0 0 0 0 0 0 0 0 0 0 0 0 0 0 16 0 0 0 0 0 0 0 0 0 0 0 13 7 26 12 4 4 0 27 8 0
17 39 31 11 2 4 0 0 0 0 0 0 0 0 0 0 0 0 0 0 0 0 0 0 0 0 0 0 0 0 0 0 0 0 0 0 14 4 9 1 1 0 0
21 27 5 4 0 0 0 0 0 0 0 0 0 0 2 0 0 0 0 0 0 0 0 0 2 13 3 0 0 0 0 0 0 0 0 0 7 21 27 0 0 0 0
0 11 4 0 1 0 0 0 0 0 2 0 3 3 0 0 0 0 0 0 0 0 0 0 0 6 8 2 0 0 0 0 0 0 0 0 0 45 3 0 1 0 0
19 1 0 0 0 0 0 0 0 0 0 1 1 0 0 0 0 0 0 0 0 0 0 0 0 0 0 3 0 0 0 0 0 0 0 0 0 0 0 3 0 0 0
15 0 0 0 0 0 0 0 0 0 0 0 0 0 0 0 0 0 0 0 0 0 0 0 0 0 0 0 0 0 0 0 0 0 0 0 0 0 0 0 0 0 0
15 2 1 0 0 0 0 0 0 0 0 0 0 0 0 0 0 0 0 0 0 0 0 0 0 0 0 0 0 0 0 0 0 0 0 0 0 0 0 0 0 0 0
5 0 0 0 0 0 0 0 0 0 0 0 0 0 0 0 0 0 0 0 0 0 0 0 0 0 0 0 0 0 0 0 0 0 0 0 0 0 0 0 0 0 0
1 0 0 0 0 0 0 0 0 0 0 0 0 0 0 0 0 0 0 0 0 0 0 0 0 0 0 0 0 0 0 0 0 0 0 0 0 0 0 1 1 0 0
0 0 0 0 0 0 0 0 0 0 0 0 0 0 0 0 0 0 0 0 0 0 0 0 0 0 0 0 0 0 0 0 0 0 0 0 0 0 0 0 0 0 0
0 0 0 0 0 0 0 0 0 0 0 0 0 0 0 0 0 0 0 0 0 0 0 0 0 0 0 0 0 0 0 0 0 0 0 0 0 0 0 0 0 0 0

GFSMA_con_mucape_012.txt.gz
CAPE
17 0 0 0 0 0 0 0 0 0 0 0 0 0 0 0 0 0 0 0 0 0 0 0 0 0 36 304 409 372 360 154 132 174 528 564 585 350 309 294 322 409 330
83 7 9 14 0 0 0 0 0 0 0 0 0 0 0 0 0 0 0 0 0 0 0 0 0 0 0 0 85 343 347 323 292 141 274 348 488 479 342 263 291 302 391
25 34 25 28 15 0 0 0 0 0 0 0 0 0 0 0 0 0 0 0 0 0 0 0 0 0 0 0 0 3 135 304 332 184 248 265 344 346 326 261 255 280 298
24 37 40 38 7 0 0 0 0 0 0 0 0 0 0 0 0 0 0 0 0 0 0 0 0 0 0 0 0 0 11 70 227 306 245 262 265 270 280 221 203 186 288
32 24 13 3 0 0 0 0 0 0 0 0 0 0 0 0 0 0 0 0 0 0 0 0 0 0 0 0 0 0 0 37 77 218 267 216 185 149 173 171 132 89 118
22 3 1 0 0 0 0 0 0 0 0 0 0 0 0 0 0 0 0 0 0 0 0 0 0 0 0 0 0 0 0 0 60 130 223 214 238 192 190 130 139 158 127
5 0 0 0 0 0 0 0 0 0 0 0 0 0 0 0 0 0 0 0 0 0 0 0 0 0 0 0 0 0 0 0 0 68 180 184 214 250 192 97 66 84 107
0 0 0 0 0 0 0 0 0 0 0 0 0 0 0 0 0 0 0 0 0 0 0 0 0 0 0 0 0 0 0 0 0 0 0 88 174 221 233 105 37 19 44
0 0 0 0 0 0 0 0 0 0 0 0 0 0 0 0 0 0 0 0 0 0 0 0 0 0 0 0 0 0 0 0 0 0 1 0 52 182 228 51 0 0 0
0 0 0 0 0 0 0 0 0 0 0 0 0 0 0 0 0 0 0 0 0 0 0 0 0 0 0 0 0 0 0 0 0 0 6 1 3 59 129 11 0 0 0
0 0 0 1 0 0 0 0 0 0 0 0 0 0 0 0 0 0 0 0 0 0 0 0 0 0 0 0 0 0 0 0 0 0 1 0 1 5 10 1 0 0 0
0 0 0 0 0 0 0 0 2 0 0 0 0 0 0 0 0 0 0 0 0 0 0 0 0 0 0 0 0 0 0 0 0 0 1 1 0 1 18 1 0 1 7
0 0 0 0 0 0 8 5 2 0 0 0 0 0 0 0 0 0 0 0 0 0 0 0 0 0 0 0 0 0 0 0 3 7 12 9 0 0 10 4 3 0 0
0 0 0 0 0 0 1 6 6 0 0 0 0 0 0 0 0 0 0 0 0 0 0 0 0 0 0 0 0 0 0 2 19 30 32 16 12 0 0 5 2 2 0
0 0 4 8 5 4 9 9 2 0 0 0 0 0 0 0 0 0 0 0 0 0 0 0 0 0 0 0 0 0 0 12 62 39 5 3 5 15 7 0 5 1 0
0 0 10 17 22 7 0 0 0 0 0 0 0 0 0 0 0 0 0 1 2 0 0 0 0 0 0 0 0 0 0 8 15 0 0 1 2 6 5 7 3 0 0
1 8 18 12 0 2 0 0 0 0 0 0 0 0 0 0 0 0 0 0 0 0 0 0 0 0 0 0 0 0 2 0 2 0 0 0 0 0 6 8 3 9 0
0 8 13 3 5 4 0 0 0 0 0 0 0 0 0 0 0 0 0 0 0 0 0 0 0 0 0 12 6 0 0 0 0 0 0 0 0 0 0 0 5 0 4
0 1 7 11 2 0 0 0 0 0 0 0 0 0 0 0 0 0 0 0 0 0 0 0 0 0 0 2 25 10 2 0 0 0 0 0 0 0 0 0 7 1 4
4 4 8 4 0 1 0 0 0 0 0 0 0 0 0 0 0 0 0 0 0 0 0 0 0 0 0 0 12 0 0 0 0 0 0 0 0 0 0 0 0 0 1
17 18 12 8 0 0 0 0 0 0 0 0 0 0 0 0 0 0 0 0 0 0 0 0 0 0 0 0 0 0 0 0 0 0 0 0 0 0 0 0 0 0 0
8 0 2 0 0 0 0 0 0 0 0 0 0 0 0 0 0 0 0 0 0 0 0 0 0 0 0 0 0 0 0 0 0 0 0 0 0 0 0 0 0 0 0
1 0 0 0 0 0 0 0 0 0 0 0 0 0 0 0 0 0 0 0 0 0 0 0 0 0 0 0 0 0 0 0 0 0 0 0 0 0 0 0 0 0 0
5 9 2 0 0 0 0 0 0 0 0 0 0 0 0 0 0 0 0 0 0 0 0 0 0 0 0 0 0 0 0 0 0 0 0 0 0 0 0 1 0 0 0
0 0 0 0 0 0 0 0 0 0 0 0 0 0 0 0 0 0 0 0 0 0 0 0 0 0 0 0 0 0 0 0 0 0 0 0 0 0 0 0 0 3 1
0 0 0 0 0 0 0 0 0 0 0 0 0 0 0 0 0 0 0 0 0 0 0 0 0 0 0 0 0 0 0 0 0 0 0 0 0 0 0 0 0 0 0

GFSMA_con_mucape_015.txt.gz
CAPE
102 26 2 0 0 1 0 0 0 0 0 0 0 0 0 0 0 0 0 0 0 0 0 0 0 0 0 0 0 5 148 436 198 129 316 519 615 560 347 230 238 258 211
69 13 4 4 14 18 2 0 0 0 0 0 0 0 0 0 0 0 0 0 0 0 0 0 0 0 0 0 0 0 2 36 381 210 212 335 391 463 434 235 244 305 265
33 45 35 27 27 22 0 0 0 0 0 0 0 0 0 0 0 0 0 0 0 0 0 0 0 0 0 0 0 0 2 0 40 269 261 256 331 396 381 301 229 261 195
30 20 16 4 2 0 8 3 0 0 0 0 0 0 0 0 0 0 0 0 0 0 0 0 0 0 0 0 0 0 0 0 2 52 228 299 228 257 216 319 256 188 129
5 6 0 2 5 0 0 0 0 0 0 0 0 0 0 0 0 0 0 0 0 0 0 0 0 0 0 0 0 0 0 0 0 10 112 312 327 232 294 327 306 195 98
0 0 1 0 0 0 0 0 0 0 0 0 0 0 0 0 0 0 0 0 0 0 0 0 0 0 0 0 0 0 0 0 0 0 2 127 296 332 244 318 249 119 96
0 0 0 0 0 0 0 0 0 0 0 0 0 0 0 0 0 0 0 0 0 0 0 0 0 0 0 0 0 0 0 0 0 0 0 0 76 154 316 283 136 58 48
0 0 0 0 0 0 0 0 0 0 0 0 0 0 0 0 0 0 0 0 0 0 0 0 0 0 0 0 0 0 0 0 0 0 0 0 0 27 147 217 164 70 46
0 0 0 0 0 0 0 0 0 0 0 0 0 0 0 0 0 0 0 0 7 0 1 0 0 0 0 0 0 0 0 0 0 0 2 0 0 0 97 218 261 70 33
0 0 0 0 0 0 0 0 0 0 0 0 0 0 0 0 0 0 0 0 0 0 0 0 6 2 3 9 2 0 0 0 0 0 3 5 6 0 64 194 214 31 11
0 0 0 0 0 0 0 0 0 0 0 4 1 0 0 0 0 0 0 0 0 0 0 0 2 9 0 11 4 1 0 0 0 0 21 17 19 48 73 238 164 10 7
0 0 0 0 0 0 0 8 4 1 0 0 0 0 0 0 0 0 0 0 0 0 0 2 3 0 0 7 0 0 0 0 0 0 42 65 55 18 17 90 81 61 39
0 0 0 0 0 0 6 5 1 0 0 0 0 0 0 0 0 0 0 0 0 0 0 0 2 0 0 0 6 0 0 0 0 9 81 64 66 36 15 16 62 64 69
0 0 0 0 0 9 9 0 0 0 0 0 0 0 0 17 44 60 42 7 0 0 0 0 1 7 2 0 0 0 7 0 3 46 86 66 39 30 46 15 0 8 4
0 0 0 0 11 16 0 0 0 2 1 7 1 27 32 31 45 16 3 16 0 0 0 0 0 0 0 0 1 0 16 0 2 35 0 0 5 5 40 34 12 7 12
0 0 0 12 17 19 0 0 2 3 4 0 0 27 40 14 0 0 1 0 0 0 0 0 0 0 0 0 0 0 11 2 0 18 6 0 0 1 2 5 27 22 8
0 0 7 12 15 16 7 4 2 0 0 0 0 9 1 0 0 0 0 0 0 0 0 0 0 0 0 0 0 1 30 46 24 0 0 0 0 0 0 0 7 14 17
0 0 0 6 10 28 3 0 0 0 0 0 0 0 0 0 0 0 0 0 0 0 0 0 0 0 0 0 0 0 50 22 38 0 0 0 0 0 0 0 0 5 23
0 0 0 10 9 24 3 0 0 0 0 0 0 0 0 0 0 0 0 0 0 0 0 0 0 0 0 0 0 35 37 54 6 0 0 0 0 0 0 0 0 6 2
0 18 25 22 8 5 4 0 0 0 0 0 0 0 0 0 0 0 0 0 0 0 0 0 0 0 0 0 0 14 48 44 8 0 0 0 0 0 0 0 0 13 5
4 38 27 8 1 1 0 0 0 0 0 0 0 0 0 0 0 0 0 0 0 0 0 0 0 0 0 0 0 5 14 43 21 0 0 0 0 0 0 0 0 1 4
2 9 0 0 0 0 2 0 0 0 0 0 0 0 0 0 0 0 0 0 0 0 0 0 0 0 0 0 0 0 0 0 0 6 1 0 0 0 0 0 0 0 0
0 2 6 14 5 2 0 0 0 0 0 0 0 0 0 0 0 0 0 0 0 0 0 0 0 0 0 0 0 0 0 0 0 30 0 0 0 0 0 0 0 0 0
0 1 2 0 0 0 0 0 0 0 0 0 0 0 0 0 0 0 0 0 0 0 0 0 0 0 0 0 0 0 0 0 0 0 0 0 0 0 0 0 0 0 0
0 0 0 0 0 0 0 0 0 0 0 0 0 0 0 0 0 0 0 0 0 0 0 0 0 0 0 0 0 0 0 0 0 0 0 0 0 0 0 0 0 0 0
0 0 0 0 0 0 0 0 0 0 0 0 0 0 0 0 0 0 0 0 0 0 0 0 0 0 0 0 0 0 0 0 0 0 0 0 0 0 0 0 0 0 0

GFSMA_con_mucape_018.txt.gz
CAPE
782 281 262 109 22 8 13 4 0 0 0 0 0 0 0 0 0 0 0 0 0 0 0 0 0 0 0 0 0 0 0 22 128 148 230 339 512 569 418 421 341 262 235
654 434 166 14 24 40 31 12 0 0 0 0 0 0 0 0 0 0 0 0 0 0 0 0 0 0 0 0 0 0 0 0 11 43 283 321 409 430 388 377 302 271 269
51 21 22 26 34 35 11 0 0 0 0 0 0 0 0 0 0 0 0 0 0 0 0 0 0 0 0 0 0 0 0 0 0 1 38 208 334 415 399 357 302 326 302
18 20 22 2 0 0 0 0 0 0 0 0 0 0 0 0 0 0 0 0 0 0 0 0 0 0 0 0 0 0 0 0 0 0 0 40 248 276 302 381 324 247 222
11 1 0 0 0 0 0 0 0 0 0 0 0 0 0 0 0 0 13 2 0 0 0 0 0 0 0 0 0 0 0 0 0 0 1 0 13 176 251 246 324 288 183
0 0 0 0 0 0 0 0 0 0 0 1 0 0 0 0 0 2 15 1 0 2 0 0 0 0 0 0 0 0 0 0 0 1 2 0 0 17 112 267 292 312 160
0 0 0 0 0 0 0 0 0 0 0 1 0 0 0 0 10 11 11 10 10 6 1 1 0 0 0 0 0 0 0 0 0 0 0 1 0 0 15 104 295 312 166
0 0 0 0 0 0 0 0 0 0 1 19 9 2 0 0 0 17 10 3 7 12 12 7 7 3 1 0 0 0 1 9 5 0 0 0 4 2 0 2 147 283 222
0 0 0 0 0 0 0 1 0 1 2 7 10 3 0 0 0 0 7 3 8 6 7 5 4 0 0 4 2 9 10 0 0 1 1 0 1 8 6 0 105 193 285
0 0 0 0 0 0 1 6 1 0 0 0 0 0 1 2 0 0 3 18 0 0 0 1 8 0 0 0 0 31 6 0 0 0 0 2 2 16 12 12 61 218 311
0 0 0 0 0 3 5 0 0 0 0 10 0 0 0 0 0 7 0 2 2 4 6 8 5 10 6 1 0 4 0 0 0 0 0 0 20 32 31 65 67 288 249
0 0 2 9 12 11 9 0 0 4 6 1 0 0 2 2 5 0 0 10 6 1 14 15 17 21 15 6 0 5 29 1 0 0 6 49 81 79 77 65 117 256 285
0 0 0 0 15 24 6 7 9 34 1 0 0 4 5 10 12 25 36 31 31 9 11 14 15 19 15 18 11 25 2 0 3 0 47 59 88 82 80 86 29 112 168
0 0 0 3 23 20 8 4 60 50 25 16 11 16 14 26 30 44 53 56 5 26 14 12 10 15 15 14 11 6 5 10 11 0 55 32 68 64 36 43 53 22 88
0 0 4 21 42 46 48 43 70 61 49 33 27 32 29 36 45 53 54 62 64 0 0 0 11 11 12 14 14 0 0 14 45 4 11 14 1 0 0 0 14 63 10
0 0 4 30 46 61 80 55 73 70 44 38 31 30 37 39 42 51 48 52 41 63 0 7 10 17 21 10 21 34 12 20 7 4 38 3 8 0 0 0 0 2 35
0 0 0 15 48 56 36 69 82 97 60 22 23 19 43 42 46 50 57 49 47 47 0 0 0 0 0 0 7 34 39 41 36 51 9 0 3 0 0 0 0 0 1
0 2 6 15 34 54 62 68 91 42 13 22 27 33 38 25 50 52 45 44 39 29 0 0 0 0 0 0 7 0 0 35 32 64 1 6 0 1 0 0 0 0 0
1 6 15 39 42 54 60 55 5 0 21 25 19 20 24 31 32 27 22 18 0 0 0 0 0 0 0 0 0 0 9 41 40 37 3 20 1 0 0 0 0 0 0
2 9 36 45 53 15 11 10 5 0 0 0 0 0 15 4 0 0 0 0 0 0 0 0 0 0 0 0 29 17 76 49 87 41 8 0 0 0 0 0 0 0 0
6 17 21 41 41 30 7 0 0 0 15 2 0 1 0 0 0 0 0 0 0 0 0 0 0 0 0 0 0 36 9 42 18 53 62 44 32 21 16 0 0 0 0
6 10 20 50 64 14 0 5 0 0 0 0 0 0 0 0 0 0 0 0 0 0 0 0 0 0 0 1 39 41 44 85 1 26 64 29 18 30 30 32 0 0 0
8 15 36 50 35 0 0 0 0 0 0 0 0 0 0 0 0 0 0 0 0 0 0 0 0 0 0 61 36 27 0 47 50 28 21 31 24 26 38 13 0 0 0
14 28 36 26 8 0 0 0 0 0 0 0 0 0 0 0 0 0 0 0 0 0 0 0 0 0 0 20 50 52 53 23 46 25 26 27 34 43 26 45 0 0 0
20 26 15 9 17 0 0 0 0 0 0 0 0 0 0 0 0 0 0 0 0 0 0 0 0 0 0 0 8 0 0 0 0 34 28 45 39 49 52 53 30 0 0
8 4 0 0 0 0 0 0 0 0 0 0 0 0 0 0 0 0 0 0 0 0 0 0 0 0 0 0 0 0 0 0 0 46 28 2 0 0 0 37 24 17 0

GFSMA_con_mucape_021.txt.gz
CAPE
1056 1003 960 582 300 151 109 75 44 1 0 0 0 0 0 0 0 0 0 0 0 0 0 0 0 0 0 0 0 0 0 0 0 0 10 215 382 408 449 367 317 288 303
284 116 398 534 141 112 50 28 1 0 0 0 0 0 0 0 0 0 0 0 0 0 0 0 0 0 0 0 0 0 0 0 0 0 0 2 87 241 344 323 322 318 265
376 456 213 117 38 7 1 0 0 0 0 0 0 0 0 0 0 0 2 10 5 0 0 0 0 0 0 0 0 0 0 0 0 0 0 0 0 25 172 321 351 311 291
34 24 25 4 1 0 0 0 0 0 0 0 0 0 0 0 0 1 1 26 33 10 3 1 0 0 0 0 0 0 0 0 0 0 0 0 0 0 0 92 258 361 295
0 1 0 0 0 0 0 0 0 0 1 1 0 0 1 0 1 0 0 7 32 28 21 1 18 0 0 0 0 0 0 0 0 0 3 1 1 0 0 0 33 243 299
0 0 0 0 0 0 0 0 0 0 0 3 0 0 1 0 0 0 6 20 14 14 24 15 9 15 33 0 0 0 3 2 3 6 0 0 0 0 0 0 3 34 245
0 0 0 0 0 0 0 1 5 3 0 0 0 3 1 3 16 1 6 17 7 2 14 15 29 13 5 24 4 8 2 7 20 17 11 4 0 0 0 0 0 13 89
0 0 0 0 0 0 0 0 0 0 0 1 1 0 0 0 0 0 0 0 31 8 13 19 3 7 11 9 10 0 20 9 3 6 11 8 4 1 0 0 1 0 17
0 0 0 0 0 0 0 0 2 6 1 1 2 4 0 0 0 2 3 2 45 12 21 0 7 6 10 0 3 5 24 0 0 0 6 8 7 2 1 1 2 3 1
0 0 0 0 0 0 0 2 1 8 5 8 16 12 26 32 0 0 1 4 24 12 70 16 12 6 1 1 12 32 11 3 0 0 1 11 11 14 7 7 6 3 3
0 0 0 0 2 3 4 12 21 20 20 38 32 34 13 0 1 10 0 8 10 15 20 40 25 19 12 10 16 19 40 42 0 0 0 4 14 27 35 20 21 20 25
0 0 0 0 0 2 12 23 35 26 43 46 20 24 25 19 19 25 24 31 58 18 19 20 70 45 46 47 26 67 65 29 1 0 0 13 9 47 49 51 53 70 75
0 0 0 0 0 0 12 21 24 29 69 43 29 40 32 40 44 38 41 37 42 25 31 38 48 50 24 74 54 65 9 9 12 7 14 22 10 44 65 68 72 77 81
0 0 0 0 1 9 20 33 22 73 62 54 50 53 57 58 60 58 51 65 52 36 30 24 51 60 65 59 59 72 14 37 28 27 52 23 13 37 7 5 6 33 81
0 0 0 0 6 12 24 51 74 82 59 52 78 69 58 70 58 53 55 59 76 52 0 32 54 46 64 57 65 60 56 53 66 45 19 24 31 27 1 1 1 0 1
0 0 0 0 0 10 71 82 60 65 81 88 88 39 45 53 50 50 44 71 67 81 27 35 36 55 49 21 41 56 40 49 43 49 26 20 27 0 0 0 0 0 0
0 0 0 0 2 8 26 39 45 59 66 91 90 39 58 53 60 44 92 77 85 75 62 54 31 28 19 16 29 53 49 70 61 57 58 48 4 0 0 0 0 0 0
0 0 0 4 14 27 27 49 50 69 75 44 39 46 39 29 32 51 50 40 47 46 63 0 1 1 0 0 9 0 48 23 50 26 71 31 0 1 0 0 0 0 0
0 0 4 10 18 33 41 51 35 31 35 38 32 26 27 20 27 14 13 12 7 2 20 4 0 0 0 0 0 26 28 46 29 62 20 1 8 41 0 0 0 0 0
0 3 7 13 32 34 28 26 15 31 35 33 24 31 28 7 3 0 0 0 0 0 0 0 0 0 0 0 46 55 58 40 50 17 4 1 14 28 15 0 0 0 0
3 5 9 20 32 33 13 14 19 39 34 25 22 13 7 0 0 0 0 0 0 0 0 0 0 0 0 12 0 44 68 35 42 63 40 59 6 51 27 6 0 0 0
6 7 14 20 36 28 0 0 0 0 5 19 13 4 1 0 0 0 0 0 0 0 0 0 0 0 0 0 69 66 68 50 1 44 33 0 27 65 42 36 8 0 0
9 19 21 17 29 14 0 0 0 0 3 13 6 0 0 0 0 0 0 0 0 0 0 0 0 0 0 0 0 14 16 57 48 31 33 10 56 29 28 26 0 0 0
14 13 20 24 23 5 0 0 0 0 8 9 0 0 0 0 0 0 0 0 0 0 0 0 0 0 0 0 0 0 0 20 33 40 47 17 33 42 46 48 1 0 0
10 18 21 18 14 11 0 0 0 0 7 0 0 0 0 0 0 0 0 0 0 0 0 0 0 0 0 0 0 0 0 0 0 0 38 53 35 63 101 83 84 1 0
8 20 9 6 5 11 0 0 0 0 0 0 0 0 0 0 0 0 0 0 0 0 0 0 0 0 0 0 3 1 4 0 0 0 19 43 32 19 35 48 45 76 3

GFSMA_con_mucape_024.txt.gz
CAPE
723 440 453 97 246 90 35 24 11 0 0 0 0 0 0 0 0 0 0 0 0 0 0 0 0 0 0 0 0 0 0 0 0 0 3 1 7 43 166 338 322 214 217
97 58 185 73 52 41 18 1 1 0 0 0 0 0 0 0 0 0 0 0 0 0 0 0 0 0 0 0 0 0 0 0 0 0 0 0 4 1 11 0 148 324 294
175 64 51 48 13 3 0 0 0 0 0 0 0 0 0 0 0 0 0 0 3 25 8 1 0 0 0 0 0 0 0 0 0 0 0 0 3 7 4 0 0 3 342
30 18 19 4 0 0 0 0 0 0 0 0 0 0 0 0 0 0 0 0 7 17 23 16 4 0 0 0 0 0 1 3 2 1 2 4 0 0 2 2 0 0 0
0 0 0 0 0 0 0 0 0 0 0 0 0 0 0 0 0 0 0 0 0 26 33 22 31 9 0 0 0 0 0 9 13 21 24 0 0 0 0 0 0 0 6
0 0 0 0 0 0 0 0 0 0 0 0 0 0 0 0 0 0 0 7 7 15 10 1 5 2 44 1 0 1 18 2 20 23 22 28 7 0 0 0 0 0 0
0 0 0 0 0 0 0 0 0 0 0 0 0 0 0 0 0 0 0 0 0 9 12 8 3 1 0 0 0 5 6 55 30 21 22 15 0 11 3 0 0 0 0
0 0 0 0 0 0 0 0 0 0 0 0 0 0 0 0 0 0 0 0 0 1 6 0 0 0 0 0 0 0 11 14 3 3 10 13 9 14 13 7 1 0 1
0 0 0 0 0 0 0 0 0 0 0 0 0 0 0 0 0 0 0 0 0 0 0 0 0 0 0 0 0 0 9 0 0 0 0 3 8 9 18 22 11 4 2
0 0 0 0 0 0 0 0 0 0 0 0 0 0 0 0 0 0 0 0 0 0 0 0 0 0 0 0 0 33 21 12 1 0 0 2 10 11 22 29 35 17 6
0 0 0 0 0 0 0 0 0 0 0 0 3 0 0 0 0 0 0 0 0 0 0 4 16 2 0 0 0 3 69 22 0 0 0 0 12 20 28 42 60 58 31
0 0 0 0 0 0 0 0 6 7 5 3 11 4 0 0 0 0 0 0 0 0 0 0 2 0 3 0 0 63 30 12 5 0 0 0 4 34 40 46 69 71 77
0 0 0 0 0 0 0 2 0 0 5 2 5 0 0 0 0 6 9 1 1 0 0 0 0 0 0 0 0 48 10 18 23 1 0 1 12 25 50 49 63 56 55
0 0 0 0 0 0 0 4 0 4 3 8 0 0 0 2 0 7 5 1 0 0 0 0 0 0 0 0 7 61 0 12 39 52 12 6 8 28 20 40 34 52 30
0 0 0 0 0 0 1 4 14 18 33 27 12 9 0 1 0 6 13 4 2 0 0 0 0 0 1 0 0 0 0 0 29 31 29 45 39 29 22 32 45 39 2
0 0 0 0 0 0 0 3 30 22 16 16 23 11 10 0 0 12 6 0 0 0 0 0 0 3 4 0 0 0 0 0 0 12 35 40 66 72 29 33 30 3 0
0 0 0 0 0 0 7 11 9 17 15 17 24 17 5 1 0 0 0 0 0 0 0 0 0 0 0 0 0 0 0 0 0 42 60 59 63 61 42 27 10 0 0
0 0 0 0 0 2 6 7 6 13 15 9 8 1 2 1 0 0 0 0 0 0 0 0 0 0 0 0 0 0 0 0 0 24 60 68 73 48 19 44 21 4 0
0 0 0 0 0 5 24 7 10 0 0 0 6 1 0 0 0 0 0 0 0 0 0 0 0 0 0 0 0 0 0 0 4 24 35 67 29 1 31 12 18 15 0
0 0 0 0 5 8 9 4 0 0 1 2 0 0 0 0 0 0 0 0 0 0 0 0 0 0 0 0 0 0 0 0 0 0 10 37 43 40 0 27 32 37 21
0 0 0 0 4 18 3 3 2 0 0 0 0 0 0 0 0 0 0 0 0 0 0 0 0 0 0 0 0 0 0 0 0 0 6 4 6 8 0 1 27 38 0
0 2 0 2 7 6 8 2 0 0 0 0 0 0 0 0 0 0 0 0 0 0 0 0 0 0 0 0 0 0 0 0 0 0 0 0 0 0 0 2 4 0 0
0 1 8 1 2 1 0 0 0 0 0 0 0 0 0 0 0 0 0 0 0 0 0 0 0 0 0 0 0 0 0 0 0 0 0 0 0 0 0 0 0 0 0
0 0 2 3 3 5 0 1 0 0 0 0 0 0 0 0 0 0 0 0 0 0 0 0 0 0 0 0 0 0 0 0 0 0 0 0 0 0 0 0 20 2 0
0 0 0 3 2 0 0 0 0 0 0 0 0 0 0 0 0 0 0 0 0 0 0 0 0 0 0 0 0 0 0 0 0 0 0 0 0 0 0 0 0 1 0
0 1 1 2 0 0 0 0 0 0 0 0 0 0 0 0 0 0 0 0 0 0 0 0 0 0 0 0 6 5 0 0 0 0 0 0 0 0 0 0 0 0 1

GFSMA_con_mucape_027.txt.gz
CAPE
244 33 25 34 0 1 17 4 0 16 0 0 0 0 0 0 0 0 0 0 12 7 0 0 0 0 0 0 0 0 0 0 0 3 2 2 3 1 4 5 0 0 96
37 35 0 2 15 14 17 15 0 0 0 0 0 0 0 0 0 0 0 0 2 19 4 0 0 0 0 0 0 0 0 0 0 0 2 12 8 3 1 0 0 0 0
7 6 0 6 5 0 0 0 0 0 0 0 0 0 0 0 0 0 0 0 0 6 2 0 9 1 1 0 0 0 0 0 1 0 1 5 9 10 6 0 0 0 0
14 2 17 8 0 0 0 0 0 0 0 0 0 0 0 0 0 0 0 0 0 0 13 7 9 5 0 0 0 0 0 7 4 8 25 22 12 0 0 0 0 0 0
0 0 0 0 0 0 0 0 0 0 0 0 0 0 0 0 0 0 0 0 0 0 4 37 9 3 5 0 0 0 0 3 1 30 31 23 13 5 0 0 0 0 0
0 0 0 0 0 0 0 0 0 0 0 0 0 0 0 0 0 0 0 0 0 0 0 0 6 7 6 0 0 0 0 15 35 25 14 19 21 21 6 3 0 0 0
0 0 0 0 0 0 0 0 0 0 0 0 0 0 0 0 0 0 0 0 0 0 0 0 3 10 9 4 0 0 0 3 0 5 7 7 0 3 9 6 3 6 0
0 0 0 0 0 0 0 0 0 0 0 0 0 0 0 0 0 0 0 0 0 0 0 11 8 1 0 0 0 0 0 0 0 0 0 7 8 3 6 9 15 7 8
0 0 0 0 0 0 0 0 0 0 0 0 0 0 0 0 0 0 0 0 0 0 0 0 0 0 0 0 0 0 0 3 0 0 0 5 20 23 10 11 15 17 21
0 0 0 0 0 0 0 0 0 0 0 0 0 0 0 0 0 0 0 0 0 0 0 0 0 0 0 0 0 12 35 0 0 0 0 0 8 21 29 22 23 25 34
2 2 0 0 0 0 0 0 0 0 0 0 0 0 0 0 0 0 0 0 0 0 0 0 0 0 0 0 0 0 13 0 0 0 0 0 5 21 34 36 32 32 41
12 8 2 0 0 0 0 0 0 0 0 0 3 8 0 0 0 0 0 0 0 0 0 0 0 0 0 0 0 10 31 2 0 0 0 0 3 21 35 56 60 64 48
12 1 0 0 0 0 0 0 0 0 0 0 0 0 0 0 0 0 0 0 0 0 0 0 0 0 0 0 0 0 0 0 0 0 0 0 4 17 30 42 63 67 58
5 0 0 0 0 0 0 0 0 0 0 0 2 5 2 2 6 2 0 0 0 0 0 0 0 0 0 0 0 0 0 0 0 0 0 0 0 0 0 31 55 61 61
1 0 0 0 0 0 0 0 0 1 12 14 12 21 20 18 6 0 0 0 0 0 0 0 0 0 0 0 0 0 0 0 0 0 0 0 0 0 0 33 46 49 51
0 0 0 0 0 0 0 0 0 0 1 2 4 9 14 6 0 0 0 0 0 0 0 0 0 0 0 0 0 0 0 0 0 0 0 38 51 9 0 0 36 38 50
0 0 0 0 0 0 0 0 0 0 2 0 0 1 2 1 6 5 0 0 0 0 0 0 0 0 0 0 0 0 0 0 0 0 23 41 56 67 43 39 51 43 35
0 0 0 0 0 0 0 0 0 0 0 0 0 0 2 4 1 0 0 0 0 0 0 0 0 0 0 0 0 0 0 0 0 0 52 45 51 47 69 26 29 46 40
0 0 0 0 0 0 0 0 1 0 1 0 0 0 0 0 0 0 0 0 0 0 0 0 0 0 0 0 0 0 0 0 0 0 0 19 47 33 44 18 6 25 14
0 0 0 0 0 0 0 0 3 12 7 0 0 0 0 0 0 0 0 0 0 0 0 0 0 0 0 0 0 0 0 0 0 0 0 0 30 9 13 2 0 2 55
3 0 0 0 0 0 0 0 11 10 13 1 0 0 0 0 0 0 0 0 0 0 0 0 0 0 0 0 0 0 0 0 0 0 0 0 0 0 0 0 0 1 14
0 0 0 0 0 0 0 0 1 2 0 0 0 0 0 0 0 0 0 0 0 0 0 0 0 0 0 0 0 0 0 0 0 0 0 0 0 0 0 0 0 0 0
0 0 0 0 0 0 0 0 0 0 0 0 0 0 0 0 0 0 0 0 0 0 0 0 0 0 0 0 0 0 0 0 0 0 0 0 0 0 0 0 0 20 44
0 0 0 0 0 1 0 0 0 1 2 0 0 0 0 0 0 0 0 0 0 0 0 0 0 0 0 0 0 0 0 0 0 0 0 0 0 0 0 0 0 0 41
0 0 0 0 0 0 1 2 1 0 0 0 0 0 0 0 0 0 0 0 0 0 0 0 0 0 0 0 0 0 0 0 0 0 0 0 0 0 0 0 0 0 1
0 0 0 0 1 2 10 5 0 0 0 0 0 0 0 0 0 0 0 0 0 0 0 0 0 0 0 0 0 0 0 0 0 0 0 0 0 0 0 0 0 0 0

GFSMA_con_mucape_033.txt.gz
CAPE
59 81 35 0 0 0 0 0 0 0 0 0 0 0 0 0 0 0 0 0 2 9 6 41 26 0 0 0 0 0 0 0 0 0 1 0 0 0 0 0 0 0 1
76 46 0 5 0 0 0 0 0 0 0 0 0 0 0 0 0 0 0 0 0 2 18 23 3 0 0 0 0 0 0 8 0 1 0 0 0 0 0 0 0 0 0
245 50 4 1 0 0 0 0 0 0 0 0 0 0 0 0 0 0 0 0 0 0 4 0 0 1 5 5 1 3 19 14 0 43 22 0 0 0 0 0 0 0 0
38 0 0 0 0 0 0 0 0 0 0 0 0 0 0 0 0 0 0 0 0 0 0 0 0 1 2 0 5 18 34 28 15 28 30 0 0 0 0 0 0 0 0
0 0 0 0 0 0 0 0 0 0 0 0 0 0 0 0 0 0 0 0 0 0 0 0 0 0 0 0 0 0 0 10 19 39 7 0 0 0 0 0 0 0 0
0 0 0 0 0 0 0 0 0 0 0 0 0 0 0 0 0 0 0 0 0 0 0 0 0 0 0 0 0 0 0 0 0 0 0 0 0 0 0 0 0 0 0
0 0 0 0 0 0 0 0 0 0 0 0 0 0 0 0 0 0 0 0 0 0 0 0 0 0 0 0 0 0 0 0 0 0 7 13 0 4 3 6 16 14 0
0 0 0 0 0 0 0 0 0 0 0 0 0 0 0 0 0 0 0 0 0 0 0 0 0 0 0 0 0 0 0 0 0 2 2 0 1 9 24 19 26 29 27
0 0 0 0 0 0 0 0 0 0 0 0 0 0 0 0 0 0 0 0 0 0 0 0 0 0 0 0 0 0 0 0 0 0 0 3 8 22 43 58 48 36 29
0 0 0 0 0 0 0 0 0 0 0 0 0 0 0 0 0 0 0 0 0 0 0 0 0 0 0 0 0 0 0 0 0 0 0 2 13 25 43 58 47 32 24
0 0 0 0 0 0 11 8 0 0 0 0 0 0 0 0 0 0 0 0 0 0 0 0 0 0 0 0 0 0 0 0 0 0 0 12 20 29 40 47 53 36 22
13 1 0 0 7 7 12 0 1 0 0 0 0 0 0 0 0 0 0 0 0 0 1 0 0 0 0 0 0 0 0 0 0 0 0 4 15 28 33 36 30 22 25
37 4 3 18 15 6 9 0 0 0 0 0 0 0 0 0 2 0 0 0 0 0 2 1 0 1 0 0 0 0 0 0 0 0 0 0 3 6 8 7 10 23 36
19 14 12 4 0 9 8 0 0 0 0 0 0 0 0 4 11 10 4 0 0 0 0 2 0 0 0 0 0 0 0 0 0 0 0 0 0 0 9 16 25 36 50
25 4 7 4 3 7 1 0 0 0 0 0 0 0 0 0 0 6 13 9 1 0 0 0 0 0 0 0 0 0 0 0 0 0 0 0 0 0 22 27 29 38 46
15 10 1 6 10 1 0 0 0 0 0 0 0 0 0 0 0 6 11 1 2 7 0 0 0 0 0 0 0 0 0 0 0 0 0 0 0 0 18 0 0 0 0
4 14 7 10 17 11 0 0 0 0 0 0 0 0 0 0 0 0 0 0 0 0 0 0 0 0 0 0 0 0 0 0 0 0 0 0 0 0 0 0 0 19 15
13 14 5 6 6 5 0 0 0 0 0 0 0 0 0 0 0 0 3 5 0 0 0 0 0 0 0 0 0 0 0 0 0 0 0 0 0 0 0 0 2 2 17
9 16 12 5 1 0 0 0 0 0 0 0 0 0 0 0 0 0 0 0 0 0 0 0 0 0 0 0 0 0 0 0 0 0 0 0 0 0 0 0 0 0 0
15 14 8 6 0 0 0 0 0 0 0 0 0 0 0 0 0 0 0 0 0 0 0 0 0 0 0 0 0 0 0 0 0 0 0 0 0 0 0 0 0 0 0
12 11 11 3 0 0 0 0 0 0 0 0 0 0 0 0 0 0 0 0 0 0 0 0 0 0 0 0 0 0 0 0 0 0 0 0 0 0 0 0 0 0 0
13 5 0 0 0 0 0 0 0 0 0 0 0 0 0 0 0 0 0 0 0 0 0 0 0 0 0 0 0 0 0 0 0 0 0 0 0 0 0 0 0 0 0
0 0 0 0 0 0 0 0 0 0 0 0 0 0 0 0 0 0 0 0 0 0 0 0 0 0 0 0 0 0 0 0 0 0 0 0 0 0 0 0 0 0 5
0 0 0 0 0 0 0 0 0 0 0 0 0 0 0 0 0 0 0 0 0 0 0 0 0 0 0 0 0 0 0 0 0 0 0 0 0 0 0 0 0 0 11
0 0 0 0 0 0 0 0 0 0 1 3 0 0 0 0 0 0 0 0 0 0 0 0 0 0 0 0 0 0 0 0 0 0 0 0 0 0 0 0 0 1 0
0 0 0 0 0 0 0 0 0 2 4 3 0 0 0 0 0 0 0 0 0 0 0 0 0 0 0 0 0 0 0 0 0 0 0 0 0 0 0 0 0 0 0

GFSMA_con_mucape_036.txt.gz
CAPE
9 17 22 27 11 0 0 0 0 0 0 0 0 0 0 0 0 0 0 0 0 0 11 54 48 4 0 0 0 0 0 11 0 13 0 0 0 0 0 0 0 0 0
35 75 81 32 15 0 0 0 0 0 0 0 0 0 0 0 0 0 0 0 0 4 18 25 27 13 10 0 0 0 19 6 9 42 20 5 0 0 0 0 0 0 0
90 93 52 37 28 0 4 1 0 0 0 0 0 0 0 0 0 0 0 0 0 0 0 0 0 0 0 8 1 3 21 0 0 42 3 0 0 0 0 0 0 0 0
173 211 56 5 0 3 5 0 0 0 0 0 0 0 0 0 0 0 0 0 0 0 0 0 0 0 0 0 0 3 2 6 11 22 36 0 0 0 0 0 0 0 0
212 121 0 4 22 3 0 0 0 0 0 0 0 0 0 0 0 0 0 0 0 0 0 0 0 0 0 0 0 0 0 1 4 8 12 1 4 4 0 0 0 0 0
45 45 33 35 1 0 0 0 0 0 0 0 0 0 0 0 0 0 0 0 0 0 0 0 0 0 0 0 0 0 0 0 0 2 11 11 15 10 7 8 15 12 7
15 18 0 0 0 0 0 0 0 0 0 0 0 0 0 0 0 0 0 0 0 0 0 0 0 0 0 0 0 0 0 0 0 3 7 12 7 3 4 13 20 30 29
0 0 0 0 0 0 0 0 0 0 0 0 0 0 0 0 0 0 0 0 0 0 0 0 0 0 0 0 0 0 0 0 0 0 0 0 3 9 18 28 36 44 54
1 0 0 0 0 0 0 0 0 0 0 0 0 0 0 0 0 0 0 0 0 0 0 0 0 0 0 0 0 0 0 0 0 0 0 5 12 22 27 27 28 35 38
6 0 0 0 0 0 0 0 0 0 0 0 0 0 0 0 0 0 0 0 0 0 0 0 0 0 0 0 0 0 0 0 0 0 0 0 4 12 26 37 40 44 45
7 0 0 0 0 0 0 0 1 2 0 0 0 0 0 0 0 0 0 0 0 0 0 1 3 0 0 0 0 0 0 0 0 0 0 1 8 19 33 37 43 48 45
4 0 2 8 9 6 0 0 3 0 1 0 0 0 0 0 0 0 0 0 0 0 0 1 4 1 0 0 0 0 0 0 0 0 0 0 11 37 53 55 47 39 32
26 49 53 57 50 3 15 5 4 3 0 0 0 0 0 0 0 0 0 0 0 0 0 0 3 1 3 0 0 0 0 0 0 0 0 0 2 15 26 24 17 16 26
63 82 72 58 4 14 12 10 8 9 0 0 0 0 0 0 0 0 0 0 0 0 0 0 0 0 0 0 0 0 0 0 0 0 0 0 0 0 7 16 23 28 35
75 99 80 44 20 44 16 9 8 2 0 0 0 0 0 0 0 0 0 11 0 0 0 0 0 0 0 0 0 0 0 0 0 0 0 0 0 0 0 22 37 44 35
74 87 83 43 23 6 12 5 2 0 0 0 0 0 0 0 0 0 1 10 0 0 0 0 0 0 0 0 0 0 0 0 0 0 0 0 0 0 0 0 0 0 0
74 62 58 23 5 21 18 9 5 0 0 0 0 0 0 0 0 0 0 0 0 0 0 0 0 0 0 0 0 0 0 0 0 0 0 0 0 0 0 0 0 0 0
24 18 10 19 13 13 13 3 0 0 0 0 0 0 0 0 0 0 0 0 0 0 0 0 0 0 0 0 0 0 0 0 0 0 0 0 0 0 0 0 0 0 0
15 0 2 8 4 3 0 0 0 0 0 0 0 0 0 0 0 0 0 0 0 0 0 0 0 0 0 0 0 0 0 0 0 0 0 0 0 0 0 0 0 0 0
18 4 10 8 4 0 0 0 0 0 0 0 0 0 0 0 0 0 0 0 0 0 0 0 0 0 0 0 0 0 0 0 0 0 0 0 0 0 0 0 0 0 0
20 9 1 4 0 0 0 0 0 0 0 0 0 0 0 0 0 0 0 0 0 0 0 0 0 0 0 0 0 0 0 0 0 0 0 0 0 0 0 0 0 0 0
0 22 0 0 0 0 0 0 0 0 0 0 0 0 0 0 0 0 0 0 0 0 0 0 0 0 0 0 0 0 0 0 0 0 0 0 0 0 0 0 0 0 0
23 6 18 0 0 0 0 0 0 0 0 0 0 1 0 0 0 0 0 0 0 0 0 0 0 0 0 0 0 0 0 0 0 0 0 0 0 0 0 0 0 0 0
0 0 0 0 0 0 0 0 0 0 0 0 0 2 2 0 0 0 0 0 0 0 0 0 0 0 0 0 0 0 0 0 0 0 0 0 0 0 0 0 0 0 0
0 0 0 0 0 0 0 0 0 0 0 0 3 6 5 0 0 0 0 0 0 0 0 0 0 0 0 0 0 0 0 0 0 0 0 0 0 0 0 0 0 0 0
0 0 0 0 0 0 0 0 0 0 0 0 0 0 4 0 4 0 0 0 0 0 0 0 0 0 0 0 0 0 0 0 0 0 0 0 0 0 0 0 0 0 0

GFSMA_con_mucape_039.txt.gz
CAPE
15 25 3 31 26 8 2 0 0 0 0 0 0 0 0 0 0 0 0 0 0 0 0 28 31 1 1 0 0 0 8 0 5 14 2 0 4 0 0 0 0 0 0
16 7 34 47 35 25 14 0 0 0 0 0 0 0 0 0 0 0 0 0 0 0 0 0 49 31 6 0 0 0 0 3 35 37 17 0 0 0 0 0 0 0 0
27 92 90 64 35 28 6 2 0 0 0 0 0 0 0 0 0 0 0 0 0 0 0 7 14 5 16 22 0 0 23 13 5 2 0 0 0 0 0 0 0 0 0
91 62 58 55 12 1 1 20 0 0 0 0 0 0 0 0 0 0 0 0 0 0 0 11 9 6 0 0 0 1 0 0 6 16 37 5 0 0 0 0 0 0 0
65 76 97 44 1 6 20 0 0 0 0 0 0 0 0 0 0 0 0 0 0 0 0 0 0 0 0 0 0 0 0 0 2 6 10 14 16 2 0 0 0 0 0
176 139 64 28 4 18 0 0 0 0 0 0 0 0 0 0 0 0 0 0 0 0 0 0 0 0 0 0 0 0 0 0 1 4 6 5 8 14 9 3 0 0 0
24 4 10 14 11 0 0 0 0 0 0 0 0 0 0 0 0 0 0 0 0 0 0 0 0 0 0 0 0 0 0 0 0 0 0 1 1 2 2 6 17 28 33
0 5 7 7 1 0 0 0 0 0 0 0 0 0 0 0 0 0 0 0 0 0 0 0 0 0 0 0 0 0 0 0 0 0 0 0 1 5 10 13 21 31 41
1 2 2 0 0 0 0 0 0 0 0 0 0 0 0 0 0 0 0 0 0 0 0 0 0 0 0 0 0 0 0 0 0 0 0 0 5 10 16 25 28 31 40
8 3 10 0 0 0 0 0 0 0 0 0 0 2 0 0 0 0 0 0 0 0 0 0 0 0 0 0 0 0 0 0 0 0 0 1 6 13 21 32 44 45 42
41 33 31 0 0 0 0 1 1 3 0 0 0 0 0 0 0 0 0 0 0 0 0 0 0 0 0 1 0 0 0 0 0 0 0 0 8 13 16 20 28 34 45
48 57 31 3 8 21 18 19 16 2 1 0 0 0 0 0 0 0 0 0 0 0 0 0 0 0 0 0 0 0 0 0 0 0 0 0 0 0 0 25 33 37 43
55 57 42 31 30 30 36 9 10 6 0 0 0 0 0 0 0 0 0 0 0 0 0 0 11 0 0 0 0 0 0 0 0 0 0 0 0 0 7 11 17 24 31
48 37 40 40 47 64 59 3 3 2 0 0 0 0 0 0 0 0 0 0 0 0 0 0 18 0 0 0 0 0 0 0 0 0 0 0 0 0 0 3 22 21 24
54 42 50 63 64 71 29 9 4 0 0 0 0 0 0 0 0 0 0 3 0 0 0 0 0 12 1 0 0 0 0 0 0 0 0 0 0 0 0 0 0 17 30
35 67 43 49 81 51 4 0 0 0 2 0 0 0 0 0 0 0 5 31 44 0 0 6 14 10 0 0 0 0 0 0 0 0 0 0 0 0 0 0 0 0 0
68 52 38 44 24 1 0 0 0 0 0 0 0 0 0 0 0 2 21 40 42 33 0 3 5 0 0 0 0 0 0 0 0 0 0 0 0 0 0 0 0 0 0
60 75 63 28 1 3 0 0 0 0 0 0 0 0 0 0 0 4 16 26 19 22 7 0 0 0 0 0 0 0 0 0 0 0 0 0 0 0 0 0 0 0 0
46 25 23 22 7 3 0 0 0 0 0 0 0 0 0 0 0 8 6 1 2 0 0 0 0 0 0 0 0 0 0 0 0 0 0 0 0 0 0 0 0 0 0
23 22 7 11 1 4 6 0 0 0 0 0 0 0 0 0 0 6 0 0 0 0 0 0 0 0 0 0 0 0 0 0 0 0 0 0 0 0 0 0 0 0 0
27 12 4 1 0 0 0 0 0 0 0 0 0 0 0 0 0 1 0 0 0 0 0 0 0 0 0 0 0 0 0 0 0 0 0 0 0 0 0 0 0 0 0
1 4 11 0 0 0 0 0 0 0 0 0 0 0 0 0 0 0 0 0 0 0 0 0 0 0 0 0 0 0 0 0 0 0 0 0 0 0 0 0 0 0 0
5 8 0 0 0 0 0 0 0 0 0 0 0 0 0 1 3 0 0 0 0 0 0 0 0 0 0 0 0 0 0 0 0 0 0 0 0 0 0 0 0 0 0
0 0 0 0 0 0 0 0 0 0 0 0 0 0 0 1 6 4 4 0 0 0 0 0 0 0 0 0 0 0 0 0 0 0 0 0 0 0 0 0 0 0 0
0 0 0 0 0 0 0 0 0 0 0 0 0 0 0 0 1 8 3 0 0 0 0 0 0 0 0 0 0 0 0 0 0 0 0 0 0 0 0 0 9 0 0
0 0 0 0 0 0 0 0 0 0 0 0 0 0 0 0 1 9 5 0 0 0 0 0 0 0 0 0 0 0 0 0 0 0 0 0 0 0 0 0 0 23 36

GFSMA_con_mucape_042.txt.gz
CAPE
93 153 136 93 34 10 10 0 0 0 0 0 0 0 0 0 0 0 0 0 0 0 4 23 36 9 5 0 0 0 0 0 11 3 0 3 4 0 0 0 0 0 0
172 314 177 50 29 20 10 3 0 0 0 0 0 0 0 0 0 0 0 0 0 0 0 1 72 31 1 0 0 0 0 0 9 3 0 2 0 0 0 0 0 0 0
361 223 96 30 24 5 3 0 0 0 0 0 0 0 0 0 0 0 0 0 0 0 0 0 14 7 19 12 0 0 0 0 0 0 0 0 0 0 0 0 0 0 0
334 164 44 32 31 22 0 0 0 0 0 0 0 0 0 0 0 0 0 0 0 0 0 0 0 4 4 5 10 9 18 1 11 18 20 28 4 0 0 0 0 0 0
90 59 33 37 39 0 0 0 0 0 0 0 0 0 0 0 0 0 0 0 0 0 0 0 0 0 0 0 0 0 0 1 3 5 12 17 23 26 20 9 0 0 0
52 37 29 43 11 0 0 0 0 0 0 0 0 0 0 0 0 0 0 0 0 0 0 0 0 0 0 0 0 0 0 0 0 3 7 7 9 12 13 12 13 14 16
79 54 48 4 0 0 0 0 0 0 0 0 0 0 0 0 0 0 0 0 0 0 0 0 0 0 0 0 0 0 0 0 0 0 0 1 3 4 5 12 23 38 51
54 5 0 0 0 0 10 0 0 0 0 0 0 0 0 0 0 0 0 0 0 0 0 0 0 0 0 0 0 0 0 0 0 0 0 0 0 1 6 17 23 34 47
109 6 6 4 3 0 0 0 0 0 0 0 0 1 0 0 0 0 0 0 0 0 0 0 0 0 0 0 0 0 0 0 0 0 2 11 19 25 31 40 52 56 56
44 20 27 22 24 0 0 0 0 0 11 14 6 0 0 0 0 0 0 0 0 0 0 0 0 0 0 0 0 0 0 0 0 0 0 1 4 27 41 57 77 86 90
68 42 52 47 43 37 1 0 0 10 5 11 4 0 0 0 0 0 0 0 0 0 0 0 0 0 0 1 4 1 0 0 0 0 0 0 0 11 25 39 50 59 65
61 83 89 56 43 12 5 2 1 19 11 6 0 0 0 0 0 0 0 0 0 0 0 0 0 13 16 10 0 0 0 0 0 0 0 0 0 0 0 0 15 25 34
133 70 99 79 48 17 18 31 48 36 2 4 1 0 0 0 0 0 0 0 0 0 0 15 18 18 16 21 27 0 0 0 0 0 0 0 0 0 0 7 14 23 33
239 237 300 107 102 47 46 49 49 13 6 2 0 0 0 0 0 0 0 0 0 0 3 14 17 23 27 30 14 0 0 0 0 0 0 0 0 0 0 1 10 19 29
231 391 161 80 55 60 50 44 10 2 1 0 0 0 0 0 0 0 0 0 0 0 0 9 13 18 28 34 31 12 0 0 0 0 0 0 0 0 0 0 0 18 30
84 68 34 35 18 48 23 10 6 4 0 0 0 0 0 0 0 0 0 0 5 6 0 22 14 20 30 23 15 0 0 0 0 0 0 0 0 0 0 0 0 0 0
53 62 49 39 42 31 14 12 9 0 0 0 0 0 0 0 0 0 0 11 26 35 0 28 17 17 24 18 8 1 0 0 0 0 0 0 0 0 0 0 0 0 0
67 89 85 47 50 17 6 2 11 5 0 0 0 0 0 0 0 0 0 40 39 43 39 0 19 18 26 12 0 0 0 0 0 0 0 0 0 0 0 0 0 0 0
64 111 111 58 40 15 5 5 2 2 0 0 0 0 0 0 0 17 41 51 44 30 35 37 2 24 14 1 0 0 0 0 0 0 0 0 0 0 0 0 0 0 0
36 58 39 43 16 9 4 1 0 0 0 0 0 0 0 0 35 42 38 50 44 41 41 34 10 10 3 0 0 0 0 0 0 0 0 0 0 0 0 0 0 0 0
35 39 20 8 1 9 8 0 0 0 0 0 0 0 6 6 1 7 13 28 42 41 36 0 0 0 0 0 0 0 0 0 0 0 0 0 0 9 23 24 13 14 0
46 6 0 0 6 13 0 0 0 0 0 0 0 8 9 0 0 0 0 0 0 19 31 37 0 0 0 0 0 0 0 0 0 0 0 0 0 0 19 31 17 0 0
0 0 0 1 0 0 0 0 0 0 0 0 3 2 1 2 5 12 7 2 1 0 0 6 0 0 0 0 0 0 0 0 0 0 0 0 0 0 17 20 25 5 0
0 3 0 0 0 0 0 4 0 0 0 0 0 0 1 4 14 21 11 32 14 11 0 0 0 0 0 0 0 0 0 0 0 0 0 0 0 0 9 32 15 24 1
0 0 0 0 0 0 0 0 0 0 0 0 0 0 0 0 1 0 1 29 21 21 3 0 0 0 0 0 0 0 0 0 0 0 0 0 0 0 0 0 32 5 18
0 0 0 0 0 0 0 0 0 0 0 0 0 0 0 0 0 0 0 3 36 26 35 6 0 0 0 0 0 0 0 0 0 0 0 0 0 0 0 0 0 32 51

GFSMA_con_mucape_045.txt.gz
CAPE
481 290 278 298 204 127 57 2 0 0 0 0 0 0 0 0 0 0 0 0 0 0 0 5 18 10 5 0 0 9 0 0 10 0 0 0 0 0 0 0 0 0 0
398 230 301 262 173 101 35 1 0 0 0 0 0 0 0 0 0 0 0 0 0 0 0 0 65 20 9 0 0 0 0 0 0 0 0 0 0 0 0 0 0 0 0
605 453 398 249 147 73 30 5 1 0 0 0 0 0 0 0 0 0 0 0 0 0 0 0 22 38 31 9 0 0 0 0 0 0 0 0 0 0 0 0 0 0 0
415 512 401 301 145 61 32 3 1 0 0 0 0 0 0 0 0 0 0 0 0 0 0 0 0 0 0 0 0 0 0 0 0 0 0 0 3 13 4 0 0 0 0
694 546 439 305 151 51 25 10 0 0 0 0 0 0 0 0 0 0 0 0 0 0 0 0 0 0 0 0 0 5 0 0 0 1 5 14 18 22 24 24 26 7 4
542 517 411 266 121 41 18 0 0 0 0 0 0 0 0 0 0 0 0 0 0 0 0 0 0 0 0 0 0 0 0 0 0 0 2 1 0 0 0 1 4 11 23
502 459 394 268 138 52 4 0 0 0 0 0 0 0 0 0 0 0 0 0 0 0 0 0 0 0 0 0 0 0 0 0 0 0 0 0 0 0 4 8 14 26 44
617 440 478 221 104 10 1 0 0 0 0 0 0 0 0 1 0 0 0 0 0 0 0 0 0 0 0 0 0 0 0 0 0 0 0 0 5 13 26 41 52 62 67
705 478 405 144 32 10 6 1 0 0 0 0 0 2 1 5 0 0 0 0 0 0 0 0 0 0 0 0 0 0 0 0 0 0 0 1 10 26 43 53 59 65 73
622 360 148 46 5 16 17 18 0 0 0 0 4 0 3 0 0 0 0 0 0 0 0 0 0 0 0 0 0 0 0 0 0 0 0 0 4 16 31 53 67 75 86
399 156 38 25 36 37 32 24 1 0 2 0 7 0 0 0 0 0 0 0 0 0 0 0 0 0 0 9 9 0 0 0 0 0 0 0 0 3 4 8 14 24 35
190 62 58 61 35 33 39 24 0 0 9 8 0 0 0 2 0 0 0 0 0 0 0 1 0 1 5 11 0 0 0 0 0 0 0 0 0 0 0 4 10 18 27
38 34 72 110 131 179 91 25 7 36 34 27 27 3 0 0 0 0 0 0 0 0 0 0 9 9 2 5 7 0 0 0 0 0 0 0 0 0 0 0 5 14 27
70 62 169 249 268 105 84 48 19 24 47 50 23 1 0 0 0 0 0 0 0 0 0 0 9 12 11 13 1 0 0 0 0 0 0 0 0 0 0 0 0 13 24
105 155 207 179 145 37 56 15 6 41 2 4 2 1 0 0 0 0 0 0 0 0 0 0 1 9 5 15 12 7 7 7 0 0 0 0 0 0 0 0 0 10 15
191 293 169 42 25 13 36 14 15 22 6 13 14 12 0 0 0 0 0 0 0 0 0 0 10 22 27 6 9 0 0 3 2 3 0 0 0 0 0 0 0 0 9
111 183 64 33 19 30 32 35 27 15 11 3 7 1 0 0 0 0 0 0 0 0 0 28 20 45 43 41 24 17 4 9 13 9 2 0 0 0 0 0 0 0 0
26 20 25 46 46 23 30 58 22 29 0 1 0 0 0 0 0 0 0 0 0 43 49 47 41 40 57 52 63 20 0 2 0 0 2 0 0 0 0 0 0 0 0
47 39 67 45 48 49 89 30 35 23 10 0 0 0 0 0 0 0 0 15 52 29 67 69 43 58 53 51 33 28 31 15 0 3 10 0 0 0 0 0 0 0 0
114 61 58 72 44 75 48 29 1 12 0 0 0 0 0 0 0 21 66 83 50 83 82 76 62 68 64 48 19 24 29 43 2 0 0 1 2 0 4 7 3 0 0
52 76 47 28 5 21 0 0 0 0 0 0 0 0 0 0 8 7 13 57 86 76 84 86 71 73 62 45 33 29 14 13 0 11 14 8 10 11 14 23 35 58 45
0 2 12 8 8 10 2 0 0 0 0 0 0 0 5 1 2 0 0 0 0 21 76 73 72 65 75 46 50 39 32 0 0 6 14 3 9 0 16 22 15 0 0
1 2 3 3 0 1 0 0 0 0 0 2 2 5 1 0 2 6 9 9 1 0 2 5 29 54 61 58 32 15 15 0 0 0 10 1 16 19 17 4 24 24 31
0 0 0 0 0 0 0 0 0 0 0 0 0 1 5 5 8 10 27 56 62 48 10 0 2 1 36 56 32 3 0 0 0 0 23 0 18 12 14 16 15 30 44
0 0 0 0 0 0 0 0 0 0 0 0 0 0 0 9 2 0 0 35 57 55 21 11 0 0 5 0 1 0 0 0 0 0 17 21 7 0 28 0 38 17 0
0 0 0 0 0 0 0 0 0 0 0 0 0 0 2 6 3 5 32 19 37 47 84 80 26 9 0 0 0 1 0 0 0 0 2 3 0 0 0 0 10 37 58

GFSMA_con_mucape_051.txt.gz
CAPE
76 65 65 9 0 0 0 0 0 0 0 0 0 0 0 0 0 0 0 0 0 0 0 15 11 17 8 1 10 0 0 5 0 0 0 0 0 0 0 0 0 0 0
151 107 128 136 58 28 28 0 0 0 0 0 0 0 0 0 0 0 0 0 0 0 0 0 11 35 15 1 2 2 0 0 0 0 0 0 0 0 0 0 0 0 0
185 245 241 192 179 83 56 0 0 0 0 0 0 0 0 0 0 0 0 0 0 0 0 0 0 74 41 12 2 0 0 0 0 0 0 0 0 0 0 11 0 0 0
332 264 192 238 108 84 41 19 0 0 0 0 0 0 0 0 0 0 0 0 0 0 0 0 17 27 34 35 10 3 1 6 13 0 0 0 0 3 6 6 3 8 15
214 156 312 244 143 92 37 3 0 0 0 0 0 0 0 0 0 0 0 0 0 0 0 0 0 0 0 0 5 8 0 0 0 0 0 0 0 0 0 2 4 7 11
128 341 326 265 192 97 22 0 0 0 0 0 0 0 0 0 0 0 0 0 0 0 0 0 0 0 0 0 0 0 0 0 0 0 0 0 0 0 1 2 5 9 19
229 350 330 255 230 97 52 19 1 0 0 0 0 0 0 0 0 0 0 0 0 0 0 0 0 0 0 5 0 0 0 0 0 0 0 0 0 0 7 17 31 32 38
248 355 360 362 216 125 55 33 35 5 0 0 0 3 0 0 0 0 0 0 0 0 0 0 0 0 0 0 0 0 0 0 0 0 0 0 0 0 2 13 30 32 35
302 331 438 333 236 167 56 53 44 25 7 1 0 0 0 0 0 0 0 4 1 0 0 0 0 0 0 0 0 0 0 0 0 0 0 0 0 0 4 20 27 28 28
285 360 385 284 260 237 79 84 28 23 18 28 15 2 0 0 0 0 0 2 1 0 0 0 0 0 0 0 0 0 0 0 0 0 0 0 0 0 0 1 3 0 12
371 303 312 278 274 238 163 73 45 68 56 32 29 29 3 1 0 0 8 7 3 0 0 0 0 0 0 0 0 0 0 0 0 0 0 0 0 0 0 0 0 9 12
296 258 179 217 251 240 198 48 47 65 125 83 40 20 3 0 0 10 4 0 0 0 0 0 0 0 0 0 0 0 0 0 0 0 0 0 0 0 0 0 6 6 11
277 118 68 139 181 138 79 87 47 43 80 17 28 26 0 0 6 10 0 1 0 0 0 0 0 0 0 0 0 0 0 0 0 0 0 0 0 0 0 0 0 0 0
270 96 143 152 163 149 103 50 46 64 55 98 29 23 0 0 7 26 15 7 0 0 0 0 0 0 0 0 0 0 0 0 0 0 0 0 0 0 0 0 0 0 0
309 178 46 54 146 153 190 80 97 54 26 26 48 13 0 9 9 15 10 0 0 0 0 0 0 0 0 0 0 0 0 0 0 0 0 0 0 0 0 0 0 0 0
349 287 92 55 117 223 89 67 159 20 61 54 9 15 3 6 12 9 7 0 0 0 0 0 0 0 0 0 0 0 0 0 0 0 0 0 0 0 0 0 0 0 0
300 233 157 145 170 168 130 127 46 61 60 23 0 13 4 17 8 4 4 0 0 0 0 0 0 0 0 0 0 0 0 2 1 2 0 0 0 0 0 0 0 0 0
292 244 140 138 85 88 139 120 78 17 36 50 48 0 1 0 0 0 0 0 0 0 0 0 0 0 0 0 0 0 0 0 0 0 1 0 0 0 0 0 0 0 0
251 180 199 89 141 217 81 24 28 45 9 9 5 9 7 0 0 0 0 0 1 4 5 12 0 0 1 16 10 5 2 12 20 3 0 0 0 0 0 0 0 0 7
298 167 117 188 154 69 35 25 24 10 17 15 5 8 15 1 0 0 0 0 3 3 4 14 15 7 11 5 21 22 21 20 12 9 0 0 0 0 0 6 6 30 37
240 132 158 174 50 4 25 12 22 18 16 2 5 8 1 0 0 0 0 4 8 8 6 2 1 1 0 0 12 19 8 7 1 0 0 0 0 0 0 0 0 9 25
135 42 59 0 9 6 8 10 0 6 9 12 0 0 0 0 0 0 0 0 0 0 0 0 0 0 1 6 8 16 22 10 3 2 3 0 0 0 0 0 0 0 13
0 0 0 0 0 0 4 1 1 0 0 0 0 0 0 0 0 0 0 0 0 0 0 0 0 0 0 3 19 16 24 39 19 6 0 0 0 0 0 0 0 19 15
0 0 0 0 0 0 0 0 0 0 0 0 0 0 0 0 0 0 0 0 0 0 0 0 1 3 4 4 8 12 17 30 30 14 0 0 0 0 0 0 0 2 1
0 0 0 0 0 0 0 0 0 0 0 0 0 0 0 0 0 0 0 0 0 0 0 0 0 0 0 2 13 21 5 38 16 4 14 0 0 0 0 0 0 0 0
0 0 0 0 0 0 0 0 0 0 0 0 0 0 0 0 0 0 0 0 0 0 0 0 0 0 0 0 0 0 0 16 17 1 0 0 0 0 0 0 0 0 0

GFSMA_con_mucape_054.txt.gz
CAPE
0 4 3 2 6 3 0 0 0 0 0 0 0 0 0 0 0 0 0 0 0 0 9 15 17 16 9 7 0 0 6 1 0 0 0 0 0 0 0 0 0 0 0
0 0 0 0 0 0 0 0 0 0 0 0 0 0 0 0 0 0 0 0 0 0 0 0 17 24 17 4 8 0 0 0 0 0 0 0 0 0 0 0 0 0 0
20 0 14 31 47 35 21 21 0 0 0 0 0 0 0 0 0 0 0 0 0 0 0 0 0 8 31 14 4 6 0 0 0 0 0 0 0 0 0 0 2 8 14
80 83 74 78 56 80 69 56 4 0 0 0 0 0 0 0 0 0 0 0 0 0 0 0 3 65 50 32 4 0 1 4 18 21 0 0 0 0 0 0 2 4 3
197 202 202 155 197 120 83 59 5 0 0 0 0 0 0 0 0 0 0 0 0 0 0 0 0 0 0 7 26 25 27 16 2 0 0 0 0 0 0 0 1 5 9
102 188 143 188 96 82 87 34 9 0 0 0 0 0 0 0 0 0 0 0 0 0 0 0 0 0 0 0 0 0 0 2 0 0 0 0 0 0 0 0 1 7 15
55 106 186 212 131 77 77 56 16 0 0 0 0 0 0 0 0 0 0 0 0 0 0 0 0 0 0 0 0 0 0 0 0 0 0 0 0 0 0 0 0 0 6
36 61 95 211 150 117 88 55 29 17 1 2 1 1 0 0 0 0 0 0 0 0 0 0 0 0 0 0 0 0 0 0 0 0 0 0 0 0 0 0 0 5 22
0 48 144 215 214 125 175 70 61 20 37 21 21 34 23 3 3 0 0 0 0 0 0 0 0 0 0 0 0 0 0 0 0 0 0 0 0 0 0 0 0 4 13
0 49 112 197 159 181 201 148 63 38 35 36 38 37 26 22 23 0 0 0 0 9 0 0 0 0 0 0 0 0 0 0 0 0 0 0 0 0 0 0 0 0 6
32 45 119 179 147 105 117 154 67 52 49 55 40 21 34 28 16 11 0 0 0 3 0 0 0 0 0 0 0 0 0 0 0 0 0 0 0 0 0 0 0 1 7
48 86 145 176 128 88 102 134 63 68 53 57 67 44 9 0 9 7 1 0 0 8 1 0 0 0 0 0 0 0 0 0 0 0 0 0 0 0 0 0 0 2 5
97 172 117 126 76 1 65 79 107 128 70 43 60 41 5 20 13 6 0 0 0 1 2 0 0 0 0 0 0 0 0 0 0 0 0 0 0 0 0 0 0 0 0
37 114 152 141 51 22 124 92 74 99 68 67 57 46 13 17 3 15 1 3 0 0 4 0 0 0 0 0 0 0 0 0 0 0 0 0 0 1 0 0 0 0 0
26 85 135 174 37 194 184 129 131 117 151 57 67 40 6 21 16 9 9 2 0 0 0 0 0 0 0 0 0 0 0 0 0 0 1 2 1 0 0 0 0 0 0
149 223 141 96 153 61 107 128 151 57 55 73 28 20 3 1 12 3 4 9 0 0 0 0 0 0 0 0 0 0 0 0 0 0 0 0 0 5 8 1 1 0 0
199 252 287 149 227 68 60 105 113 91 60 72 36 19 8 19 0 0 0 0 0 0 0 0 0 0 0 0 0 0 0 0 0 0 0 0 0 0 0 4 7 0 0
225 247 226 212 141 102 126 121 74 36 71 34 23 0 4 2 0 0 0 0 0 0 0 0 0 0 1 0 0 0 1 14 19 11 0 0 8 2 0 0 0 0 0
302 205 167 155 102 78 77 49 23 60 32 22 6 2 3 10 12 7 1 0 0 0 0 0 0 0 0 0 0 0 0 11 19 1 8 4 0 1 0 0 0 0 0
383 377 395 275 89 29 28 111 44 29 21 11 10 0 2 18 3 9 2 0 0 0 0 0 0 0 0 0 0 0 0 2 4 10 5 7 8 0 0 0 0 0 5
463 197 364 269 82 34 38 97 29 9 15 4 10 12 4 4 7 1 0 0 0 0 0 0 0 0 0 0 0 0 0 0 0 1 8 2 12 0 0 12 0 3 2
244 205 66 62 64 45 78 4 5 0 7 12 2 10 10 4 0 0 0 0 0 0 0 0 0 0 0 0 0 0 0 0 0 0 0 1 3 4 0 0 2 0 0
162 132 112 61 15 5 6 4 7 6 7 3 0 1 0 0 0 0 0 0 0 0 0 0 0 0 0 0 0 0 0 0 0 3 14 6 8 26 29 0 5 0 0
53 10 2 1 3 2 1 1 2 2 1 0 0 0 0 0 0 0 0 0 0 0 0 0 0 0 0 0 0 0 0 0 0 0 10 13 1 5 0 0 2 0 0
0 0 0 0 0 0 0 0 0 0 0 0 0 0 0 0 0 0 0 0 0 0 0 0 0 0 0 0 0 0 0 0 0 0 0 1 0 0 9 0 0 0 0
0 0 0 0 0 0 0 0 0 0 0 0 0 0 0 0 0 0 0 0 0 0 0 0 0 0 0 0 0 0 0 0 0 0 0 0 0 1 3 0 0 0 0

GFSMA_con_mucape_060.txt.gz
CAPE
0 0 0 0 0 0 0 0 0 0 0 0 0 0 0 0 0 0 0 0 2 6 8 22 28 25 27 13 13 11 4 0 0 0 0 0 0 0 0 0 0 0 0
0 0 0 9 5 0 0 0 0 0 0 0 0 0 0 0 0 0 0 0 0 2 9 13 21 34 34 14 12 13 9 0 0 0 0 0 0 0 0 0 0 0 0
1 12 4 18 9 5 3 12 6 12 0 0 0 0 0 0 0 0 0 0 0 0 0 2 28 28 34 28 9 3 0 0 0 0 0 0 0 0 0 0 0 0 0
17 21 25 5 19 10 23 21 27 14 8 0 0 0 0 0 0 0 0 0 0 0 0 0 0 61 60 30 44 22 8 0 0 0 0 0 0 0 0 0 0 0 0
14 25 22 22 14 32 23 38 71 71 24 2 0 0 0 0 0 0 0 0 0 0 0 0 0 0 58 79 45 34 26 32 12 0 0 0 0 0 0 0 0 0 0
21 16 15 20 49 61 59 84 106 90 65 18 1 0 0 0 0 0 0 0 0 0 0 0 0 0 30 106 60 24 23 39 49 0 0 0 0 0 0 0 0 0 0
79 56 65 74 77 82 61 67 77 92 72 46 9 8 12 0 0 0 0 0 0 0 0 0 0 0 0 0 18 0 0 0 3 0 0 0 0 0 0 0 0 0 0
134 179 201 161 167 130 147 134 123 102 71 51 22 10 1 0 3 1 1 0 1 2 10 2 0 0 0 0 0 0 0 0 0 0 0 0 0 0 0 0 0 0 0
61 77 118 141 180 148 123 107 86 67 83 50 29 25 21 4 6 4 3 0 2 21 12 11 6 0 0 0 0 0 0 3 10 0 0 0 0 0 0 0 0 0 0
48 16 26 35 53 93 113 115 83 53 44 31 23 23 34 23 26 0 2 0 15 9 7 19 17 0 0 0 0 2 0 0 0 0 0 0 0 0 0 0 0 0 0
10 8 12 7 6 40 90 82 77 65 52 63 60 49 46 35 33 34 33 14 18 0 19 17 6 9 0 0 0 7 5 0 1 6 32 35 44 64 44 21 8 0 0
0 0 5 0 3 43 47 34 73 79 77 75 61 56 28 0 0 47 28 30 4 15 11 24 1 1 0 0 5 5 11 10 8 9 25 97 77 75 87 80 76 59 40
0 0 0 0 4 14 12 18 27 47 47 45 72 52 1 6 31 48 42 9 13 17 9 8 4 6 4 0 0 1 0 1 3 0 0 33 91 111 96 77 95 92 74
0 0 0 0 18 26 15 21 20 28 54 45 42 72 41 53 58 83 59 21 1 0 2 8 5 13 0 0 0 0 0 0 0 0 0 0 22 49 87 103 86 97 75
0 0 0 0 0 1 42 9 29 72 52 39 64 59 61 110 119 42 11 24 3 0 0 3 11 24 1 0 0 0 0 0 0 0 0 0 1 22 52 78 100 121 111
0 0 0 0 2 25 56 57 42 80 66 26 60 91 119 122 26 18 13 6 7 4 4 3 4 9 2 0 0 0 0 0 0 0 0 0 0 0 7 28 64 82 105
21 11 15 23 31 123 66 91 71 71 92 45 80 110 131 76 5 11 2 3 0 1 0 0 4 6 1 0 0 0 0 0 0 0 0 0 0 0 0 0 7 43 78
0 0 0 6 32 112 99 99 26 69 97 88 85 68 120 63 28 1 2 17 4 0 0 0 3 1 0 0 0 0 0 0 0 0 0 0 0 0 0 0 0 0 21
9 1 0 8 78 118 159 177 45 51 74 121 49 79 100 19 15 14 2 10 3 0 0 0 0 0 0 0 0 0 0 0 0 0 0 0 0 0 0 0 0 0 13
35 32 1 14 46 71 44 147 151 139 126 351 82 111 58 5 6 20 9 7 0 1 10 5 0 0 0 0 0 0 0 0 0 0 0 0 0 0 0 0 0 13 32
91 78 56 63 102 194 140 212 195 228 138 75 68 26 17 29 9 9 1 4 6 15 11 3 0 0 0 0 0 0 0 0 0 0 0 0 0 0 0 0 0 0 24
131 136 117 194 200 252 287 313 238 145 77 53 40 45 16 18 24 10 1 4 14 14 2 0 0 0 0 0 0 0 0 0 0 0 0 0 0 0 0 0 0 0 0
176 135 170 284 165 248 259 219 188 84 69 55 36 40 53 10 7 0 4 3 14 9 2 0 0 0 0 0 0 0 0 0 0 0 0 0 0 0 0 0 0 1 0
252 187 290 432 455 117 189 163 117 58 54 57 35 18 8 7 6 6 7 11 5 3 0 0 0 0 0 0 0 0 0 0 0 0 0 0 0 0 0 0 0 0 0
346 331 284 338 202 156 155 103 69 81 88 72 13 9 5 5 8 10 1 1 0 0 0 0 0 0 0 0 0 0 0 0 0 0 0 0 0 0 0 0 0 0 0
72 107 140 142 114 151 103 55 16 17 11 4 6 8 3 1 0 0 2 0 0 0 0 0 0 0 0 0 0 0 0 0 0 0 0 0 0 0 0 0 0 0 0

GFSMA_con_mucape_063.txt.gz
CAPE
5 11 2 1 0 0 2 0 0 0 0 0 0 0 0 0 0 0 5 8 17 27 17 20 20 17 14 11 2 0 0 0 0 0 0 0 0 0 0 0 0 0 0
19 12 7 0 0 0 0 0 0 0 0 0 0 0 0 0 0 0 0 3 2 15 22 19 26 28 25 20 17 15 0 0 0 0 0 0 0 0 0 0 0 0 0
79 48 14 0 0 0 6 0 0 0 0 0 0 0 0 0 0 0 0 0 0 0 0 25 20 31 33 19 11 15 22 0 0 0 0 0 0 0 0 0 0 0 0
65 33 6 3 6 6 16 6 10 19 1 0 0 0 0 0 0 0 0 0 0 0 0 0 0 51 39 30 18 5 0 0 0 0 0 0 0 0 0 0 0 0 0
69 58 19 26 28 35 32 35 51 53 37 10 1 0 0 0 0 0 0 0 0 0 0 0 0 0 93 90 53 56 44 22 10 13 0 0 0 0 0 0 0 0 0
51 71 63 57 47 38 52 56 72 85 71 62 30 6 0 0 0 0 0 0 0 0 0 0 0 0 0 92 89 48 49 63 63 40 3 0 0 0 0 0 0 0 0
63 121 128 94 90 115 86 57 56 83 82 83 53 18 0 4 6 0 0 0 1 0 0 0 5 3 0 48 131 44 0 0 8 73 57 0 0 0 0 0 0 0 0
86 124 155 178 134 148 114 75 66 77 67 93 79 35 0 0 0 4 6 7 11 3 0 13 10 5 3 1 0 22 0 0 0 0 19 8 0 0 0 0 0 0 0
148 182 189 200 206 256 231 175 83 86 110 52 59 31 0 0 0 2 1 7 16 8 13 13 6 0 0 1 1 0 0 0 0 0 0 67 0 0 0 0 0 0 0
138 118 110 121 175 225 180 141 58 103 111 83 50 35 25 0 0 2 0 2 9 30 27 1 5 0 2 1 3 0 0 0 0 0 0 0 0 0 0 25 0 0 0
53 61 55 95 130 184 208 215 112 121 121 94 64 28 28 19 9 1 6 0 4 8 35 11 2 0 6 3 0 0 0 0 2 0 2 2 9 8 74 73 68 53 36
42 64 50 76 114 120 140 190 187 131 98 91 74 47 50 41 25 19 0 8 8 13 12 2 3 9 15 1 0 2 0 0 0 0 1 10 10 7 51 64 88 100 93
22 34 44 51 57 79 115 170 175 128 96 45 53 34 42 27 45 16 10 42 17 20 14 17 4 4 2 1 6 7 6 0 0 0 0 0 0 0 13 38 49 68 89
25 10 26 34 32 48 91 137 131 124 61 20 32 5 43 44 43 37 29 35 30 8 11 6 0 15 5 8 15 3 14 0 0 0 0 0 0 0 0 14 37 73 76
0 0 4 5 5 21 58 108 135 132 50 18 28 60 44 22 46 54 47 44 33 3 6 1 2 2 1 1 5 4 3 0 0 0 0 0 0 0 0 0 18 43 64
0 0 0 0 0 0 21 43 49 23 62 64 19 61 46 34 59 52 51 41 6 11 19 0 4 3 5 1 2 5 0 0 0 0 0 0 0 0 0 0 0 0 9
0 0 0 0 0 0 1 2 2 75 60 63 63 41 54 44 64 76 66 9 0 11 4 0 6 4 0 0 5 2 0 0 0 0 0 0 0 0 0 0 0 0 0
0 0 3 0 0 0 0 10 22 35 36 52 15 24 86 63 72 80 17 36 8 3 0 4 8 5 0 1 2 0 0 0 0 0 0 0 0 0 0 0 0 0 0
0 0 0 0 0 6 3 0 13 22 65 70 51 18 78 84 45 29 50 47 16 5 5 14 2 0 2 2 1 0 0 0 0 0 0 0 0 0 0 0 0 0 0
2 3 1 0 0 2 11 8 10 71 58 33 47 74 141 81 47 82 56 40 10 2 2 0 0 0 1 1 2 0 0 0 0 0 0 0 0 0 0 0 0 0 0
11 14 20 24 40 24 9 11 10 63 14 74 110 110 78 22 46 38 16 19 23 8 13 4 9 0 1 1 0 0 0 0 0 0 0 0 0 0 0 0 0 0 0
24 37 31 37 64 65 96 73 81 67 237 206 260 87 28 75 32 47 26 9 14 3 2 4 0 0 2 0 1 0 0 0 0 0 0 0 0 0 0 0 0 0 0
184 144 104 70 81 138 81 188 190 132 241 99 138 57 45 34 52 35 29 13 9 6 2 6 0 1 1 1 0 0 0 0 0 0 0 0 0 0 0 0 0 0 0
174 187 172 83 116 110 178 240 127 184 237 151 57 68 65 30 52 48 24 4 3 8 8 7 7 3 0 0 0 0 0 0 0 0 0 0 0 0 0 0 0 0 0
194 188 211 464 400 236 108 80 150 71 169 100 52 66 79 87 42 57 4 5 1 3 5 0 0 0 0 0 0 0 0 0 0 0 0 0 0 0 0 0 0 0 0
335 195 280 175 226 86 84 87 62 141 131 118 92 5 45 26 3 2 3 0 0 0 0 0 0 0 0 0 0 0 0 0 0 0 0 0 0 0 0 0 0 17 4

GFSMA_con_mucape_066.txt.gz
CAPE
168 83 192 214 179 207 148 70 25 0 0 0 0 0 0 0 0 4 6 11 23 24 15 18 14 12 7 6 0 0 0 0 0 0 0 0 0 0 0 0 0 0 0
163 81 76 67 66 158 163 81 40 3 0 0 0 0 0 0 0 3 5 3 8 26 38 26 28 21 20 8 2 0 0 0 0 0 0 0 0 0 0 0 0 0 0
145 175 78 62 54 63 59 37 33 8 0 0 0 0 0 0 0 0 0 6 1 6 22 40 49 32 28 19 0 0 0 0 0 0 0 0 0 0 0 0 0 0 0
160 163 108 87 58 50 25 23 24 18 7 1 0 0 0 0 0 0 0 0 1 2 0 5 68 77 45 30 16 0 0 0 0 0 0 0 0 0 0 0 0 0 0
179 131 105 71 128 96 27 18 31 13 2 0 0 0 0 0 0 0 0 0 0 0 0 0 0 29 88 62 23 5 0 0 0 0 0 0 0 0 0 0 0 0 0
107 94 80 110 121 173 133 98 108 74 39 15 11 9 8 3 0 0 0 0 0 0 0 0 0 0 7 97 85 55 60 50 40 27 30 6 0 0 0 0 0 0 0
146 196 103 126 153 167 235 200 200 155 97 76 57 61 53 36 17 4 0 0 0 0 0 0 0 4 5 0 84 81 40 30 34 67 55 27 15 0 0 0 0 0 0
81 119 167 144 150 165 208 266 251 210 219 122 199 250 226 63 34 33 29 31 5 2 3 7 2 10 9 1 0 120 47 2 0 0 38 79 63 0 0 0 0 0 0
33 79 166 162 202 215 220 237 244 278 282 211 189 258 213 204 214 68 1 0 4 9 17 7 9 5 15 2 0 2 3 0 0 0 0 65 87 34 0 0 0 0 0
62 69 200 246 273 330 291 293 286 267 322 303 195 181 278 248 163 127 2 2 2 4 8 20 10 0 4 0 0 0 1 1 0 0 0 0 3 75 51 34 31 31 1
129 139 249 273 311 409 316 490 321 372 373 479 248 215 152 195 187 211 164 92 8 0 8 8 11 0 0 0 0 8 1 0 0 0 0 0 0 0 25 60 69 74 79
93 93 123 249 277 254 301 316 356 503 333 430 409 430 279 234 184 164 52 158 67 0 0 14 3 0 0 0 0 3 3 0 1 7 6 2 0 0 0 1 19 57 86
24 35 124 203 180 166 195 218 323 306 360 365 396 439 331 220 39 22 6 78 69 17 19 3 4 3 0 0 0 7 11 7 7 5 6 1 0 0 0 0 0 2 33
42 27 107 149 137 194 202 239 370 239 332 411 436 429 327 110 22 21 16 0 1 23 18 11 0 1 0 0 0 0 2 4 7 2 2 0 0 0 0 0 0 0 0
32 79 130 83 106 129 142 160 261 215 287 499 568 472 202 22 1 25 26 29 31 19 6 0 0 2 1 0 0 4 0 0 0 0 1 0 0 0 0 0 0 0 0
40 73 88 64 96 76 68 101 196 158 218 541 540 300 224 242 106 33 36 37 41 40 29 2 0 0 1 0 6 3 0 0 0 3 0 0 0 0 0 0 0 0 0
10 11 9 19 29 27 64 122 95 82 139 195 99 31 33 48 28 30 19 36 73 58 119 19 19 5 0 1 7 3 0 0 0 0 0 0 0 0 0 0 0 0 0
17 10 4 0 1 22 69 119 171 23 44 8 26 23 11 31 14 14 17 2 48 66 76 8 20 7 0 11 2 0 0 0 0 0 0 0 0 0 0 0 0 0 0
35 33 17 42 34 23 23 44 26 0 0 1 2 4 4 42 28 36 0 14 62 67 49 28 13 0 0 7 3 1 0 3 1 0 0 0 0 0 0 0 0 0 0
0 5 22 8 37 16 8 39 12 1 7 11 7 11 23 48 31 49 53 37 60 43 49 47 14 3 6 0 5 1 0 0 0 0 0 0 0 0 0 0 0 0 0
2 2 3 5 27 13 17 44 4 13 16 11 5 0 44 16 30 60 44 40 50 54 37 0 6 0 2 0 0 0 0 0 0 0 0 0 0 0 0 0 0 0 0
83 77 4 3 13 0 0 0 26 30 37 33 11 19 54 96 82 72 64 12 56 9 42 2 5 9 3 2 0 0 0 0 0 0 0 0 0 0 0 0 0 0 0
26 38 71 80 21 3 3 31 27 44 59 63 116 102 202 58 95 56 4 43 35 30 33 17 4 1 0 0 3 0 2 0 0 0 0 0 0 0 0 0 0 0 0
51 60 36 60 108 111 99 82 66 88 108 83 84 87 96 152 15 146 17 21 16 26 16 4 0 1 2 4 3 1 0 0 0 0 0 0 0 0 0 0 0 0 0
148 119 120 184 186 133 172 136 145 141 107 123 119 169 193 89 159 146 3 1 0 0 1 1 1 2 2 0 0 0 0 0 0 0 0 0 0 0 0 0 0 0 0
187 216 183 181 232 185 148 147 117 139 122 97 145 169 80 120 67 94 26 0 8 16 0 0 2 1 0 0 0 0 0 0 0 0 0 0 0 0 0 0 0 0 10

GFSMA_con_mucape_069.txt.gz
CAPE
150 310 247 90 21 73 0 0 21 6 1 0 0 0 5 21 10 3 4 15 24 24 10 10 16 11 8 5 0 0 0 0 0 0 0 0 0 0 0 0 0 0 0
179 259 236 279 167 164 88 39 44 5 0 0 0 0 2 4 18 15 2 5 18 31 31 15 11 13 13 0 0 0 0 0 0 0 0 0 0 0 0 0 0 0 0
236 208 328 285 272 191 287 176 67 3 0 0 0 0 0 0 1 25 1 1 4 8 32 58 29 11 15 1 0 0 0 0 0 0 0 0 0 0 0 0 0 0 0
304 325 262 193 244 283 251 151 55 10 0 0 0 0 0 0 0 0 4 35 2 3 0 41 71 62 33 17 0 0 0 0 0 0 0 0 0 0 0 0 0 0 0
241 282 237 260 391 274 264 189 116 61 29 13 0 0 0 0 0 0 0 0 13 4 8 0 8 39 50 52 14 18 4 0 0 0 0 0 0 0 0 0 0 0 0
201 187 207 302 253 163 125 189 200 122 100 56 1 0 0 0 0 0 0 0 0 0 0 5 0 0 6 71 68 31 37 38 0 0 0 0 0 0 0 0 0 0 0
171 208 166 248 268 259 214 308 280 342 186 145 19 0 0 0 0 0 0 0 0 0 0 0 0 0 0 13 90 51 74 74 84 69 49 39 0 0 0 0 0 0 0
152 143 144 167 208 273 386 389 341 302 246 274 123 184 134 31 29 26 11 3 0 0 0 0 0 0 0 0 12 77 74 57 59 55 77 90 91 74 41 0 0 0 0
120 121 182 218 215 316 410 443 478 436 251 349 276 367 189 173 259 153 65 1 0 0 0 0 3 4 6 5 0 0 9 26 82 71 60 61 110 79 64 25 0 0 0
92 117 173 181 275 338 401 439 437 464 238 218 261 235 376 358 249 104 157 85 53 0 0 0 0 2 10 4 0 0 0 1 0 0 0 0 0 6 54 56 0 0 45
125 78 122 154 144 353 389 498 374 372 351 178 157 446 341 218 298 191 121 88 9 6 0 21 0 5 7 1 0 0 0 0 0 2 0 0 0 0 0 0 0 55 63
155 144 96 102 160 237 366 292 198 191 224 377 224 363 311 178 168 263 274 384 323 69 5 7 4 0 0 0 0 0 0 0 0 4 6 1 7 3 4 0 0 0 42
61 140 81 39 27 64 125 224 117 188 239 364 375 302 242 359 364 406 315 338 126 1 3 1 2 4 1 0 0 0 0 0 0 8 10 1 2 6 7 0 0 0 0
8 61 66 38 102 97 162 167 244 132 286 199 347 312 441 398 449 520 396 43 2 7 22 0 0 2 4 0 0 0 0 0 0 0 0 0 0 0 0 0 0 0 0
0 3 26 87 129 150 157 153 162 201 111 142 450 448 450 524 712 484 145 15 2 11 15 1 0 0 6 2 0 0 0 0 0 0 0 0 0 0 0 0 0 0 0
15 20 30 51 45 28 63 89 86 201 208 272 371 459 483 518 515 359 68 72 46 13 19 34 20 29 10 17 1 0 0 0 1 4 0 0 0 0 0 0 0 0 0
40 35 16 45 45 54 80 113 107 132 186 219 280 353 377 391 318 140 100 62 21 13 8 9 11 21 1 9 4 1 0 0 4 0 0 0 0 0 0 0 0 0 0
158 52 118 88 86 69 103 103 128 95 138 202 259 294 230 80 120 76 32 26 18 4 0 0 0 12 19 27 8 10 1 6 0 1 0 0 0 0 0 0 0 0 0
190 121 87 69 79 102 129 155 151 137 153 141 174 264 161 33 9 3 4 46 0 33 0 0 1 5 1 3 4 5 0 1 5 0 0 0 0 0 0 0 0 0 0
218 163 89 63 85 66 82 93 91 114 131 114 111 148 31 3 1 17 12 6 1 19 6 33 23 0 15 5 1 3 3 3 1 3 0 0 0 0 0 0 0 0 0
192 178 176 166 155 122 46 78 99 87 43 27 67 17 0 0 0 11 42 21 58 57 6 32 75 39 18 34 24 3 2 1 0 0 0 0 0 0 0 0 0 0 0
201 199 166 188 193 60 0 0 0 223 34 79 53 0 5 6 4 20 37 55 27 47 12 71 62 6 21 2 0 0 9 10 4 0 0 0 0 0 0 0 0 0 0
277 237 205 181 179 208 57 65 18 1 54 9 6 16 42 31 67 73 77 78 45 26 28 14 10 54 2 4 11 1 0 1 3 0 0 0 0 0 0 0 0 0 0
275 269 299 252 236 175 41 59 94 105 62 31 28 38 49 58 163 104 97 81 10 89 23 27 11 4 0 0 0 3 2 0 0 0 0 0 0 0 0 0 0 0 0
323 287 249 211 151 198 57 83 120 96 167 148 103 141 167 205 129 137 89 117 53 2 3 2 1 0 0 0 0 0 0 0 0 0 0 0 0 0 0 0 0 0 0
310 215 71 83 89 107 154 156 169 172 226 211 187 277 290 198 195 193 176 140 76 84 65 2 0 0 0 0 0 0 0 0 0 0 0 0 0 0 0 0 0 0 0

GFSMA_con_mucape_072.txt.gz
CAPE
64 60 0 0 0 0 0 0 0 0 0 0 0 0 29 7 0 0 0 15 27 17 15 13 9 6 2 0 0 0 0 0 0 0 0 0 0 0 0 0 0 0 0
17 32 26 0 5 0 4 0 0 0 0 0 0 0 20 8 0 0 0 2 13 22 14 13 10 9 5 0 0 0 0 0 0 0 0 0 0 0 0 0 0 0 0
1 22 113 29 48 19 21 0 0 0 0 0 0 0 5 20 5 0 0 0 0 7 15 21 14 5 10 1 0 0 0 0 0 0 0 0 0 0 0 0 0 0 0
1 12 117 151 105 79 119 56 3 5 0 0 0 0 0 0 7 0 0 0 0 0 2 34 33 25 15 8 0 0 0 0 0 0 0 0 0 0 0 0 0 0 0
8 51 116 164 204 146 174 33 23 1 3 2 0 0 0 0 0 0 0 0 0 0 0 1 19 22 25 22 14 0 0 0 0 0 0 0 0 0 0 0 0 0 0
15 90 78 92 78 32 153 75 51 60 8 1 0 0 0 0 0 0 0 0 0 0 0 0 0 0 1 21 35 24 37 24 0 0 0 0 0 0 0 0 0 0 0
76 128 132 195 161 130 121 195 178 167 131 100 11 0 0 0 0 0 0 0 0 0 0 0 0 0 0 2 22 19 40 33 52 57 24 0 0 20 0 0 0 0 0
67 78 88 132 164 163 157 173 157 143 118 91 32 14 7 1 0 0 0 0 0 0 0 0 0 0 0 0 0 8 13 35 50 73 87 93 91 72 34 0 0 0 0
33 58 71 102 143 156 169 182 160 144 125 123 117 59 49 33 24 12 1 0 0 0 0 0 0 0 0 0 0 0 0 0 68 142 118 99 112 92 87 61 51 36 9
56 72 83 96 92 126 218 197 201 174 153 73 136 119 171 201 57 54 43 18 2 0 0 0 0 0 0 0 0 0 0 13 0 46 103 71 41 79 100 83 78 76 50
25 56 81 135 127 130 191 188 175 152 115 62 79 43 77 98 123 46 53 6 11 0 0 0 0 0 1 0 0 2 3 0 0 0 21 18 0 1 0 0 16 35 68
43 23 47 112 128 179 183 107 106 79 94 33 36 88 70 44 76 65 82 74 35 2 4 0 0 0 0 8 0 0 0 0 0 0 0 0 0 6 1 3 5 9 7
3 31 18 59 45 70 174 171 107 61 57 24 5 21 41 96 93 54 43 16 43 58 40 12 1 2 1 10 2 2 0 0 0 0 0 0 0 1 2 0 2 2 0
5 4 8 13 24 34 32 25 30 54 48 33 21 27 15 44 70 52 34 60 38 16 15 0 0 0 0 0 1 5 0 0 0 0 0 0 0 0 0 0 0 0 0
10 9 3 24 2 0 3 2 14 21 28 27 35 43 45 57 82 103 114 82 47 8 0 0 0 0 0 2 1 2 20 3 0 0 0 0 0 0 0 0 0 0 0
1 0 13 28 11 11 8 7 9 11 20 29 28 36 27 37 79 105 108 139 96 20 13 0 0 0 0 2 0 3 13 10 3 1 0 0 0 2 1 0 0 0 0
0 0 0 0 5 8 2 14 15 16 20 18 29 26 59 98 88 116 113 116 103 28 22 24 11 20 18 5 5 1 3 17 21 12 10 0 0 3 0 0 0 0 0
0 0 0 0 0 0 5 4 8 7 8 2 2 32 28 38 70 116 130 127 105 66 62 73 1 1 14 4 0 0 12 0 11 14 8 1 0 4 1 0 0 0 0
0 0 0 0 0 0 0 0 0 0 0 0 0 5 9 22 41 59 109 101 56 63 42 21 6 0 0 6 0 0 3 3 12 11 7 1 12 7 1 0 0 0 0
4 0 0 0 0 0 0 0 0 0 0 0 0 11 17 20 17 42 54 52 42 19 0 9 8 5 20 7 8 3 8 1 6 6 1 2 6 5 4 0 0 0 0
22 0 1 0 0 0 0 0 0 0 1 3 6 6 3 1 8 18 24 23 7 18 2 3 10 8 12 0 2 1 30 11 0 0 0 0 4 0 0 0 0 0 0
62 48 30 14 11 0 0 0 0 0 0 0 0 0 1 3 3 25 38 15 0 0 0 46 1 16 0 18 12 19 1 17 10 0 0 0 0 0 0 0 0 0 0
100 94 80 73 53 34 30 21 16 0 11 10 6 9 11 4 3 8 38 40 35 15 16 31 0 13 7 0 4 0 2 12 0 0 0 0 0 0 0 0 0 0 0
117 92 96 88 85 80 90 107 87 47 22 12 26 32 41 31 42 42 16 19 57 68 32 27 55 34 34 0 0 1 0 0 0 0 0 0 0 0 0 0 0 0 0
148 139 119 118 101 103 101 117 112 97 75 37 43 54 72 12 41 102 170 95 97 111 48 110 11 2 20 15 2 0 0 0 0 0 0 0 0 0 0 0 0 0 0
147 146 144 191 169 137 115 122 110 75 102 26 7 29 136 92 112 99 128 99 135 144 119 110 59 2 2 0 0 0 0 0 0 0 0 0 0 0 0 0 0 0 0

GFSMA_con_mucape_075.txt.gz
CAPE
20 0 0 0 0 0 0 0 0 0 0 0 0 0 0 0 0 0 0 10 19 21 13 11 8 5 4 4 2 0 0 0 0 0 0 0 0 0 0 0 0 0 0
37 0 6 0 0 0 0 0 0 0 0 0 0 0 0 0 0 0 0 0 11 12 21 10 7 5 5 0 0 0 0 0 0 0 0 0 0 0 0 0 0 0 0
13 0 0 0 0 0 0 0 0 0 0 0 0 0 2 0 0 0 0 0 0 3 14 17 12 7 8 0 0 0 0 0 0 0 0 0 0 0 0 0 0 0 0
1 1 6 0 0 0 0 0 4 0 0 0 0 0 0 0 0 0 0 0 0 0 0 4 10 11 11 9 0 0 0 0 0 0 0 0 0 0 0 0 0 0 0
2 2 2 3 22 7 32 22 27 0 0 0 0 0 0 0 0 0 0 0 0 0 0 0 2 10 23 23 1 5 0 0 0 0 0 0 0 0 0 0 0 0 0
2 0 17 37 66 37 104 52 33 0 0 0 0 0 0 0 0 0 0 0 0 0 0 0 0 0 1 27 34 16 21 0 0 0 0 0 0 0 0 0 0 0 0
6 4 5 58 72 89 77 66 36 0 0 0 0 0 0 0 0 0 0 0 0 0 0 0 0 0 0 0 26 23 28 28 32 0 0 0 0 0 0 0 0 0 0
4 8 8 17 49 56 67 46 46 56 14 2 0 0 0 0 0 0 0 0 0 0 0 0 0 0 0 0 0 13 22 52 68 77 92 45 20 23 19 15 0 0 0
9 9 6 1 18 30 38 41 64 54 50 21 0 3 0 0 0 0 0 0 0 0 0 0 0 0 0 0 0 0 0 0 50 137 126 110 86 70 62 72 42 10 19
11 14 15 43 29 0 0 71 72 63 46 15 26 49 53 37 43 31 4 0 0 0 0 0 0 0 0 0 0 0 0 0 0 19 130 149 134 125 116 97 110 101 98
13 18 10 8 47 69 85 123 120 104 74 69 46 18 42 57 49 7 0 0 15 2 0 0 0 0 0 0 0 0 0 0 0 0 11 99 124 111 116 115 140 145 132
12 6 12 22 30 71 103 109 157 131 131 65 47 53 32 28 26 30 13 2 14 16 7 0 0 0 0 0 0 0 7 11 0 0 0 0 43 68 46 49 33 23 28
9 3 0 25 35 39 77 114 142 149 117 60 30 36 43 31 39 46 29 13 42 42 31 8 0 0 0 0 0 0 1 2 5 7 0 0 0 2 1 7 1 0 0
18 20 14 41 59 63 76 108 107 93 63 44 50 31 10 28 26 21 35 33 35 28 35 26 3 0 0 0 0 0 1 0 0 13 19 8 0 0 0 0 0 0 0
14 10 13 13 43 62 56 74 80 82 67 56 43 34 26 16 15 12 15 37 28 0 0 0 13 0 0 0 0 26 33 11 3 5 29 19 0 0 0 0 0 0 0
9 18 31 7 22 16 37 59 65 59 64 46 32 22 19 6 2 21 19 34 44 17 0 0 0 0 0 0 5 10 6 9 5 7 35 27 15 2 1 0 0 3 3
0 1 13 14 7 7 17 19 11 20 24 14 9 5 6 6 1 11 15 19 19 29 21 0 0 2 0 0 26 10 13 27 13 9 18 11 4 9 3 2 0 1 11
0 0 0 0 0 0 0 2 2 5 9 5 2 9 2 2 5 2 7 10 15 5 3 3 7 0 0 0 25 13 25 39 27 17 26 5 2 25 2 15 4 1 3
0 0 0 0 0 0 0 0 0 0 0 0 0 0 0 2 0 0 0 3 14 36 36 39 13 17 14 1 2 2 1 0 5 2 0 2 3 3 2 1 0 0 1
0 0 0 0 0 0 0 0 0 0 0 0 0 0 0 0 0 0 0 0 27 56 68 53 18 5 0 0 0 0 0 2 0 16 2 14 15 2 8 4 0 0 0
0 0 0 0 0 0 0 0 0 0 0 0 0 0 0 0 0 1 0 0 12 51 72 72 26 3 12 1 1 2 0 17 0 0 3 7 0 1 3 2 1 0 0
16 3 6 1 0 0 0 0 0 0 0 0 0 0 0 0 0 0 0 11 24 38 47 59 23 10 15 5 3 5 6 0 16 2 0 0 0 0 0 0 0 0 0
18 14 19 23 17 24 35 32 34 6 4 6 8 4 1 0 0 3 17 33 44 54 58 66 67 44 21 14 24 1 0 1 0 11 0 6 0 0 0 0 0 0 0
101 103 102 84 54 49 30 41 61 51 48 35 34 20 9 5 14 21 58 38 85 46 44 51 57 47 25 28 45 12 0 4 6 0 2 0 0 0 0 0 0 0 0
126 128 139 135 121 144 117 137 138 135 155 92 94 62 78 147 167 71 50 23 63 49 36 26 40 35 34 20 22 1 18 8 4 9 0 0 0 0 0 0 0 0 0
127 118 105 117 136 141 142 159 164 146 205 215 145 118 77 82 50 76 18 14 21 23 27 30 17 39 42 1 0 4 2 12 0 0 0 0 0 0 0 0 0 0 0

GFSMA_con_mucape_078.txt.gz
CAPE
18 25 0 0 0 0 0 0 0 0 0 0 0 0 0 0 0 0 0 10 13 13 12 13 9 10 10 6 5 5 2 2 0 0 0 0 0 0 0 0 0 0 0
1 0 0 0 0 0 0 0 0 0 0 0 0 0 0 0 0 0 0 0 5 13 14 8 5 6 5 6 0 0 0 0 0 0 0 0 0 0 0 0 0 0 0
0 0 0 0 0 0 0 0 0 0 0 0 0 0 0 0 0 0 0 0 0 1 11 14 9 5 4 4 0 0 0 0 0 0 0 0 0 0 0 0 0 0 0
0 0 0 3 0 0 0 0 0 0 0 0 0 0 0 0 0 0 0 0 0 0 0 9 13 11 6 3 0 0 0 0 0 0 0 0 0 0 0 0 0 0 0
0 0 6 1 0 0 0 0 0 0 0 0 0 0 0 0 0 0 0 0 0 0 0 0 1 3 10 8 0 0 0 0 0 0 0 0 0 0 0 0 0 0 0
3 0 2 1 0 0 0 0 0 0 0 0 0 0 0 0 0 0 0 0 0 0 0 0 0 0 0 11 16 12 9 0 0 0 0 0 0 0 0 0 0 0 0
5 6 4 2 12 0 0 5 0 0 0 0 0 0 0 0 0 0 0 0 0 0 0 0 0 0 0 0 27 22 37 44 36 0 0 0 0 0 0 0 0 0 0
2 3 11 4 6 0 6 14 3 11 0 0 0 0 0 0 13 12 2 1 0 0 0 0 0 0 0 0 0 30 43 64 104 67 57 27 14 2 3 3 0 1 0
6 1 0 9 19 14 13 15 12 21 2 0 7 0 0 0 0 0 0 2 0 0 0 0 0 0 0 0 0 0 0 0 96 274 227 139 81 60 44 46 34 26 13
10 8 1 20 11 58 30 34 33 39 10 9 14 2 1 0 0 0 0 0 0 0 0 0 0 0 0 0 0 0 0 0 2 31 174 274 170 142 112 94 76 83 80
11 11 5 13 31 49 64 47 50 41 39 4 0 34 44 29 47 31 7 0 0 0 0 0 0 0 0 0 0 0 0 0 0 1 27 101 182 208 185 152 131 115 108
5 4 17 8 15 7 9 21 25 34 66 59 34 30 51 61 40 34 19 8 0 0 0 1 0 0 0 0 0 0 0 0 0 0 0 7 59 110 173 184 173 186 178
4 19 9 13 46 46 18 1 26 65 68 66 60 44 47 48 42 32 29 4 16 24 8 0 0 0 1 0 0 0 0 0 0 0 0 0 1 10 41 94 107 136 150
17 32 25 19 9 24 10 30 52 91 111 107 95 62 54 33 31 21 30 32 33 30 13 1 3 3 0 0 0 2 2 1 0 4 1 5 2 0 7 14 25 9 37
9 16 24 14 28 34 32 63 77 86 100 112 103 68 55 33 12 11 13 33 20 6 23 1 0 1 0 0 0 1 2 2 10 14 8 24 29 6 8 22 22 10 2
2 12 21 23 13 13 18 48 78 82 66 64 76 74 41 17 7 5 42 18 23 6 10 0 0 0 0 0 0 1 4 3 0 15 14 9 10 7 13 20 21 15 11
0 0 1 10 7 12 20 45 43 42 49 41 45 40 27 13 17 11 16 1 3 16 18 0 0 0 0 0 0 0 0 1 0 6 7 9 20 14 12 19 16 10 2
0 0 0 1 5 3 3 4 6 19 25 35 40 34 9 11 6 4 5 7 13 0 2 0 0 0 0 0 0 0 0 0 1 5 1 14 9 13 18 28 4 8 1
0 0 0 0 0 0 1 0 0 4 6 1 9 1 0 4 0 3 6 6 2 2 5 0 0 0 0 0 0 0 3 2 0 3 3 0 11 9 17 8 7 1 0
13 0 0 0 0 0 0 0 0 0 0 0 0 0 0 0 0 0 0 0 0 1 0 1 3 0 3 4 3 3 0 6 3 1 4 1 5 2 9 13 7 6 3
8 44 21 0 0 0 0 0 0 0 0 0 0 0 0 0 0 0 0 0 0 0 0 0 0 0 3 20 28 18 6 6 2 7 0 0 5 4 1 5 1 1 1
7 0 15 6 0 0 0 0 0 0 0 0 0 0 0 0 0 0 0 0 0 0 0 0 0 16 17 21 12 7 14 28 27 11 3 0 0 0 0 1 1 1 1
54 16 5 9 19 28 11 1 0 1 2 4 1 0 0 0 0 0 0 0 0 0 9 18 21 20 22 37 20 35 41 30 25 3 28 14 0 0 0 0 2 0 0
79 83 94 87 52 46 35 38 24 12 20 25 23 25 30 16 15 19 26 32 42 38 45 67 73 45 41 36 52 64 51 59 15 4 6 1 1 4 5 0 0 0 0
88 110 104 89 82 131 88 99 96 86 86 139 158 173 62 63 67 80 133 46 57 31 9 24 30 22 31 37 61 43 40 34 15 6 0 0 0 0 1 0 0 0 0
130 126 99 119 109 136 135 146 152 192 111 128 112 101 91 74 74 80 86 77 55 50 26 20 23 53 27 13 22 26 25 15 1 0 0 0 4 0 0 0 0 0 0

GFSMA_con_mucape_081.txt.gz
CAPE
88 134 96 80 12 38 0 0 0 0 1 0 0 0 0 0 0 0 0 11 15 22 17 13 13 11 11 11 10 7 7 7 9 6 5 2 0 0 0 0 0 0 0
139 95 50 14 4 14 3 0 0 0 0 0 0 0 0 0 0 0 0 0 7 17 22 11 11 11 11 11 7 6 4 2 1 0 0 0 0 0 0 0 0 0 0
90 41 50 0 1 4 11 0 0 0 0 0 0 0 0 0 0 0 0 0 2 5 13 17 12 10 11 8 0 0 0 0 0 0 0 0 0 0 0 0 0 0 0
60 65 23 4 0 0 0 0 0 0 0 0 1 0 0 0 0 0 0 0 0 0 4 14 14 17 11 8 6 1 0 0 0 0 0 0 0 0 0 0 0 0 0
48 64 8 0 0 0 0 0 0 0 0 0 2 0 0 0 0 0 0 0 0 0 0 4 7 9 14 10 5 0 0 0 0 0 0 0 0 0 0 0 0 0 0
76 75 2 0 0 0 0 0 0 0 0 0 0 2 0 0 0 0 0 0 0 0 0 0 0 0 1 9 7 0 8 0 0 0 0 0 0 0 0 0 0 0 0
62 0 0 8 1 0 0 0 2 0 0 0 3 10 4 0 0 0 0 0 0 0 0 0 0 0 0 0 17 10 13 19 26 0 0 0 0 0 0 0 0 0 0
7 4 0 9 7 0 0 0 0 1 2 0 5 24 6 6 3 0 0 0 1 0 0 0 0 0 0 0 0 30 47 69 119 80 80 20 6 5 2 0 0 0 0
12 5 0 4 7 2 1 0 0 0 0 0 2 18 3 1 14 19 11 2 14 13 3 2 0 0 0 0 0 0 0 2 106 302 242 132 76 60 41 45 39 16 1
8 7 8 10 16 14 0 4 12 3 5 5 3 10 1 0 5 0 0 0 24 13 6 0 0 0 0 0 0 0 0 0 0 14 137 284 223 142 102 111 103 99 87
45 9 8 2 2 8 19 37 46 46 45 18 3 0 0 2 6 0 0 0 5 0 0 0 0 0 0 0 0 0 0 0 0 0 0 51 138 261 211 145 152 152 146
11 6 12 6 2 22 11 45 66 61 48 35 43 1 9 21 25 17 13 19 33 20 4 0 0 6 3 0 0 0 0 0 0 0 0 0 29 74 117 157 207 228 192
16 25 11 9 5 4 70 64 60 73 78 43 30 15 14 30 29 30 22 44 36 32 12 0 0 1 0 0 0 0 0 0 0 0 0 0 0 0 10 59 115 177 250
5 8 18 23 15 4 22 68 52 50 54 36 46 32 45 49 39 46 40 39 23 2 5 0 2 8 10 11 11 9 5 0 0 0 0 1 2 0 2 8 22 45 102
1 29 24 27 7 0 20 46 34 0 8 0 2 47 50 50 43 46 28 25 31 2 0 0 0 0 0 0 5 2 4 0 0 0 0 0 0 0 0 3 6 21 15
0 15 18 28 26 17 25 29 21 24 7 13 21 51 54 55 60 61 54 27 9 37 10 0 0 0 2 2 2 3 5 2 0 0 0 0 0 11 13 29 10 12 10
0 0 7 21 22 22 13 41 33 15 23 29 45 51 56 67 65 63 27 6 0 0 1 2 4 3 9 1 2 3 4 0 0 0 0 0 10 15 20 42 19 6 19
0 0 0 4 20 20 10 11 24 26 36 37 37 34 28 46 65 55 33 0 0 11 5 0 10 18 9 7 3 3 0 0 0 0 0 9 18 7 12 12 5 4 16
0 0 0 0 0 0 0 0 6 6 9 11 23 25 28 39 33 32 17 11 22 17 14 24 15 14 11 3 0 0 0 0 0 0 0 16 16 13 11 3 6 5 8
5 0 0 0 0 0 0 0 0 0 1 3 14 22 24 27 17 14 21 17 10 14 13 11 7 1 1 0 0 0 0 0 0 1 0 0 8 4 0 6 5 5 1
2 16 4 3 0 0 0 0 0 0 0 0 0 0 0 0 0 0 0 0 0 0 0 0 0 0 0 0 0 0 0 0 0 0 0 0 0 1 9 4 22 11 5
0 0 1 4 4 9 2 0 2 4 2 0 0 0 0 2 0 1 1 0 1 4 0 0 0 0 0 0 0 3 7 11 0 0 0 0 0 0 0 4 0 1 0
72 74 78 59 36 22 7 1 1 1 0 0 0 0 0 0 1 0 0 0 1 1 3 6 4 2 1 3 10 15 27 15 4 6 14 13 3 1 1 6 3 0 0
85 84 85 95 104 95 93 78 75 75 60 38 15 5 3 5 15 27 20 11 11 30 25 49 35 11 21 21 60 18 26 36 31 28 15 12 0 0 2 0 1 0 0
84 92 74 70 80 111 125 129 110 116 123 130 248 158 110 58 78 77 63 67 176 75 61 67 60 40 39 27 49 52 63 67 58 30 12 0 2 8 0 0 0 0 0
63 71 73 45 83 104 205 124 143 161 176 170 219 201 85 125 131 147 127 117 120 114 94 73 143 198 68 63 52 28 57 47 71 2 0 0 0 0 0 0 0 0 0

GFSMA_con_mucape_084.txt.gz
CAPE
34 27 126 58 59 67 68 11 0 0 0 0 0 0 0 0 0 0 1 15 24 39 22 21 13 20 15 14 10 10 11 11 10 6 6 3 2 1 0 0 0 0 0
72 70 108 69 23 41 25 9 11 1 5 0 0 0 0 0 0 0 0 5 16 33 18 14 11 19 16 13 11 9 10 9 7 6 1 0 0 0 0 0 0 0 0
62 79 82 59 52 46 6 0 3 0 0 0 0 0 0 0 0 0 0 0 5 14 24 28 27 16 13 14 10 9 9 0 0 0 0 0 0 0 0 0 0 0 0
52 74 71 104 66 0 1 0 0 0 0 0 0 0 0 0 0 0 0 0 0 3 10 19 25 29 14 10 12 7 0 0 0 0 0 0 0 0 0 0 0 0 0
72 68 51 66 58 31 2 0 0 0 0 0 0 0 0 0 0 0 0 0 0 0 0 9 12 13 20 17 10 10 0 0 0 0 0 0 0 0 0 0 0 0 0
76 69 34 40 67 5 32 2 0 0 1 10 0 0 0 0 0 0 0 0 0 0 0 0 2 4 5 13 10 11 10 14 0 0 0 0 0 0 0 0 0 0 0
34 37 28 33 71 1 10 0 0 7 4 5 0 2 0 0 0 0 0 0 0 0 0 0 0 0 0 2 11 8 10 13 0 0 0 0 0 0 0 0 0 0 0
34 41 28 55 23 0 7 0 0 0 1 26 7 0 0 0 0 1 0 0 0 0 0 0 0 0 0 0 0 18 21 51 69 47 33 10 1 0 0 0 0 1 3
22 69 55 88 0 0 0 0 0 0 0 11 13 1 0 2 3 8 3 0 5 2 3 1 7 1 0 0 0 0 4 2 95 302 276 164 35 5 6 2 4 17 17
51 76 71 14 10 0 0 0 0 0 8 10 19 15 16 7 16 18 12 5 18 15 9 5 32 29 14 6 1 0 3 0 0 9 174 314 274 178 98 58 58 50 49
59 56 15 0 0 0 0 3 0 29 15 13 11 18 18 14 0 0 0 28 29 20 20 17 41 28 17 18 8 1 3 0 0 0 0 43 141 263 279 204 140 125 127
57 25 6 6 12 10 8 4 34 47 42 27 6 13 14 20 14 10 3 0 11 13 3 40 42 31 37 46 49 36 17 6 0 0 0 0 25 77 115 148 255 255 209
28 14 7 17 12 21 5 0 0 64 58 29 30 21 22 17 21 18 24 33 45 31 35 49 49 49 41 18 28 27 17 27 11 3 0 3 5 9 25 63 102 127 158
35 30 31 23 15 22 17 0 82 75 92 84 84 71 38 34 14 17 43 70 56 43 31 17 17 22 30 28 18 21 27 20 9 5 2 2 1 4 4 8 4 12 43
17 26 16 1 4 16 19 7 0 0 50 43 82 62 60 36 36 44 56 57 38 0 0 8 6 12 18 27 10 1 7 12 18 6 4 4 2 1 2 7 0 4 0
9 9 10 12 27 23 4 5 14 20 5 49 42 43 36 34 1 42 47 43 52 0 7 8 5 3 7 10 12 7 7 20 21 10 13 8 3 0 0 1 1 0 7
0 0 4 7 19 35 6 5 3 31 46 45 29 21 15 2 0 15 14 6 35 40 21 6 1 0 0 19 2 5 7 9 3 5 1 0 0 0 0 0 0 1 5
0 0 0 4 27 15 17 21 15 5 30 24 7 10 5 1 0 23 40 44 36 28 36 0 0 0 0 1 6 4 3 5 4 0 0 0 0 0 0 0 1 3 0
0 0 0 0 4 10 13 16 25 21 26 38 38 33 43 41 45 48 40 33 31 39 38 10 10 7 7 7 1 1 0 0 1 0 0 0 0 0 0 0 0 3 4
0 0 0 0 0 0 1 1 5 0 2 7 10 13 12 14 15 14 8 12 27 32 26 33 21 22 20 12 12 2 0 0 0 0 0 0 0 0 0 0 0 0 0
1 1 0 0 0 0 0 0 0 0 0 0 0 0 7 5 1 7 21 15 18 14 6 6 2 2 6 3 0 0 0 0 0 0 0 0 0 0 0 0 0 6 15
0 0 0 0 3 0 2 0 0 1 1 2 0 0 0 1 1 10 8 10 24 60 11 15 12 11 10 0 0 0 0 0 0 0 0 0 0 0 0 0 9 16 34
49 37 37 33 56 41 32 10 7 2 1 1 0 0 0 0 2 0 1 7 9 11 22 36 18 19 10 10 9 5 6 9 3 2 2 5 10 16 6 9 3 0 7
92 83 68 110 130 89 72 68 61 80 136 90 53 38 44 24 23 18 21 10 9 33 27 15 59 28 15 8 11 12 36 13 15 10 4 6 6 4 5 10 6 4 5
86 66 53 35 37 28 27 32 51 82 94 130 129 111 48 70 45 71 152 96 96 65 27 62 57 76 21 14 53 59 57 31 25 13 14 20 0 0 0 0 0 0 0
38 91 94 48 42 16 14 9 6 27 65 92 100 49 47 24 37 4 13 67 56 64 68 11 16 53 7 6 0 3 0 58 18 0 0 2 17 0 0 0 0 0 0

GFSMA_con_mucape_087.txt.gz
CAPE
34 86 228 233 78 51 60 170 85 15 11 0 0 0 0 0 0 5 9 21 30 35 21 36 33 33 25 16 15 12 12 11 9 10 9 6 5 3 4 3 3 0 0
47 161 391 118 112 26 35 70 85 23 17 0 0 0 0 0 0 13 13 18 15 31 36 33 32 28 20 15 6 12 12 12 8 7 4 4 3 0 0 0 0 0 0
137 200 153 169 36 32 16 109 101 67 0 0 0 0 0 0 2 15 16 29 18 21 28 48 32 14 13 11 4 13 10 8 8 6 0 0 0 0 0 0 0 0 0
160 124 108 60 30 36 57 105 63 0 0 2 0 0 0 0 15 19 17 26 28 18 8 20 28 31 24 7 11 13 8 7 0 0 0 0 0 0 0 0 0 0 0
96 114 42 22 23 42 62 87 49 25 4 1 0 0 0 0 10 11 9 19 22 22 14 12 17 21 20 24 15 16 13 0 0 0 0 0 0 0 0 0 0 0 0
137 99 48 41 27 42 40 89 43 7 0 1 0 1 4 5 8 12 8 8 21 25 21 18 16 10 11 25 16 14 18 16 0 0 0 0 0 0 0 0 0 0 0
93 83 56 44 20 41 47 34 0 0 5 0 3 0 0 0 7 8 9 5 6 13 10 11 11 8 6 8 16 11 15 12 10 0 0 0 0 0 0 0 0 0 0
90 69 50 38 19 46 57 34 0 1 1 1 0 1 1 1 10 6 7 4 10 9 8 3 2 2 1 3 3 17 20 26 52 38 26 12 4 3 0 0 0 0 0
42 57 37 22 24 40 8 10 3 0 0 1 0 25 36 39 5 8 10 6 2 4 4 3 0 5 13 19 4 5 5 8 121 299 274 120 27 15 10 0 6 2 0
36 18 56 15 19 20 49 27 5 14 28 22 14 13 23 40 80 51 0 1 2 1 2 0 2 10 11 6 9 7 24 17 26 59 221 332 307 221 100 57 39 29 23
54 13 21 43 24 37 45 0 26 15 43 46 20 33 32 18 43 57 68 17 20 21 29 25 29 10 6 28 37 43 31 23 12 28 16 81 175 306 337 274 164 116 74
26 68 69 52 40 67 1 0 30 17 6 38 68 111 57 46 36 88 67 82 113 65 60 58 35 25 20 36 40 40 51 53 49 36 1 2 26 79 125 196 306 353 278
14 57 50 56 45 7 0 0 3 14 0 36 70 81 87 112 109 84 111 88 93 60 21 16 21 24 20 51 64 79 70 65 42 33 27 13 3 3 29 76 119 174 203
27 38 53 40 1 0 1 0 0 16 30 82 75 76 91 78 84 83 87 140 123 129 73 115 17 1 28 19 23 35 26 33 25 19 29 19 27 21 12 6 4 21 56
32 54 21 20 11 18 13 6 14 1 0 41 77 90 90 64 112 91 108 150 134 131 76 72 40 26 8 18 14 0 1 2 3 9 26 20 11 6 1 7 8 4 1
7 34 12 29 25 26 9 6 3 2 2 2 0 63 61 69 67 68 104 103 109 119 74 50 8 4 18 2 8 6 5 0 2 4 5 13 18 12 18 10 9 4 1
14 45 33 20 17 0 4 1 2 0 6 6 8 1 39 44 40 45 40 59 76 57 51 2 14 10 0 4 0 2 4 10 4 1 3 4 9 14 7 2 2 2 0
0 0 2 4 16 4 18 33 2 0 5 4 0 6 0 0 11 26 35 25 0 0 0 45 131 181 104 58 90 71 13 4 21 0 0 1 6 11 9 3 1 0 0
0 0 0 0 0 0 10 5 7 7 2 2 14 5 36 35 26 34 81 55 20 11 57 101 127 111 118 117 61 47 22 69 43 0 0 0 0 0 0 0 0 0 0
0 0 0 0 0 3 1 2 15 21 16 28 12 22 21 29 33 49 45 31 29 31 18 6 8 8 50 70 108 96 72 75 32 3 0 0 0 0 0 0 0 0 0
0 0 0 0 0 0 2 2 0 1 9 4 2 2 15 8 0 22 42 54 88 64 42 68 65 58 19 14 18 29 8 5 36 8 4 5 14 5 1 0 0 0 0
4 3 3 0 0 0 0 0 0 4 6 1 3 11 9 0 0 0 6 11 17 19 25 36 9 7 7 26 22 20 5 1 0 0 1 1 0 0 0 0 0 0 0
5 3 6 6 11 5 4 2 3 1 2 6 9 18 20 16 10 3 5 9 14 19 39 19 22 13 10 8 19 4 5 1 4 3 2 1 0 0 1 1 1 10 13
61 27 21 50 11 11 11 8 13 22 24 31 23 12 15 15 15 22 20 27 38 26 31 74 55 40 28 28 33 32 18 9 0 0 0 4 1 0 0 0 0 0 0
62 138 62 46 82 119 50 41 50 54 55 45 27 102 25 57 9 36 45 59 35 18 10 5 0 4 5 3 8 16 14 29 0 0 0 0 0 0 0 0 0 0 0
15 10 69 48 117 83 61 43 42 42 56 22 37 22 31 38 28 27 41 16 1 4 18 16 3 1 0 0 0 0 0 0 0 0 0 0 1 3 1 0 0 0 0

GFSMA_con_mucape_090.txt.gz
CAPE
479 280 117 197 481 184 106 89 183 316 313 237 197 193 138 55 41 20 24 19 38 61 31 21 37 25 20 21 18 19 10 10 8 9 6 5 5 5 5 6 3 1 0
258 180 214 407 544 231 117 98 134 311 280 232 222 172 71 31 20 5 16 22 26 41 44 46 39 33 32 28 23 6 10 12 12 8 6 5 3 3 3 2 1 0 0
153 200 180 166 392 186 46 74 215 303 250 200 179 124 29 16 9 8 15 24 15 19 40 57 51 38 28 26 20 6 13 16 12 9 6 6 4 0 0 0 0 0 0
109 444 150 108 235 94 38 65 202 273 207 172 138 96 14 9 12 25 15 21 20 16 26 40 39 41 32 24 19 13 9 13 11 11 6 0 0 0 0 0 0 0 0
79 202 260 143 75 34 37 87 162 213 166 148 93 48 19 28 18 9 8 57 34 18 23 16 18 23 27 29 15 16 15 10 11 7 0 0 0 0 0 0 0 0 0
80 141 98 78 48 35 29 59 165 201 187 140 64 34 75 25 17 9 12 30 37 23 21 23 18 15 12 29 22 11 15 14 12 9 1 0 0 0 0 0 0 0 0
88 136 82 40 21 30 26 127 160 214 150 159 74 60 88 19 21 29 34 30 32 33 30 27 23 14 4 12 18 9 12 13 13 10 10 0 0 0 0 0 0 0 0
91 108 72 40 18 25 19 201 188 176 180 172 93 78 40 51 22 23 29 24 38 38 30 28 42 15 6 1 3 11 10 23 49 25 23 15 7 6 1 0 0 0 0
112 80 50 51 22 16 8 130 201 150 110 162 136 93 67 26 42 31 28 19 21 27 22 20 21 16 14 2 0 2 1 9 69 205 222 123 71 42 24 18 4 1 0
42 78 42 44 33 24 42 130 221 212 196 135 136 103 59 44 92 87 83 50 20 15 31 19 20 17 21 16 2 4 6 3 0 39 176 316 298 184 124 87 60 34 20
6 47 45 40 45 11 109 161 187 189 113 154 113 140 161 183 162 100 107 109 108 75 89 114 51 41 37 53 83 61 16 15 9 5 46 127 220 325 331 312 175 147 123
16 22 23 32 23 12 73 89 42 196 194 212 148 149 153 133 177 143 100 164 164 158 146 120 100 104 91 102 52 27 43 40 32 27 29 25 53 95 140 203 311 375 341
12 22 14 18 20 28 34 38 61 143 130 202 236 208 213 168 164 171 149 82 116 136 165 149 143 170 157 136 102 20 18 30 45 63 47 27 21 17 20 43 75 129 207
6 5 10 18 3 4 43 50 60 27 66 140 176 183 204 224 195 168 137 108 99 85 93 77 93 127 146 148 77 5 33 6 16 18 27 19 11 8 5 1 0 2 23
31 23 4 47 65 70 45 34 8 0 63 103 129 189 170 189 186 162 139 96 118 100 56 113 171 98 63 41 13 11 22 7 3 11 18 11 18 13 7 11 12 14 7
26 34 5 43 39 35 24 0 0 1 5 0 0 102 56 114 135 152 130 114 132 133 95 130 181 129 117 21 6 9 14 4 4 0 3 0 2 4 10 17 9 12 12
20 6 4 28 4 0 4 0 0 1 1 3 6 5 0 60 59 98 117 97 60 124 73 89 199 204 167 139 89 19 3 16 54 0 2 2 5 4 1 2 1 1 1
1 29 5 0 2 0 0 2 5 5 3 0 0 0 1 3 3 0 42 10 30 22 1 0 3 19 21 29 39 124 115 44 96 2 0 0 1 1 1 2 11 3 0
5 0 25 28 32 18 17 11 11 6 2 1 2 6 7 7 0 1 0 0 2 66 77 112 78 77 145 235 286 236 220 344 197 29 11 1 0 0 1 8 28 15 12
15 35 16 5 8 4 2 5 7 0 0 0 3 3 3 0 0 3 4 18 9 24 49 17 6 19 63 136 221 236 254 309 185 75 36 18 7 5 4 0 0 0 0
0 37 41 45 51 41 4 0 0 0 0 10 32 11 22 4 11 29 121 91 126 174 200 230 148 96 84 135 124 103 52 15 53 216 78 12 5 13 8 3 0 0 0
4 3 0 27 48 27 9 0 30 44 39 41 50 59 60 9 3 25 34 31 24 132 60 15 12 8 12 28 15 13 6 15 13 8 2 4 1 0 3 1 2 0 0
45 8 10 13 3 1 0 0 0 0 5 5 9 10 8 18 17 20 27 22 11 9 12 20 22 22 12 13 26 10 0 0 3 3 2 0 0 0 10 5 0 0 1
6 11 4 6 4 9 4 4 2 2 5 2 5 7 6 9 8 11 13 15 28 22 17 4 22 5 8 5 1 0 0 0 0 0 2 0 0 0 0 0 0 0 0
38 14 13 39 17 33 27 18 19 19 14 52 20 75 48 53 73 107 43 42 16 6 5 1 22 10 1 7 3 3 0 0 0 0 0 0 0 0 0 0 1 0 0
121 152 123 159 148 255 245 183 128 173 105 87 67 80 65 49 61 28 20 19 38 35 35 3 0 1 1 0 1 0 0 0 0 0 0 0 0 0 0 0 0 0 0

GFSMA_con_mucape_093.txt.gz
CAPE
1612 1152 527 529 663 325 120 87 119 165 168 278 320 296 243 224 78 82 14 0 28 52 35 17 19 29 14 25 25 19 11 8 6 12 9 7 8 6 6 0 1 1 1
1399 864 563 367 262 201 114 94 103 107 139 135 298 195 186 127 42 33 13 9 19 40 47 35 21 30 30 27 29 18 8 5 4 5 12 8 7 3 2 3 0 0 0
1158 817 445 439 805 177 279 84 80 61 99 140 228 229 93 42 27 15 20 25 23 15 33 44 61 34 27 26 25 18 12 6 10 7 9 8 7 4 2 1 0 0 0
855 525 194 481 261 170 148 72 65 59 67 107 179 105 50 44 27 16 20 32 23 8 20 37 50 44 41 26 17 12 6 12 12 8 6 8 6 1 0 0 0 0 0
639 341 736 226 122 57 92 162 52 57 69 135 127 140 58 17 20 14 43 19 15 10 27 20 19 24 33 39 20 7 12 8 10 10 8 4 0 0 0 0 0 0 0
485 620 327 121 282 39 71 100 48 15 104 148 94 65 49 44 15 13 19 15 4 16 15 34 17 18 16 27 31 10 14 14 9 9 8 6 0 0 0 0 0 0 0
262 110 85 137 91 16 33 19 41 42 63 282 148 90 129 112 61 26 31 27 33 34 15 43 29 18 1 10 17 11 10 13 9 9 6 7 6 0 0 0 0 0 0
132 21 98 57 19 25 35 23 32 32 55 154 124 80 77 51 67 41 33 28 63 30 30 46 19 15 13 0 3 11 9 13 14 10 19 16 13 9 1 0 2 0 4
65 45 87 46 37 30 30 13 39 32 105 94 125 18 51 39 36 20 54 21 70 27 35 22 18 13 20 14 0 0 0 0 35 128 126 65 32 17 14 16 24 19 6
5 47 36 59 62 23 7 29 36 47 92 111 137 150 83 55 41 33 24 36 33 35 62 21 17 9 7 1 7 0 0 0 0 22 173 238 186 116 89 82 82 78 54
11 76 34 47 52 14 7 25 16 118 112 161 146 137 162 127 150 104 45 65 35 26 26 75 33 44 36 48 68 52 0 0 0 0 9 97 222 295 311 243 196 187 172
5 22 39 42 31 20 24 6 64 91 133 236 219 173 168 132 120 127 120 154 153 110 99 133 160 106 74 72 27 2 36 25 13 13 1 7 53 128 179 259 337 369 356
4 5 26 24 14 23 19 25 63 172 271 256 278 138 190 222 193 146 98 157 140 131 152 191 167 185 125 139 111 32 37 32 30 11 10 16 26 36 33 56 98 145 181
3 2 22 13 24 16 29 36 120 185 174 227 161 144 150 243 202 178 133 121 102 69 68 132 224 221 213 201 187 77 64 27 6 9 10 19 22 17 12 5 0 0 3
0 5 13 30 16 13 27 21 56 70 93 136 163 196 145 126 208 253 202 139 159 66 71 194 155 196 208 210 130 159 135 45 16 3 0 1 5 5 5 0 0 1 3
0 5 10 27 24 17 8 27 19 40 100 142 102 121 82 146 153 153 137 201 184 102 59 64 121 168 163 43 36 97 131 32 3 3 0 0 0 0 0 0 0 2 7
0 12 5 14 4 23 21 12 5 30 26 3 14 34 0 66 116 184 136 73 146 136 113 91 86 127 68 170 108 51 56 65 77 13 5 0 0 0 0 1 2 7 3
5 25 20 6 33 33 36 22 2 0 0 0 0 0 6 2 64 77 146 108 121 62 32 3 7 0 0 8 54 213 157 77 52 3 0 4 8 18 17 17 23 16 2
3 3 3 0 1 0 2 0 0 0 0 1 7 0 2 0 68 52 19 5 6 1 0 3 0 27 79 135 136 91 88 178 193 100 86 47 20 23 37 17 12 22 20
11 3 3 26 15 1 2 3 1 1 7 9 2 1 4 12 16 21 7 4 1 0 2 8 8 13 25 78 114 125 170 220 234 128 86 51 41 17 21 35 33 13 6
7 0 0 2 21 13 6 4 10 11 8 4 8 0 0 2 4 13 0 12 20 9 63 44 34 65 85 160 207 194 67 55 13 15 18 16 24 17 52 42 18 9 9
29 38 46 50 46 4 12 0 0 5 1 5 7 8 9 0 0 2 2 0 13 43 50 51 47 26 32 34 10 11 20 25 21 23 1 0 15 0 13 4 9 6 17
4 0 15 15 18 22 6 7 10 11 11 17 16 29 34 25 19 14 13 10 1 14 19 25 14 18 25 37 20 24 11 1 0 0 0 0 0 0 0 0 0 0 0
6 4 3 11 7 7 4 4 1 4 9 7 7 20 10 19 39 36 32 22 10 7 6 15 24 21 15 0 22 6 0 0 1 2 1 1 0 0 3 3 4 3 4
24 15 4 3 3 2 1 0 0 0 0 0 5 2 5 2 0 0 30 19 11 0 15 8 6 4 7 4 6 0 0 2 0 0 3 2 1 0 0 0 0 0 0
4 3 5 7 7 6 6 19 10 9 3 2 21 3 6 10 37 48 57 38 58 53 27 3 21 18 14 5 1 1 3 0 0 0 0 0 0 0 0 0 0 0 0

GFSMA_con_mucape_096.txt.gz
CAPE
1553 1237 1001 637 452 309 184 134 71 43 91 100 132 184 131 71 25 29 25 1 0 7 27 15 10 21 18 22 41 27 5 4 6 13 9 10 20 5 10 7 6 1 1
1613 1201 903 702 461 374 231 120 63 52 32 71 104 154 130 73 46 36 8 0 1 4 33 12 25 11 20 23 33 11 3 1 2 9 9 7 14 16 17 3 0 0 0
1444 1054 840 605 465 329 162 99 66 6 66 82 71 76 143 92 36 29 2 0 7 6 20 43 42 30 20 23 22 15 3 13 5 9 9 6 4 0 6 9 0 0 0
1318 1056 767 574 410 252 130 105 64 76 53 38 34 58 120 29 26 0 0 0 0 11 22 25 36 34 35 25 14 10 11 9 9 7 8 8 4 3 1 0 0 0 0
1217 864 569 510 350 189 136 80 56 46 9 39 37 39 53 25 6 0 0 0 0 3 8 20 15 21 33 40 15 9 9 9 9 7 7 5 5 1 0 0 0 0 0
1068 814 518 373 255 137 102 72 44 34 15 12 160 73 46 4 0 12 6 0 0 1 3 5 9 14 16 32 30 11 10 10 10 8 8 8 4 0 0 0 0 0 0
684 802 712 236 148 89 83 45 40 35 16 35 37 38 78 3 0 17 12 0 0 0 15 11 3 0 4 14 26 20 17 15 13 9 8 9 9 8 0 0 0 0 0
612 749 356 182 99 55 16 50 38 49 9 33 1 0 0 33 44 19 28 18 4 0 0 0 0 0 0 0 0 16 16 19 18 10 18 15 12 5 0 0 0 0 1
813 483 264 164 97 35 29 42 29 39 6 24 24 0 0 0 18 28 29 12 28 16 1 0 0 0 0 0 0 0 0 0 9 63 51 31 30 27 11 2 10 11 6
278 237 136 97 53 22 33 39 25 28 33 0 30 3 3 0 0 11 22 21 30 16 18 11 5 4 0 0 0 0 0 0 0 3 119 157 128 99 67 51 47 50 55
230 158 90 43 54 66 24 48 38 51 8 1 2 0 28 15 0 0 0 1 21 10 0 3 2 0 0 0 0 0 0 0 0 0 3 89 230 257 172 144 144 141 139
49 40 35 26 39 13 42 60 26 18 15 13 20 1 9 44 3 0 1 0 0 0 0 0 3 8 0 0 0 0 0 0 0 0 0 0 25 88 177 280 307 319 294
28 13 1 26 7 27 46 23 22 10 17 15 31 27 72 68 64 53 46 21 14 6 0 0 0 0 0 2 0 0 4 6 13 17 19 6 0 0 8 33 75 154 228
130 2 3 10 13 30 55 30 0 20 37 22 34 51 120 127 125 114 60 36 64 35 42 55 36 33 37 20 27 45 19 9 12 36 31 15 0 0 0 3 5 14 32
8 0 1 2 4 27 43 22 26 20 13 21 36 57 91 128 139 130 105 80 34 0 22 77 101 116 121 88 64 83 72 53 50 36 16 8 0 0 2 8 2 13 24
0 3 7 11 29 17 41 12 35 26 14 44 43 49 82 89 72 90 95 91 74 60 0 44 89 97 110 81 109 94 85 72 50 43 38 15 0 1 4 4 6 10 14
0 0 3 12 16 27 16 15 12 7 16 43 49 66 78 60 55 55 45 78 72 57 6 49 43 69 69 69 45 35 21 27 26 26 17 6 9 6 10 9 6 12 17
0 2 7 0 2 25 25 18 23 32 46 48 64 65 77 81 54 43 51 48 0 20 18 4 21 1 5 16 26 38 28 22 7 8 11 6 28 44 39 41 43 37 41
0 0 1 7 9 0 20 24 15 30 40 50 43 58 78 61 0 3 1 32 43 39 23 0 0 0 3 1 3 7 10 17 18 30 47 50 42 42 52 55 66 64 67
3 5 3 0 0 21 11 12 15 10 49 9 0 0 5 3 16 13 2 7 6 6 2 2 0 0 0 0 10 12 2 27 36 69 83 66 51 55 54 34 40 42 26
44 6 0 1 0 0 0 0 0 0 0 0 4 9 6 4 3 0 1 0 0 0 1 18 11 0 2 1 11 11 23 42 45 74 49 62 30 21 32 24 8 5 0
20 0 4 0 4 7 8 1 2 2 2 0 4 16 10 11 0 3 8 3 0 0 6 3 11 17 2 30 25 11 8 60 167 29 47 21 22 6 0 0 10 9 23
52 44 11 9 4 1 18 14 7 12 23 4 8 7 7 12 2 2 2 0 2 0 2 3 12 17 33 19 26 41 24 0 1 0 0 0 11 1 1 5 6 10 12
0 0 21 20 25 24 25 20 14 10 16 14 9 1 10 17 7 17 35 10 20 13 9 13 8 7 5 2 0 2 1 2 1 0 52 0 0 0 1 3 4 3 1
2 3 7 9 30 14 15 15 17 11 8 10 14 10 8 8 9 13 12 12 10 10 3 6 9 11 1 2 13 7 40 13 15 1 0 0 0 0 0 0 0 0 0
6 8 6 2 5 7 5 4 8 4 4 6 3 17 8 5 7 11 5 9 5 8 32 21 6 1 21 3 38 13 10 1 0 0 0 0 0 0 0 0 0 0 0

GFSMA_con_mucape_099.txt.gz
CAPE
1093 1066 1117 878 725 497 405 277 130 93 86 107 92 102 86 90 79 26 17 15 2 15 14 13 15 27 26 17 30 13 14 7 13 12 12 15 12 10 10 7 2 3 1
1226 1065 1045 938 819 667 545 383 181 100 60 68 72 82 42 69 63 19 11 0 0 2 11 23 28 9 21 20 38 6 10 6 18 12 11 10 17 12 9 2 0 0 0
1364 1220 1123 985 918 758 673 398 199 107 41 55 50 79 55 52 54 37 12 0 0 0 0 38 34 26 19 6 22 9 8 8 12 11 7 5 5 6 0 0 0 0 0
1405 1286 1161 1034 824 687 504 327 213 89 46 33 36 12 45 54 61 46 21 0 0 0 0 21 34 30 27 24 19 11 4 12 8 11 10 5 2 0 0 0 0 0 0
1359 1226 1066 979 792 653 434 283 134 73 30 28 34 32 25 31 42 48 2 0 0 0 0 10 19 26 30 26 22 15 14 12 8 8 7 5 4 2 2 1 0 0 0
1348 1202 1067 946 739 573 447 240 84 54 67 45 50 40 33 13 30 5 0 0 0 0 0 3 11 14 16 38 36 15 16 13 15 14 10 6 8 5 3 0 0 0 0
1470 1231 965 947 782 517 362 122 46 65 69 46 17 63 37 29 3 0 3 0 0 0 0 0 8 7 9 13 28 16 16 15 19 17 15 13 12 12 10 0 0 0 0
1611 1640 1105 574 531 461 314 77 44 49 61 42 14 1 4 29 4 1 1 0 0 0 0 0 1 0 0 0 0 18 20 18 19 15 24 23 18 12 3 0 0 0 0
1188 1458 976 583 458 218 134 65 54 41 34 29 5 0 13 17 0 3 0 0 0 0 0 0 0 0 0 0 0 0 0 0 19 32 20 17 21 23 11 0 4 8 12
1164 996 892 887 430 202 148 70 102 23 40 12 38 14 0 0 0 0 10 8 5 0 0 0 0 0 0 0 0 0 0 0 0 4 98 91 87 82 81 69 61 63 60
1154 858 752 572 423 146 165 60 11 10 17 18 1 0 0 3 0 0 0 8 14 1 0 0 0 0 0 0 0 0 0 0 0 0 0 88 208 175 166 151 157 149 144
723 700 294 151 142 71 82 73 36 9 32 19 0 6 1 2 0 0 0 0 0 0 2 0 0 0 0 0 0 0 0 0 0 0 0 0 60 159 270 290 255 252 243
265 187 249 232 100 84 23 26 77 26 47 13 6 11 0 0 1 3 0 0 0 0 0 0 0 0 0 0 0 0 0 0 0 0 0 0 1 16 63 132 226 340 385
177 189 74 26 39 23 29 26 24 43 33 25 41 5 3 8 0 38 1 4 1 1 1 0 0 0 0 0 0 0 1 13 18 15 18 24 32 30 15 5 20 38 80
289 121 40 23 14 22 45 39 3 28 36 11 18 4 15 14 87 88 65 45 39 1 0 2 1 3 1 5 36 35 24 18 25 20 25 14 36 47 37 28 19 16 12
150 112 67 76 0 12 25 3 26 16 33 33 10 6 17 38 72 88 56 42 22 29 13 18 25 70 44 49 71 74 70 73 84 91 71 65 67 41 26 13 14 17 20
34 17 9 4 5 11 2 17 7 25 35 1 26 33 18 31 50 81 57 59 69 42 36 40 54 50 88 110 114 142 122 96 103 101 97 71 60 48 47 25 14 17 27
7 0 0 3 4 8 24 39 11 20 13 32 17 17 6 37 54 88 73 71 72 68 79 67 23 36 34 83 91 61 54 16 15 6 34 54 31 18 13 18 8 19 22
6 0 0 11 15 1 17 29 27 9 36 40 15 15 18 16 46 73 64 83 73 56 42 6 0 8 23 14 16 17 11 13 2 12 11 12 32 40 35 29 21 30 43
21 0 10 4 0 5 8 21 25 12 24 9 15 29 5 37 57 68 57 64 63 22 1 7 6 5 3 1 1 2 1 2 6 9 27 19 20 41 45 43 35 36 36
29 7 18 4 0 18 5 37 26 40 35 6 48 53 37 4 49 13 0 2 1 8 7 2 3 6 4 0 0 5 2 19 35 36 33 39 39 18 31 30 17 15 18
50 20 2 2 1 0 0 0 9 10 25 15 34 0 0 1 0 14 9 9 4 2 3 1 0 0 0 3 7 2 5 15 37 16 3 19 16 2 7 19 3 14 7
56 32 48 35 8 3 12 4 2 0 0 0 0 0 13 9 13 8 5 2 3 5 8 2 0 1 9 4 6 9 8 8 17 19 1 0 1 1 0 3 2 5 13
102 52 35 20 11 29 8 13 9 5 3 18 1 0 7 14 3 4 21 16 11 8 8 8 2 2 11 0 5 18 14 30 2 10 11 3 3 3 6 6 2 0 0
27 18 27 27 17 5 16 19 17 16 11 13 21 28 4 2 11 16 23 32 19 4 25 15 16 12 16 5 3 15 10 12 0 5 1 0 5 4 3 0 0 0 0
6 16 2 28 8 14 15 22 44 35 24 20 21 17 26 27 28 12 13 10 29 4 4 19 14 7 2 2 8 5 0 0 0 7 8 0 0 0 0 0 0 0 0

GFSMA_con_mucape_102.txt.gz
CAPE
1465 1380 1254 1018 908 815 676 525 354 179 164 160 107 62 38 51 78 110 94 171 224 309 65 14 15 16 13 5 22 15 14 3 7 12 11 22 21 18 6 4 3 3 2
1360 1227 1090 984 881 831 716 593 538 503 178 186 179 91 55 51 46 75 47 61 10 9 23 16 15 19 21 21 23 18 15 10 6 16 15 18 15 12 14 2 2 2 1
1278 1020 1048 1011 932 870 803 738 678 654 319 77 84 48 42 56 46 56 38 30 0 0 0 21 39 35 25 27 22 17 17 18 4 5 16 15 19 8 6 0 1 0 1
1348 1093 1089 1169 1112 1012 985 880 794 776 409 122 70 60 49 42 50 52 36 12 0 0 0 4 34 37 44 26 15 9 12 16 11 8 17 16 12 10 5 1 0 0 0
1429 1286 1217 1206 1109 1043 917 1188 1231 792 277 189 117 58 45 32 46 51 45 33 0 0 0 8 17 21 36 44 30 17 15 14 14 8 5 16 15 15 12 5 1 0 0
1509 1365 1325 1293 1197 1052 806 1066 1076 743 268 136 59 74 34 27 39 45 34 70 13 0 0 0 9 6 16 28 37 17 25 22 18 15 18 8 6 12 10 8 5 1 0
1544 1457 1411 1304 1128 1001 583 705 905 629 198 95 72 14 22 20 36 35 42 19 0 0 0 0 4 9 8 20 35 29 15 25 22 12 7 2 9 16 13 5 3 0 0
1505 1434 1267 1137 995 1055 1254 389 595 205 138 75 53 39 5 0 10 18 34 2 0 0 0 0 0 4 0 3 7 24 34 26 24 20 27 13 18 16 7 4 1 0 0
1628 1402 1283 1452 1182 822 451 573 319 275 29 27 58 41 0 0 0 5 3 5 0 0 0 0 0 0 0 0 0 8 10 9 32 37 30 22 22 19 8 0 1 0 0
946 1715 1351 1348 802 631 429 233 208 92 80 33 48 54 12 0 1 0 1 5 0 0 0 0 0 0 0 0 0 0 0 0 0 19 41 46 47 47 51 39 32 9 12
1154 1208 825 1025 775 471 533 338 126 72 38 55 27 24 13 3 0 4 0 0 0 0 0 0 0 0 0 0 0 0 0 0 0 0 3 102 118 124 129 133 123 108 117
1125 1201 1111 1144 807 726 475 255 128 66 38 35 42 39 16 0 1 10 23 0 0 0 0 0 0 0 0 0 0 0 0 0 0 0 0 0 65 182 199 191 203 212 218
809 802 810 772 667 572 328 230 51 60 35 38 27 21 14 1 3 17 15 0 0 0 0 0 0 0 0 0 0 0 0 0 0 0 0 0 0 13 69 166 267 307 305
581 444 467 314 579 365 140 96 33 29 38 37 37 20 14 5 2 5 14 0 0 0 0 0 0 0 0 0 0 0 0 0 0 0 1 9 4 0 0 12 38 81 138
763 511 321 195 182 196 131 37 25 26 25 26 12 40 12 3 5 16 3 0 0 0 0 0 0 0 0 0 0 0 13 14 9 9 16 28 34 29 28 38 34 29 26
565 365 188 130 159 83 37 37 16 42 36 6 23 34 29 11 11 1 4 0 32 53 16 0 0 0 0 0 0 18 33 47 53 51 59 69 67 64 42 38 46 37 14
435 327 323 112 64 55 195 41 49 29 38 22 8 15 21 7 17 9 4 43 41 55 58 19 10 25 29 29 44 42 58 53 53 57 64 95 99 97 70 50 36 17 9
142 133 45 29 4 4 10 14 15 7 24 37 3 32 18 23 4 11 40 2 44 37 54 53 34 66 71 58 68 59 83 63 94 50 74 85 48 45 35 23 18 10 13
6 0 2 12 7 0 6 17 8 10 42 9 37 36 0 15 11 1 1 44 62 18 38 17 27 54 59 42 50 59 78 86 74 35 23 13 6 4 11 19 31 42 37
0 0 13 8 0 0 1 6 23 43 40 15 19 22 5 13 21 10 9 61 38 17 20 4 0 9 24 0 10 3 11 13 11 3 5 12 17 16 26 15 21 22 29
12 18 12 2 7 0 0 15 4 27 52 33 33 28 19 32 26 8 0 1 0 10 0 0 0 0 0 1 0 0 8 10 14 8 10 14 39 13 11 2 33 5 5
3 5 28 6 0 0 0 5 18 23 34 17 18 47 27 17 17 9 1 50 0 9 0 0 0 2 6 2 1 2 11 2 28 12 0 17 22 13 5 2 7 19 16
14 12 21 10 5 9 2 0 0 4 18 24 41 5 3 30 0 0 17 6 0 0 0 0 0 0 7 1 7 10 5 2 2 11 18 3 10 0 8 4 6 5 11
37 41 64 61 43 8 6 12 3 4 0 3 18 8 2 8 4 35 18 3 0 13 35 0 6 2 3 7 4 8 14 11 10 13 9 10 7 5 7 7 3 2 2
18 36 24 73 19 22 35 31 10 4 5 0 2 4 6 0 0 0 0 2 12 8 12 5 5 5 8 6 9 8 7 4 3 11 1 2 0 2 0 5 2 5 3
44 29 15 20 18 15 13 11 29 27 37 2 1 9 0 0 0 0 0 2 13 11 0 5 2 4 10 6 8 6 12 19 9 9 0 0 0 0 0 4 0 0 0

GFSMA_con_mucape_105.txt.gz
CAPE
1618 1540 1468 1377 1223 1033 879 654 464 267 237 122 162 233 96 119 76 83 90 202 317 630 736 139 23 11 10 18 28 25 18 12 7 11 6 6 5 19 21 18 12 9 7
1676 1566 1435 1333 1181 1031 905 742 638 430 251 213 167 124 100 65 58 66 63 103 241 401 439 289 40 11 18 20 33 28 17 29 20 13 10 12 13 14 16 12 10 8 6
1698 1595 1413 1297 1064 980 897 806 683 641 563 446 283 238 122 53 55 46 50 70 160 134 67 120 77 29 21 9 30 27 20 30 24 7 6 14 11 14 12 13 11 9 5
1649 1399 1247 1192 1102 948 908 829 767 707 681 457 345 294 149 90 72 60 57 67 104 20 0 0 12 32 47 25 38 29 25 35 27 21 11 13 11 11 13 7 4 3 3
1602 1360 1233 990 955 917 896 884 822 800 818 663 537 289 131 91 54 71 50 48 43 3 0 0 2 19 38 48 34 22 33 28 28 22 17 21 14 16 12 7 4 0 0
1628 1499 1185 993 930 981 969 919 934 707 764 952 609 273 121 82 68 62 55 50 36 5 0 0 2 19 23 38 54 27 37 31 26 25 23 16 20 20 18 11 4 1 0
1605 1653 1378 1176 1055 1085 1036 979 885 637 557 696 440 155 99 44 27 37 59 50 41 35 16 1 0 2 6 28 39 41 37 36 25 20 27 18 14 4 20 12 9 5 3
1462 1666 1590 1449 1298 1226 1128 874 672 411 358 341 159 118 33 52 19 40 18 48 44 43 22 0 0 0 0 3 10 42 37 41 29 17 31 20 24 6 14 9 7 6 6
1543 1613 1668 1427 1244 1599 1012 638 408 271 191 161 134 56 39 3 0 27 33 26 34 33 9 0 0 0 0 0 0 15 16 23 39 42 33 39 7 16 20 9 7 5 2
1757 1542 1538 1392 1280 1247 1300 637 434 232 174 128 111 81 38 11 13 0 5 26 20 15 0 0 0 0 0 0 0 1 6 6 8 30 37 38 30 26 19 16 10 3 1
1553 1389 1629 1365 1267 921 1065 807 531 296 172 144 58 35 76 44 38 0 0 0 3 1 9 0 0 0 0 0 0 0 0 0 0 1 23 36 63 36 42 48 57 34 48
1303 1203 1169 1066 1000 1100 1037 596 501 576 214 197 45 19 30 32 10 3 17 1 2 3 10 0 0 0 0 0 0 0 0 0 0 0 0 6 37 87 91 111 139 165 164
949 916 738 1036 833 774 824 755 618 781 497 149 25 25 16 46 32 16 7 3 10 8 0 0 0 0 0 0 0 0 0 0 0 0 0 0 0 1 56 136 183 232 255
1310 928 524 782 885 793 587 699 414 363 252 115 39 36 42 24 41 12 12 53 58 1 0 0 0 0 0 0 0 0 0 0 0 0 0 0 0 0 0 12 89 164 204
851 766 364 374 596 902 621 674 307 252 131 70 43 31 18 39 16 7 9 22 59 0 0 0 2 0 0 0 0 0 0 0 0 0 0 0 0 0 1 5 0 0 7
464 533 634 454 369 279 311 188 151 104 63 50 31 32 68 31 14 21 14 8 9 5 0 0 2 6 0 0 0 0 0 0 0 0 0 5 10 18 33 28 18 15 15
775 1053 807 310 269 124 165 148 135 98 77 48 39 63 42 23 9 28 5 4 19 70 1 1 8 8 0 0 0 0 0 4 14 21 45 56 62 65 51 54 60 55 52
638 413 430 243 345 204 171 93 76 54 101 38 51 14 15 20 8 39 7 19 9 1 1 0 2 55 4 3 1 0 3 28 40 53 61 41 18 36 55 40 56 52 47
177 271 112 39 45 5 11 22 37 23 26 27 6 32 34 6 19 4 18 16 2 8 0 0 15 55 31 29 37 37 41 53 53 58 41 28 51 41 7 2 11 17 13
224 26 23 4 5 3 0 0 0 2 8 0 28 18 49 12 20 11 13 26 5 0 0 0 47 50 18 15 72 33 15 22 63 36 34 50 26 2 2 15 17 28 24
6 23 28 0 1 0 0 0 0 0 9 5 21 39 34 22 12 2 6 10 0 0 10 2 0 7 0 10 30 3 22 0 4 8 0 3 3 5 4 4 14 33 35
12 17 2 4 8 3 0 0 0 0 5 7 22 33 39 19 21 18 29 19 1 0 0 0 0 1 0 0 15 0 0 0 0 1 0 1 1 0 6 3 5 31 6
0 3 9 3 3 0 0 8 3 1 1 25 36 46 25 27 41 21 10 6 3 4 15 10 1 0 0 0 0 0 0 0 0 3 0 1 0 3 15 17 20 8 5
0 0 11 13 22 25 24 13 11 3 1 0 0 0 24 9 0 17 11 26 0 14 0 10 17 0 19 0 0 0 2 0 0 1 0 4 9 15 15 9 1 1 6
2 0 25 35 18 27 5 2 25 22 14 0 0 2 13 0 7 16 7 0 0 0 12 14 20 12 9 3 3 4 0 3 1 3 7 16 0 0 3 1 4 2 4
17 6 2 21 12 16 23 12 19 9 0 0 1 2 0 7 13 21 0 0 0 0 1 0 36 8 8 10 6 14 1 0 0 8 3 0 0 0 1 0 0 1 0

GFSMA_con_mucape_108.txt.gz
CAPE
1464 1553 1553 1536 1438 1180 892 789 734 520 592 572 487 445 407 345 265 226 229 217 292 547 889 481 190 27 8 6 28 24 17 34 23 4 14 15 22 23 10 11 6 12 12
1555 1800 1501 1522 1403 1218 1023 752 652 426 460 430 463 363 319 318 244 111 40 82 151 195 527 612 258 61 20 12 29 34 24 25 22 11 8 20 22 20 2 6 14 5 8
1791 1976 1487 1482 1386 1289 1081 881 658 536 482 291 290 342 404 309 331 74 43 57 67 81 304 236 315 168 30 12 36 42 38 41 30 28 7 15 17 14 6 13 12 7 5
1972 2127 1717 1435 1405 1290 1177 998 854 723 505 348 319 275 326 314 201 112 90 74 73 73 145 118 119 36 36 23 38 28 34 27 31 30 19 23 17 22 18 13 13 10 4
1815 1890 1725 1488 1332 1285 1153 1043 900 773 652 473 270 623 286 291 172 122 98 100 79 79 121 65 19 1 17 44 42 42 34 38 32 28 29 6 19 19 17 11 12 7 5
2032 2193 1506 1495 1363 1502 1078 1006 935 848 653 602 453 525 315 281 178 111 81 97 76 102 51 17 2 0 9 35 58 62 40 15 35 32 35 24 16 21 22 9 6 5 2
1743 1825 1703 1341 1289 1222 1263 860 911 841 754 563 452 221 317 307 73 83 83 48 56 73 31 9 1 0 1 29 44 60 41 36 36 22 27 34 27 36 28 11 5 6 3
1184 1522 1588 1165 1204 1051 929 822 679 629 934 443 241 270 127 96 59 47 44 37 55 46 70 7 4 0 0 5 11 51 56 58 49 42 39 41 30 28 4 21 15 13 12
1058 1184 990 1082 1145 1030 986 863 725 593 873 317 150 135 77 70 12 10 32 29 32 47 49 30 13 0 0 0 1 25 27 31 63 48 50 52 38 27 6 9 19 16 11
1163 1044 1051 1087 1035 1117 1222 924 703 1101 590 301 80 181 139 11 2 0 0 25 12 7 31 35 40 2 0 0 0 3 12 18 24 48 45 44 25 10 18 21 27 17 12
1495 1480 1421 1347 1272 1303 1047 1113 901 1075 361 204 165 146 60 35 31 17 60 0 33 24 8 58 41 9 6 0 0 0 0 12 11 15 30 40 44 38 28 32 31 20 17
1487 1566 1625 1557 1437 1203 1165 1047 789 511 564 329 197 252 112 15 8 26 14 1 0 1 23 27 29 5 4 0 0 0 0 0 0 0 3 16 28 41 37 39 31 70 66
1622 1205 1588 1640 1250 1123 1162 1060 610 757 602 475 405 310 129 68 21 12 28 5 35 4 1 14 23 16 1 0 0 0 0 0 0 0 0 0 3 16 26 24 36 101 153
1354 1062 1190 1293 1237 1102 1049 686 715 943 564 468 326 268 146 66 14 12 29 32 9 8 0 0 10 0 0 0 0 0 0 0 0 0 0 0 0 0 0 1 1 56 113
1061 897 810 1441 965 758 600 637 554 531 500 527 351 202 201 181 18 8 18 8 26 0 1 1 6 1 4 0 0 0 0 0 0 0 0 0 0 0 0 0 0 0 20
713 625 647 1105 1032 945 726 615 565 506 429 390 216 188 148 103 22 65 22 9 31 0 4 4 14 2 1 0 0 0 0 0 0 0 0 0 0 0 0 0 0 0 0
664 564 712 773 598 532 505 454 327 246 203 174 168 91 44 24 26 41 11 30 8 3 33 9 2 6 0 0 3 0 0 0 1 12 9 2 0 0 0 0 1 5 8
580 514 473 545 535 548 205 218 122 159 123 92 66 57 28 33 70 12 15 30 19 12 23 73 3 2 0 9 19 11 0 9 17 21 23 15 3 1 7 14 25 33 34
521 595 410 327 308 352 232 53 33 18 66 79 96 56 127 9 12 18 9 10 28 26 19 1 11 0 1 31 16 18 1 14 26 18 22 23 32 26 23 19 25 34 26
135 131 240 258 97 58 33 6 22 0 0 0 0 4 23 19 21 9 11 0 4 10 18 0 8 0 0 0 50 42 21 14 7 13 47 47 47 22 6 18 23 10 2
68 95 90 46 23 16 10 2 0 0 1 0 0 0 9 3 22 22 27 16 21 2 0 17 41 0 0 0 0 45 44 43 46 47 35 30 23 8 7 19 22 1 0
72 15 16 11 1 5 6 0 0 0 0 0 0 13 7 18 4 23 48 41 26 3 16 220 6 18 0 0 43 0 24 44 0 2 22 0 9 1 1 1 0 1 3
6 4 1 0 2 4 7 2 0 1 8 0 0 0 10 34 43 44 26 20 28 11 6 9 13 20 0 0 6 0 1 0 0 3 0 0 0 0 1 2 1 1 0
0 0 0 0 0 14 10 10 11 24 23 6 0 1 0 0 4 20 54 46 27 24 11 6 5 27 14 30 8 12 25 0 0 0 0 0 0 0 2 4 0 0 2
1 16 0 0 0 1 22 20 18 7 10 2 0 1 1 0 17 38 46 14 8 16 7 13 6 32 0 12 0 0 10 35 0 0 0 0 0 0 0 1 2 2 3
41 38 12 8 15 8 5 30 21 19 52 11 8 2 6 0 0 0 0 0 1 5 12 0 0 12 1 0 1 0 0 0 0 0 0 0 0 0 1 1 1 2 4

GFSMA_con_mucape_111.txt.gz
CAPE
1854 1788 1965 2104 2133 1915 1726 1724 1519 1488 1444 1213 1103 1133 1090 1143 1040 1031 1052 340 501 564 920 794 412 176 38 8 22 27 24 14 16 20 26 33 29 22 21 20 10 5 7
1941 1979 1718 1846 1896 1666 1471 1497 1346 1282 1325 1240 1143 1102 1060 1079 985 975 1045 724 203 227 471 698 560 228 56 15 30 27 27 42 28 17 23 28 36 25 20 26 15 18 15
2003 1916 1553 1611 1566 1394 1236 1112 1150 1152 1273 1074 1185 1064 997 993 938 817 688 300 267 105 134 277 542 434 141 17 20 32 38 49 38 22 18 29 28 25 25 24 20 10 13
1944 1787 1609 1744 1485 1469 1357 1157 975 1009 1075 1023 1007 911 1001 908 857 783 464 340 205 80 34 47 132 205 160 30 22 27 24 32 32 30 21 23 28 20 21 16 21 12 7
1562 1572 1570 2200 1491 1413 1377 1277 1058 997 863 720 720 763 789 679 654 719 470 340 190 72 70 85 118 102 43 24 33 35 28 31 35 40 24 22 22 27 25 14 12 13 8
1157 1803 1610 1807 1890 1327 1315 1262 1211 1058 915 866 544 673 693 457 848 656 396 284 223 78 100 87 79 119 7 9 30 49 31 42 42 46 31 24 25 34 30 15 10 11 9
1209 1662 1609 1506 2067 1342 1173 1139 1111 1136 1065 806 597 309 322 462 406 408 414 272 169 74 61 72 90 118 21 2 27 61 52 46 42 48 46 32 35 34 15 28 16 16 10
1256 1236 1551 1099 1846 1494 1051 909 1066 957 990 804 324 309 296 341 496 536 466 245 206 91 50 31 64 43 60 10 19 48 92 62 46 57 63 53 37 32 10 31 19 18 13
1262 1178 1296 1330 1695 1568 1009 983 911 838 693 521 505 284 185 174 109 189 142 98 47 61 45 49 31 40 39 18 10 15 25 29 61 82 71 54 41 30 18 26 24 18 14
1489 1042 1117 1530 1482 1379 957 754 721 779 525 387 202 351 416 135 168 25 22 30 89 24 15 28 36 36 9 33 2 2 3 13 29 53 66 66 46 33 16 24 24 29 19
1765 1160 1128 1093 1400 1189 746 768 709 721 658 401 225 261 287 192 46 50 39 8 0 29 34 26 20 1 23 7 0 0 0 8 18 27 48 44 46 35 26 28 27 24 24
1446 1408 1203 1096 1291 1211 679 709 825 896 643 461 555 438 222 179 27 47 34 11 30 2 8 16 15 4 24 19 0 0 0 0 11 16 16 23 39 34 33 33 35 27 24
1208 1594 1304 1075 1187 1289 1078 1020 1045 867 707 528 467 764 241 271 133 69 51 58 15 12 2 10 2 9 39 41 14 0 0 0 0 1 0 7 17 20 28 24 28 35 38
1368 1362 1305 1321 1019 1078 1142 1097 1071 846 650 572 435 318 333 216 146 155 81 61 22 18 19 8 4 6 24 42 12 12 0 0 0 0 0 0 2 7 11 14 9 14 22
1124 1214 1435 915 1073 854 1080 1354 1047 841 672 741 427 431 422 345 306 181 124 59 65 20 11 0 0 2 8 21 11 10 0 0 0 0 0 0 0 0 0 0 6 7 9
944 1506 1530 973 707 826 1525 1169 777 606 429 380 420 418 418 378 342 164 156 77 66 12 18 2 0 4 5 6 4 20 1 0 0 0 0 0 0 0 0 0 0 0 0
1035 1499 1099 881 686 910 1298 936 553 393 454 433 432 404 329 268 176 138 118 185 13 1 13 2 2 4 5 6 8 2 21 2 0 0 0 0 0 0 0 0 0 0 0
1362 1225 878 513 626 904 916 434 273 350 325 269 333 279 157 79 101 108 52 35 22 26 24 6 0 6 0 6 10 6 13 1 0 0 0 0 0 0 0 0 0 0 2
884 780 683 576 428 380 374 324 343 199 107 73 85 129 194 174 105 53 59 31 9 29 4 0 1 3 11 12 1 2 30 19 0 0 1 11 15 12 6 7 3 1 11
603 370 314 312 252 191 93 143 143 100 63 37 10 6 3 27 146 120 54 30 1 2 12 1 5 10 2 9 1 0 0 0 0 7 20 27 16 15 22 16 20 32 41
207 172 89 34 35 72 102 106 7 7 7 0 0 0 0 14 3 23 47 11 5 23 4 4 2 0 0 5 0 0 0 0 7 25 26 44 36 29 33 29 33 19 12
67 49 5 1 26 83 8 0 0 2 0 0 0 0 0 0 0 8 7 15 49 2 31 5 0 0 0 0 0 0 0 0 0 28 48 55 32 31 45 52 15 4 3
0 0 4 46 12 9 0 1 0 0 0 0 0 0 0 0 0 3 3 5 5 6 19 13 2 1 0 1 15 3 0 0 0 46 53 58 59 57 45 15 10 11 6
0 28 42 0 0 6 0 1 5 5 4 9 1 0 0 0 0 0 8 0 11 0 6 44 41 1 8 12 5 5 0 0 0 23 55 54 54 32 18 1 15 11 6
17 24 0 4 0 0 10 0 2 20 31 2 0 0 0 0 0 0 0 0 15 26 10 27 9 9 18 20 12 0 0 0 0 13 12 0 0 0 0 0 1 2 4
15 0 2 7 0 0 3 9 0 7 15 3 17 8 2 2 1 6 0 0 0 0 0 0 24 26 21 20 6 0 1 5 0 0 17 0 0 0 0 0 0 1 1

GFSMA_con_mucape_114.txt.gz
CAPE
2543 2568 2481 2430 2495 2308 2415 2149 1904 1815 1691 1496 1477 1455 1404 1308 1083 1231 1227 537 552 621 1117 837 651 358 149 39 69 25 26 18 17 15 16 23 27 29 23 28 8 7 18
2482 2285 2465 2528 2470 2296 2431 2352 2078 1988 1825 1679 1483 1320 1297 1298 1165 1089 1056 1023 406 515 838 1019 768 512 221 30 66 26 23 35 36 18 22 19 28 35 32 24 21 17 15
2542 2189 2294 2433 2311 2689 2312 2429 2037 1820 1620 1714 1563 1365 1443 1263 1095 952 1075 961 564 334 492 464 646 357 366 37 9 34 27 41 35 33 27 22 32 34 31 23 20 20 13
2537 2299 2187 2299 2537 2754 2474 2267 2019 1897 1804 1644 1591 1328 1241 1173 1098 1031 949 858 686 694 246 197 137 148 257 235 12 19 21 48 45 40 33 32 21 27 25 26 25 19 14
2988 2712 2370 2132 2353 2114 2322 2163 2075 2011 1745 1479 1401 1327 1409 1127 1101 917 875 850 730 501 409 105 68 35 116 215 69 20 35 39 37 32 27 25 19 29 21 27 25 8 8
2801 2965 2313 2348 2242 1924 2095 2204 2127 1866 1893 1596 1393 1315 1316 1255 1166 1054 990 866 922 739 333 327 193 103 96 95 103 62 38 41 39 29 34 30 25 26 26 30 28 23 13
2845 2713 2137 2142 1648 1507 1875 1798 1770 1897 2024 1818 1508 1313 1321 1031 1018 937 864 846 949 662 366 232 172 149 55 66 64 148 40 42 46 41 46 43 39 35 26 26 27 19 17
2498 2679 2377 2082 1607 1458 1664 1665 1345 1291 1231 1342 936 852 844 899 905 921 892 758 795 677 208 143 89 106 98 54 58 35 120 53 56 64 68 38 39 37 33 28 28 18 12
2394 2727 2262 1877 1488 1464 1079 1783 1417 1117 1175 953 1455 919 878 572 522 762 860 760 785 588 130 85 33 68 96 79 48 4 15 24 39 85 72 51 29 24 29 28 36 31 16
2464 2280 2097 1896 1498 1377 1110 1403 1427 1342 1165 875 709 1258 903 618 481 425 448 504 735 533 124 50 45 18 75 73 67 5 0 13 15 40 67 89 49 30 28 31 36 36 27
1977 1910 1872 1934 1485 1509 1134 1202 1548 1305 1114 937 579 724 1111 969 639 456 553 497 211 469 510 94 22 28 18 34 17 59 0 0 6 12 53 76 62 39 29 36 39 37 32
1652 1576 1512 1685 1525 1371 1116 1024 1375 1176 1165 957 636 1268 959 830 793 484 407 305 347 270 189 107 33 10 2 9 7 4 5 0 0 2 11 29 46 39 32 32 37 39 30
1530 1481 1681 1811 1854 1319 1183 916 1119 1201 1136 778 1328 1202 1020 654 449 512 482 527 426 336 207 31 59 8 2 5 2 3 3 0 0 0 2 7 20 24 30 21 31 36 35
1627 1779 1804 1651 1752 1295 1180 1118 1115 1095 847 967 1374 1448 1156 898 798 723 576 601 128 86 162 75 14 11 0 0 6 20 24 3 0 0 0 2 12 18 11 8 14 19 27
1584 1764 1817 1753 1430 1761 1101 979 923 746 747 945 1154 1521 1311 1205 1023 922 614 448 408 230 17 7 70 13 0 1 5 40 46 9 0 0 0 0 0 3 9 10 7 8 10
2159 1931 1574 1581 1697 1599 1211 857 796 819 1058 1177 1059 784 818 864 793 841 629 462 244 410 134 25 84 91 8 9 9 11 42 42 12 0 0 0 0 0 0 2 8 11 11
1864 1763 1873 1310 1343 1709 1475 1035 802 847 901 1190 730 602 585 597 416 333 362 382 469 202 68 11 19 52 0 0 1 7 18 52 45 0 0 0 0 0 0 0 0 0 0
1695 1624 1459 924 1299 1744 1340 1284 741 1137 1011 558 406 407 359 425 441 568 608 383 397 230 104 85 39 11 9 0 11 0 5 1 10 10 0 0 0 0 0 0 0 0 0
1113 1310 1247 1161 1087 892 889 442 586 827 463 343 436 299 438 411 433 488 282 227 166 105 120 35 8 18 5 15 6 5 5 9 7 29 1 0 0 0 0 0 0 0 0
951 782 919 990 470 462 435 479 423 353 371 319 246 219 108 85 83 120 112 46 25 47 72 15 22 3 33 2 2 0 1 13 3 0 1 0 0 0 0 0 0 0 0
506 559 666 448 483 365 331 346 317 245 218 223 180 0 1 0 0 0 0 23 130 38 32 16 41 4 9 2 1 0 0 0 5 0 4 2 0 0 1 6 10 13 13
293 350 221 204 214 161 201 145 84 50 135 200 0 0 0 0 0 0 0 0 0 17 11 42 0 4 2 0 0 0 0 0 0 0 1 0 27 59 57 46 39 52 50
198 192 152 137 72 75 115 23 13 30 53 14 0 0 0 0 0 0 0 0 0 17 2 2 4 4 10 0 5 0 0 0 0 0 1 0 0 42 79 86 77 68 60
98 132 56 12 0 0 0 31 24 19 15 1 0 0 1 0 0 0 0 0 0 0 1 6 1 0 4 10 5 1 9 10 10 1 1 0 0 0 33 65 69 61 69
0 0 0 0 0 10 18 16 17 4 3 12 3 17 1 0 0 0 0 0 0 0 0 10 11 0 2 4 0 5 2 0 0 0 0 0 0 26 29 32 18 27 63
0 0 0 0 0 0 11 12 9 4 10 0 0 0 0 1 0 0 0 1 0 0 0 0 0 0 0 4 1 0 0 2 0 0 0 0 0 0 0 22 28 18 1

GFSMA_con_mucape_117.txt.gz
CAPE
3409 3085 2640 2839 2659 2444 2615 2446 2015 2019 1847 1590 1606 1582 1535 1563 1529 1012 1666 712 700 1007 1343 1109 944 750 557 300 230 177 144 41 3 2 19 22 23 32 7 11 17 4 5
3085 2810 2952 2377 2743 2415 2259 2590 2256 1946 1987 1850 1785 1580 1681 1287 1441 1431 1463 996 562 604 933 1271 1144 901 608 272 230 145 106 74 31 17 23 28 29 25 6 3 4 4 15
3633 3192 2879 2748 2107 2431 2847 2951 2731 2314 2031 2123 1889 1767 1535 1446 1597 1444 1139 1162 583 488 524 679 797 673 631 212 115 119 89 40 37 33 31 29 32 27 20 4 2 2 4
3241 3215 2715 3007 2712 2712 2870 2756 2676 2499 1973 1879 1926 1930 1703 1628 1581 1472 1008 1235 890 816 411 471 536 384 64 355 167 75 19 41 52 45 45 32 32 34 26 15 2 4 19
3326 3332 2688 2674 3336 2886 2981 2653 2417 2492 2456 2143 1978 1827 1844 1652 1582 1095 1036 1348 1015 681 601 389 401 90 123 304 295 150 31 14 31 43 49 42 45 34 23 22 4 10 31
3365 3232 2724 2889 2795 2962 3075 3059 2725 2457 2255 2153 1584 1680 2016 1674 1519 1266 1172 1019 748 1072 650 631 231 99 24 59 175 157 35 23 38 39 37 47 47 35 28 27 13 21 11
3639 3445 3256 3283 2958 2627 2542 2862 2854 2725 2311 2398 2090 1990 1845 1783 1690 1395 1190 771 767 851 960 852 619 258 15 6 20 211 121 38 44 47 56 49 46 29 27 21 27 24 15
3579 3685 3612 3331 3288 2558 1960 2264 2293 2681 2851 2767 2046 1705 1104 1202 1323 1376 1033 890 1004 821 854 997 721 409 343 121 54 103 182 189 154 84 57 50 48 35 25 20 30 28 25
3607 3733 3706 3466 3281 2871 2504 2089 1995 2117 1920 2488 2513 1307 1008 706 913 1236 1357 1106 1099 1018 900 832 595 452 223 121 59 32 35 41 61 82 64 46 47 37 30 27 27 25 23
3482 3752 3819 3675 3328 2804 2337 1849 1648 1634 1782 1564 1752 1935 1703 920 725 678 1025 1175 1120 1123 1059 942 537 212 123 79 22 38 22 12 14 34 68 63 42 36 33 30 32 26 24
3082 3572 3621 3550 3257 2749 2431 2107 1624 1518 1542 1537 1213 1726 2154 1926 1668 1030 979 625 655 652 737 960 696 267 103 22 40 30 24 16 8 11 28 56 43 40 23 21 21 29 31
2679 3433 3226 3151 2824 2431 2396 2347 1838 1414 1469 1215 1289 1267 1356 1561 1463 1051 885 970 733 697 484 675 638 335 129 23 41 31 27 29 18 4 7 28 43 29 22 19 26 35 38
2514 2812 2765 2595 2607 2382 2148 2187 1530 1348 1443 1154 1331 1095 1748 1535 1559 1109 1012 1062 776 546 726 667 640 371 112 130 38 3 13 20 10 11 1 6 34 19 16 11 26 29 36
2726 2829 2626 2030 2364 2371 1964 1740 1589 1360 1362 1205 1056 1199 1613 1895 1683 1120 695 833 848 786 715 537 275 251 51 120 19 8 0 0 5 35 0 0 20 19 11 5 15 16 24
2724 2676 2477 1711 1595 1803 1980 1615 1275 1370 1323 1320 1282 1191 1752 1730 1786 1523 1232 678 979 886 682 337 306 314 138 0 1 0 0 0 5 1 0 0 6 12 7 6 11 13 9
2538 2323 2258 1650 1661 1550 1633 1880 1571 1506 1412 1404 1134 1181 1195 1777 1584 1529 1246 1267 1129 923 741 702 219 249 286 34 0 0 0 1 11 8 2 0 0 2 5 9 10 10 10
1960 2094 2100 1612 1480 1472 1645 1727 1601 1359 1660 1570 973 1016 1188 1574 1310 727 602 923 941 717 371 540 554 377 548 231 15 4 14 5 2 19 26 13 0 0 0 0 9 10 12
1818 1999 1910 1811 1629 1464 1399 1639 1537 1669 990 1264 1075 813 948 1098 931 726 460 325 319 394 378 262 446 376 294 458 180 5 0 2 1 3 18 42 6 0 0 0 0 0 15
1077 1186 1168 1012 1214 1125 1261 998 1071 1009 1268 761 689 779 960 558 346 294 466 569 607 288 431 308 134 86 220 201 64 5 23 9 1 5 6 15 36 0 0 0 0 0 0
1191 1025 1124 1188 1306 1048 1008 1125 1071 1184 646 562 758 533 344 232 166 106 103 117 160 308 99 124 112 24 34 42 61 8 0 2 9 3 0 4 20 10 1 0 0 0 0
994 1006 898 879 963 945 1000 848 848 609 543 431 307 288 134 87 60 125 84 1 2 4 16 34 18 14 12 10 3 50 28 9 0 0 2 0 5 1 4 2 0 0 0
643 636 502 561 618 491 427 452 373 344 285 193 101 105 112 123 132 5 0 0 0 0 0 0 2 22 8 11 4 18 4 3 5 6 0 2 6 11 12 4 1 0 0
343 390 466 349 431 374 330 257 197 174 185 159 90 35 1 20 14 16 1 0 0 0 0 0 0 0 13 13 9 17 9 0 5 5 8 0 1 9 20 12 2 14 37
21 257 279 266 199 174 135 122 94 12 23 5 9 3 14 34 36 3 3 1 0 0 0 0 0 1 2 3 12 2 0 0 0 5 10 0 2 3 9 3 4 41 66
0 0 0 0 29 7 17 18 14 2 0 5 0 9 27 19 21 3 0 0 0 0 0 0 0 0 0 0 5 0 0 1 1 4 6 0 3 7 9 1 30 42 57
0 0 0 0 0 0 0 0 0 0 0 0 0 2 3 3 4 11 0 2 0 0 0 0 0 0 0 0 0 0 0 0 0 0 0 1 14 3 0 0 21 1 1

GFSMA_con_mucape_120.txt.gz
CAPE
2538 2595 2178 2489 2283 2369 2172 2188 1877 1533 1493 1494 1495 1401 1224 1286 1326 885 639 803 1054 1551 1778 1343 1062 705 547 477 595 528 354 102 16 0 18 10 21 28 4 6 3 23 22
2551 2503 2409 2568 2408 2306 2353 2166 2164 1812 1648 1673 1597 1437 1251 1260 1362 1154 937 626 801 1006 1306 1645 1441 1000 772 465 461 365 331 206 125 20 15 11 13 13 17 2 11 10 19
2814 2790 2588 2384 2434 2285 2435 2212 2308 2043 1847 1664 1627 1485 1476 1580 1411 1211 1244 849 584 648 683 1121 1357 1280 787 599 220 148 186 211 149 73 28 11 22 21 20 2 6 2 15
3090 2618 2489 2723 2691 2469 2367 2213 2182 2268 1858 1798 1714 1589 1567 1515 1437 1256 1120 1176 756 546 537 562 738 793 465 707 232 83 75 105 162 100 42 26 27 29 21 6 4 1 4
2586 2973 2590 2368 2584 2844 2454 2458 2310 2369 2156 1860 1787 1711 1645 1566 1439 1260 1145 911 887 834 459 409 462 483 238 289 390 337 164 82 44 118 49 37 37 36 13 22 6 2 1
2313 2342 2809 2463 2208 2571 2754 2473 2430 2369 2297 1972 1774 1701 1752 1573 1397 1258 1044 1469 957 573 446 402 353 384 321 211 564 455 393 198 77 34 57 44 47 40 26 13 13 3 9
2557 2345 2497 2728 2365 2041 2483 2676 2461 2286 2190 2062 1973 1706 1638 1517 1430 1313 1075 953 833 657 511 316 247 151 113 85 374 559 431 299 111 36 73 56 44 39 33 7 8 4 23
2564 2674 2525 2441 2501 2060 2114 2814 2644 2301 2193 2128 1824 1482 1574 1552 1500 1267 1064 1136 1094 665 600 444 418 245 167 143 22 164 240 324 228 146 89 57 43 39 37 17 11 23 28
2293 2869 2693 2384 2474 2385 2105 2287 2516 2375 2001 2108 1836 1395 1179 843 947 1103 1257 1082 829 742 575 569 440 320 229 180 44 7 1 36 145 169 117 56 49 27 35 33 26 29 27
2432 2612 2826 2800 2613 2642 2357 2205 2046 1915 2111 2078 1933 1635 1105 926 474 1044 1042 1023 810 694 666 652 545 418 344 181 64 7 0 6 38 69 117 78 52 28 26 27 20 26 33
2084 2292 2259 2539 2794 2444 2479 2045 1776 1670 1824 1690 1927 1634 1546 1320 1198 962 701 1009 957 808 739 717 642 466 265 209 90 0 0 19 10 10 32 74 58 50 30 24 14 19 24
1093 1928 1944 2239 2605 2566 1726 898 1736 1611 1617 1524 1506 1386 1412 1457 1246 1034 1018 647 605 671 638 738 728 539 292 110 38 2 0 6 3 3 10 11 36 46 33 29 24 16 24
308 1185 1677 2019 2464 2624 2117 2006 1797 1582 1477 1371 1395 1195 1120 1196 1326 1192 1077 717 600 531 447 475 544 586 384 200 27 4 6 0 0 1 4 2 15 26 19 20 21 24 23
12 676 1228 1412 1998 2188 2173 2045 1984 1660 1732 1873 1681 1190 1229 1046 1013 875 767 639 514 476 368 337 481 541 362 238 121 9 0 0 0 2 3 5 5 11 14 7 5 6 16
1 232 1130 1239 1513 2049 2095 2119 1887 1959 1895 1687 1752 1456 1162 1005 1041 1049 1033 711 431 312 295 316 304 450 280 235 189 75 2 1 0 1 4 3 7 10 1 13 6 5 3
3 442 935 1131 1007 1542 1825 1675 1580 1462 1633 1773 1177 1183 1565 1139 1113 1127 1126 796 507 377 266 449 317 286 244 221 179 70 4 1 6 0 2 4 1 28 0 16 12 12 6
5 581 947 733 3 997 1305 1376 1485 1298 1471 1510 1070 1120 1487 1148 1319 1263 964 840 593 495 335 285 308 235 167 181 148 74 20 1 1 0 0 0 3 8 12 17 24 14 12
137 961 1093 798 205 988 1201 1341 1191 1198 1501 1520 1727 1446 1421 1165 1127 1062 932 700 509 400 286 259 241 220 281 166 92 74 14 0 0 0 0 0 2 10 14 9 16 47 11
475 649 500 497 790 982 1173 1204 1193 1161 1060 1376 1506 1476 1392 1553 956 1059 864 744 368 311 277 204 158 124 128 135 111 64 74 7 0 0 5 6 3 8 9 1 18 2 5
156 126 267 294 411 521 846 1048 994 1129 1299 1096 1133 1049 979 935 810 566 446 309 275 267 167 174 150 51 75 131 117 71 72 73 43 12 4 13 9 26 10 49 39 24 1
19 66 144 174 238 337 613 723 991 828 872 857 813 872 854 384 426 354 307 87 75 170 138 107 85 2 23 18 15 19 53 33 16 8 39 22 16 17 6 10 25 55 13
0 157 358 228 241 501 469 408 597 677 695 626 595 541 237 208 170 184 111 95 112 87 89 37 0 0 0 0 26 34 8 15 4 0 9 14 12 24 18 3 16 7 19
202 276 304 308 281 312 283 266 371 396 461 498 419 286 242 158 125 111 77 66 65 78 1 0 0 0 0 0 0 8 15 10 7 16 6 0 2 4 13 10 8 10 30
73 146 135 229 224 278 86 12 9 26 211 171 45 158 88 50 83 98 88 7 2 0 1 6 0 0 0 0 0 1 5 1 19 14 8 0 5 6 4 9 8 6 10
0 0 0 14 0 25 31 49 0 2 0 6 11 6 0 0 1 4 0 0 2 28 25 3 0 0 0 0 0 0 0 0 0 2 11 2 0 1 10 2 1 8 13
0 0 0 0 0 0 0 0 0 0 0 0 0 0 0 0 0 0 13 23 38 6 2 8 3 0 0 0 0 0 0 0 0 0 2 0 0 0 0 1 12 6 9

GFSMA_con_mucape_123.txt.gz
CAPE
2435 2550 2150 2061 1856 1849 1783 1735 1633 1437 1288 1221 1306 1263 1000 805 866 891 872 1051 1250 1421 1876 1412 1303 1220 880 677 513 451 480 129 37 7 16 13 14 30 27 29 16 19 21
2342 2233 1924 2065 1936 1832 1755 1852 1794 1556 1160 1203 1345 1283 1047 901 1103 945 831 933 1192 1377 1672 1775 1606 1251 866 548 573 620 490 245 135 64 3 0 14 30 5 13 11 25 31
1855 2279 2262 1988 2034 1880 1869 1779 1864 1742 1362 1200 1441 1387 1213 1162 1067 1129 921 763 795 1095 1353 1510 1481 1447 1285 970 644 628 441 281 203 113 15 6 9 19 12 5 8 6 28
2358 1952 2408 2026 2270 1890 1915 1871 1754 1892 1779 1474 1458 1441 1308 1308 1282 1268 1055 899 763 762 977 1267 1252 1135 1098 1011 587 399 314 334 267 164 30 1 13 29 25 13 3 7 7
1984 2343 2252 2285 1989 2294 2004 1980 1873 1859 1830 1614 1528 1173 1283 1372 1296 1311 1224 1050 856 751 650 606 877 948 820 784 842 515 356 258 174 284 74 0 23 35 25 24 6 5 5
1743 1764 2408 2424 2366 2376 2308 2090 1968 1892 1839 1712 1525 1504 1381 1398 1457 1358 1288 1053 901 870 779 506 531 595 543 361 676 737 481 398 276 188 218 25 14 34 31 28 24 23 7
1452 1894 1762 2311 2266 1983 2290 2050 2002 1787 1860 1867 1625 1541 1383 1477 1524 1410 1272 1109 932 925 892 567 396 429 454 282 211 594 573 752 534 198 175 109 27 29 36 36 26 28 34
1445 1621 1355 1480 2235 2002 1751 2184 2038 1867 1785 1913 1670 1470 1574 1603 1568 1395 1255 1098 1064 809 800 629 416 302 324 340 244 422 674 799 703 277 216 117 21 29 36 41 35 34 29
685 1475 1400 1330 1647 2093 2100 1561 2202 2149 1775 1803 1591 1343 1274 1128 1225 1318 1308 1141 1050 786 810 779 411 318 282 314 159 103 83 160 298 473 229 118 24 29 33 36 37 43 38
562 570 1360 1545 1364 1640 2111 1790 1837 2244 1827 1499 1509 1237 871 693 740 808 1168 1132 1105 758 874 948 502 422 398 317 239 153 114 38 51 122 203 149 83 20 20 30 36 38 39
294 671 782 1218 1670 1514 1928 1631 1544 1905 1967 1418 1417 1319 1170 855 547 714 950 970 945 874 807 671 534 486 440 377 327 237 99 30 5 13 47 125 111 22 15 7 21 33 33
225 399 998 811 1154 1633 1658 1746 1614 1309 1354 1190 1350 1387 1349 1130 818 853 757 868 851 873 874 732 592 508 490 459 378 235 91 39 9 0 1 47 63 63 2 7 14 29 35
0 190 206 535 976 1128 1577 1752 1537 1006 524 765 1156 1519 1413 1333 1090 816 727 648 669 632 722 716 645 520 487 486 367 219 70 0 0 0 0 1 34 33 9 0 8 28 41
0 0 56 270 609 879 1179 1402 1362 1024 539 97 695 979 1067 1323 1289 1177 971 629 443 362 427 544 629 624 537 480 346 214 82 0 0 0 0 0 4 23 22 6 0 0 10
0 0 0 0 150 696 864 999 1172 1026 706 362 281 580 770 1184 1058 1011 1112 973 658 232 335 318 361 397 457 467 357 261 119 27 0 0 0 0 6 11 7 4 3 0 0
0 0 0 0 0 42 622 877 816 777 783 843 720 778 737 976 1143 1059 1096 979 698 396 140 174 297 306 464 463 363 248 183 98 2 0 0 0 2 10 18 8 10 10 2
0 0 0 0 0 23 768 954 795 647 667 958 923 949 865 968 1589 1295 1295 1021 913 791 425 230 266 277 296 379 298 225 207 163 44 0 1 0 3 2 19 33 15 21 20
2 1 0 0 9 45 390 417 327 42 1 576 987 1101 834 888 1203 1251 1188 797 744 692 403 283 212 256 182 136 161 182 173 130 67 19 3 10 0 0 0 0 0 25 20
13 3 2 0 43 778 138 1 0 0 594 980 1193 1075 919 814 757 1073 1097 783 782 636 366 278 200 176 132 140 100 102 92 76 45 30 17 15 5 0 0 0 6 13 21
25 70 57 164 244 297 346 99 75 385 498 617 721 828 812 732 685 882 1008 972 770 551 269 248 222 117 109 126 81 74 61 64 58 43 1 3 20 13 13 2 9 28 33
38 47 72 75 43 37 143 221 138 345 227 271 563 591 560 609 604 695 734 686 1128 315 182 150 161 114 102 59 48 63 12 5 2 2 20 8 3 4 15 16 13 29 38
20 21 22 1 39 78 8 51 216 134 293 313 517 246 89 484 594 423 499 439 325 309 193 48 32 33 42 43 24 23 0 7 16 2 40 2 0 7 10 15 14 8 23
0 22 0 0 0 0 0 0 0 0 95 269 56 88 104 287 386 352 386 255 259 193 105 21 39 56 14 61 0 0 0 0 9 1 8 16 10 4 2 6 10 9 17
0 0 0 0 0 0 0 0 0 0 0 9 85 24 138 23 151 233 227 313 105 27 1 11 18 1 0 0 0 0 0 0 0 0 3 4 6 4 7 19 9 8 10
0 0 0 0 0 0 0 0 0 0 0 0 0 23 46 0 0 0 70 33 6 1 5 0 3 10 2 2 0 0 0 0 0 0 0 1 2 0 0 5 9 6 0
0 0 0 0 0 0 0 0 0 0 0 0 0 0 0 0 0 0 0 0 0 0 0 0 0 0 1 10 22 6 0 0 0 0 0 0 0 0 0 0 0 0 11

GFSMA_con_mucape_129.txt.gz
CAPE
2075 2500 2402 1660 1689 1954 2357 2397 1720 1135 936 800 669 557 569 529 447 763 776 625 779 1246 1829 1804 1821 1561 1375 1245 1061 974 841 395 222 96 82 65 21 15 22 22 33 56 52
1299 1494 1841 1661 1665 1592 2032 1984 2109 1592 1432 889 764 658 534 489 377 472 762 744 665 932 1342 2134 1928 1744 1527 1280 1058 954 884 632 487 291 139 52 15 0 8 16 30 37 49
1003 1120 1337 1652 1480 1581 1917 2201 1950 1835 1403 927 809 721 724 628 451 290 654 646 726 893 867 1183 1579 1797 1785 1700 1278 1024 788 583 476 402 163 40 9 0 1 6 14 22 19
626 832 972 1132 1447 1304 1482 1884 1911 2002 1689 1073 892 706 672 891 766 396 633 649 638 848 907 978 1329 1452 1473 1632 1474 999 883 695 546 458 196 61 12 1 1 0 18 31 30
0 116 150 510 234 634 1065 1220 1308 1434 1379 1577 940 871 582 700 1006 796 675 690 674 768 780 936 1205 1210 1222 1250 1557 1154 728 608 531 500 331 122 41 6 13 0 7 28 38
1 0 26 124 11 81 678 982 1142 1195 1224 1379 1168 968 856 530 786 893 678 786 726 666 655 700 858 1079 1183 1190 1213 1477 974 1143 917 591 508 342 123 47 32 3 0 26 39
0 0 0 0 18 62 179 446 949 1205 1069 1043 933 941 1110 644 778 1002 849 825 818 783 744 663 641 781 978 1061 948 1334 1325 1138 1028 902 663 438 225 66 28 3 1 0 29
0 0 0 0 4 92 88 141 512 600 850 1003 754 888 854 868 734 908 953 993 971 938 892 831 721 631 684 822 850 851 1264 1298 1201 1126 588 425 283 105 48 5 3 1 39
0 0 0 0 0 23 99 4 131 554 477 783 848 496 505 496 686 882 995 897 991 1014 1013 968 915 836 682 559 602 758 797 794 686 882 589 432 263 169 44 14 5 8 33
0 0 0 0 0 7 70 31 64 63 147 388 596 545 338 364 468 460 669 918 937 1037 1064 1036 982 834 699 631 570 389 461 558 561 509 543 562 241 163 52 30 42 2 39
0 0 0 0 0 0 30 110 20 12 23 225 507 402 487 255 326 352 382 711 688 972 1111 1118 1040 870 719 668 567 464 316 278 365 357 288 280 327 170 148 85 70 32 27
0 0 0 0 0 0 3 40 210 89 105 232 404 378 364 317 144 193 224 209 602 728 928 1056 1129 957 857 788 578 501 465 338 191 195 133 71 74 140 116 135 105 62 45
0 0 0 0 0 0 0 3 141 211 274 365 436 365 371 376 294 173 141 94 195 381 677 912 1121 1035 903 883 738 542 537 485 234 225 167 131 62 63 20 66 71 33 29
0 0 0 0 0 0 0 0 0 0 64 126 346 422 382 426 475 250 41 143 106 127 321 453 574 801 780 856 848 602 580 563 291 261 218 174 101 13 0 11 38 10 8
0 0 0 0 0 0 0 0 0 0 12 6 123 271 380 273 191 51 34 0 92 6 79 350 469 469 445 586 768 682 547 402 319 282 243 187 119 39 0 1 14 25 12
0 0 0 0 0 0 0 0 0 0 0 0 28 190 282 199 121 15 39 13 18 193 163 215 374 481 412 436 630 639 583 410 377 278 234 149 112 34 12 0 0 2 7
0 0 0 0 0 0 0 0 0 0 0 0 29 148 269 246 163 78 57 34 92 167 238 121 257 259 217 344 374 420 500 430 381 300 241 164 90 43 6 0 0 0 9
0 0 0 0 0 0 0 0 0 3 5 26 95 142 244 257 169 89 112 73 66 9 145 84 207 313 292 204 319 283 334 351 351 384 299 193 130 63 33 4 0 1 5
0 0 0 0 1 4 1 0 0 5 5 4 18 228 178 100 207 117 85 19 0 1 27 33 119 197 189 188 166 203 271 253 275 257 251 155 122 88 62 12 0 0 0
0 0 0 0 0 2 2 2 3 11 9 7 24 124 262 282 239 312 337 192 99 0 7 84 114 155 166 188 118 137 165 220 178 157 87 66 81 90 83 45 16 4 1
0 0 0 0 0 1 8 1 13 14 18 15 2 10 15 4 31 65 28 2 129 150 156 251 401 202 115 245 158 160 146 97 55 63 75 72 43 44 32 20 20 14 7
0 0 0 0 0 0 2 4 3 15 9 103 47 2 3 37 43 22 79 34 0 75 199 272 250 139 179 117 147 154 94 38 58 66 81 40 17 23 19 0 0 0 0
0 0 0 0 0 0 0 0 29 28 5 10 6 4 9 19 16 8 21 7 0 5 108 189 307 152 57 111 179 106 65 51 67 52 47 0 0 5 0 0 0 0 0
0 0 0 0 0 0 0 0 0 0 1 1 4 1 4 2 17 22 10 13 1 16 43 132 120 82 83 91 230 52 48 68 60 47 38 3 1 0 0 0 0 0 0
0 0 0 0 0 0 0 0 0 0 0 0 0 0 0 0 0 12 5 0 2 0 1 0 1 4 4 0 0 6 0 24 30 3 3 0 0 0 0 0 0 0 0
0 0 0 0 0 0 0 0 0 0 0 0 0 0 0 0 4 0 0 0 0 0 0 0 0 0 0 0 0 0 0 7 23 0 4 0 2 0 0 0 0 0 0